[[{"header":{"parameterUnit":"m.s-1","parameterCategory":1,"la1":31.0,"la2":29.5877,"lo1":-88.7671,"lo2":-86.6584,"dy":0.0162,"dx":0.0185,"nx":115,"ny":88,"refTime":"2024-02-14T06:00:00:Z","depth":0,"parameterNumber":2,"parameterNumberName":"U-component_of_WINDS"},"data":[0.0,0.0,0.0,0.0,0.0,0.0,0.0,0.0,0.0,0.0,0.0,0.0,0.0,0.0,0.0,0.0,0.0,0.0,0.0,0.0,0.0,0.0,0.0,0.0,0.0,0.0,0.0,0.0,0.0,0.0,0.0,0.0,0.0,0.0,0.0,0.0,0.0,0.0,0.0,0.0,0.0,0.0,0.0,0.0,0.0,0.0,0.0,0.0,0.0,0.0,0.0,0.0,0.0,0.0,0.0,0.0,0.0,0.0,0.0,0.0,0.0,0.0,0.0,0.0,0.0,0.0,0.0,0.0,0.0,0.0,0.0,0.0,0.0,0.0,0.0,0.0,0.0,0.0,0.0,0.0,0.0,0.0,0.0,0.0,0.0,0.0,0.0,0.0,0.0,0.0,0.0,0.0,0.0,0.0,0.0,0.0,0.0,0.0,0.0,0.0,0.0,0.0,0.0,0.0,0.0,0.0,0.0,0.0,0.0,0.0,0.0,0.0,0.0,0.0,0.0,0.0,0.0,0.0,0.0,0.0,0.0,0.0,0.0,0.0,0.0,0.0,0.0,0.0,0.0,0.0,0.0,0.0,0.0,0.0,0.0,0.0,0.0,0.0,0.0,0.0,0.0,0.0,0.0,0.0,0.0,0.0,0.0,0.0,0.0,0.0,0.0,0.0,0.0,0.0,0.0,0.0,0.0,0.0,0.0,0.0,0.0,0.0,0.0,0.0,0.0,0.0,0.0,0.0,0.0,0.0,0.0,0.0,0.0,0.0,0.0,0.0,0.0,0.0,0.0,0.0,0.0,0.0,0.0,0.0,0.0,0.0,0.0,0.0,0.0,0.0,0.0,0.0,0.0,0.0,0.0,0.0,0.0,0.0,0.0,0.0,0.0,0.0,0.0,0.0,0.0,0.0,0.0,0.0,0.0,0.0,0.0,0.0,0.0,0.0,0.0,0.0,0.0,0.0,0.0,0.0,0.0,0.0,0.0,0.0,0.0,0.0,0.0,0.0,0.0,0.0,0.0,0.0,0.0,0.0,0.0,0.0,0.0,0.0,0.0,0.0,0.0,0.0,0.0,0.0,0.0,0.0,0.0,0.0,0.0,0.0,0.0,0.0,0.0,0.0,0.0,0.0,0.0,0.0,0.0,0.0,0.0,0.0,0.0,0.0,0.0,0.0,0.0,0.0,0.0,0.0,0.0,0.0,0.0,0.0,0.0,0.0,0.0,0.0,0.0,0.0,0.0,0.0,0.0,0.0,0.0,0.0,0.0,0.0,0.0,0.0,0.0,0.0,0.0,0.0,0.0,0.0,0.0,0.0,0.0,0.0,0.0,0.0,0.0,0.0,0.0,0.0,0.0,0.0,0.0,0.0,0.0,0.0,0.0,0.0,0.0,0.0,0.0,0.0,0.0,0.0,0.0,0.0,0.0,0.0,0.0,0.0,0.0,0.0,0.0,0.0,0.0,0.0,0.0,0.0,0.0,0.0,0.0,0.0,0.0,0.0,0.0,0.0,0.0,0.0,0.0,0.0,0.0,0.0,0.0,0.0,0.0,0.0,0.0,0.0,0.0,0.0,0.0,0.0,0.0,0.0,0.0,0.0,0.0,0.0,0.0,0.0,0.0,0.0,0.0,0.0,0.0,0.0,0.0,0.0,0.0,0.0,0.0,0.0,0.0,0.0,0.0,0.0,0.0,0.0,0.0,0.0,0.0,0.0,0.0,0.0,0.0,0.0,0.0,0.0,0.0,0.0,0.0,0.0,0.0,0.0,0.0,0.0,0.0,0.0,0.0,0.0,0.0,0.0,0.0,0.0,0.0,0.0,0.0,0.0,0.0,0.0,0.0,0.0,0.0,0.0,0.0,0.0,0.0,0.0,0.0,0.0,0.0,0.0,0.0,0.0,0.0,0.0,0.0,0.0,0.0,0.0,0.0,0.0,0.0,0.0,0.0,0.0,0.0,0.0,0.0,0.0,0.0,0.0,0.0,0.0,0.0,0.0,0.0,0.0,0.0,0.0,0.0,0.0,0.0,0.0,0.0,0.0,0.0,0.0,0.0,0.0,0.0,0.0,0.0,0.0,0.0,0.0,0.0,0.0,0.0,0.0,0.0,0.0,0.0,0.0,0.0,0.0,0.0,0.0,0.0,0.0,0.0,0.0,0.0,0.0,0.0,0.0,0.0,0.0,0.0,0.0,0.0,0.0,0.0,0.0,0.0,0.0,0.0,0.0,0.0,0.0,0.0,0.0,0.0,0.0,0.0,0.0,0.0,0.0,0.0,0.0,0.0,0.0,0.0,0.0,0.0,0.0,0.0,0.0,0.0,0.0,0.0,0.0,0.0,0.0,0.0,0.0,0.0,0.0,0.0,0.0,0.0,0.0,0.0,0.0,0.0,0.0,0.0,0.0,0.0,0.0,0.0,0.0,0.0,0.0,0.0,0.0,0.0,0.0,0.0,0.0,0.0,0.0,0.0,0.0,0.0,0.0,0.0,0.0,0.0,0.0,0.0,0.0,0.0,0.0,0.0,0.0,0.0,0.0,0.0,0.0,0.0,0.0,0.0,0.0,0.0,0.0,0.0,0.0,0.0,0.0,0.0,0.0,0.0,0.0,0.0,0.0,0.0,0.0,0.0,0.0,0.0,0.0,0.0,0.0,0.0,0.0,0.0,0.0,0.0,0.0,0.0,0.0,0.0,0.0,0.0,0.0,0.0,0.0,0.0,0.0,0.0,0.0,0.0,0.0,0.0,0.0,0.0,0.0,0.0,0.0,0.0,0.0,0.0,0.0,0.0,0.0,0.0,0.0,0.0,0.0,0.0,0.0,0.0,0.0,0.0,0.0,0.0,0.0,0.0,0.0,0.0,0.0,0.0,0.0,0.0,0.0,0.0,0.0,0.0,0.0,0.0,0.0,0.0,0.0,0.0,0.0,0.0,0.0,0.0,0.0,0.0,0.0,0.0,0.0,0.0,0.0,0.0,0.0,0.0,0.0,0.0,0.0,0.0,0.0,0.0,0.0,0.0,0.0,0.0,0.0,0.0,0.0,0.0,0.0,0.0,0.0,0.0,0.0,0.0,0.0,0.0,0.0,0.0,0.0,0.0,0.0,0.0,0.0,0.0,0.0,0.0,0.0,0.0,0.0,0.0,0.0,0.0,0.0,0.0,0.0,0.0,0.0,0.0,0.0,0.0,0.0,0.0,0.0,0.0,0.0,0.0,0.0,0.0,0.0,0.0,0.0,0.0,0.0,0.0,0.0,0.0,0.0,0.0,0.0,0.0,0.0,0.0,0.0,0.0,0.0,0.0,0.0,0.0,0.0,0.0,0.0,0.0,0.0,0.0,0.0,0.0,0.0,0.0,0.0,0.0,0.0,0.0,0.0,0.0,0.0,0.0,0.0,0.0,0.0,0.0,0.0,0.0,0.0,0.0,0.0,0.0,0.0,0.0,0.0,0.0,0.0,0.0,0.0,0.0,0.0,0.0,0.0,0.0,0.0,0.0,0.0,0.0,0.0,0.0,0.0,0.0,0.0,0.0,0.0,0.0,0.0,0.0,0.0,0.0,0.0,0.0,0.0,0.0,0.0,0.0,0.0,0.0,0.0,0.0,0.0,0.0,0.0,0.0,0.0,0.0,0.0,0.0,0.0,0.0,0.0,0.0,0.0,0.0,0.0,0.0,0.0,0.0,0.0,0.0,0.0,0.0,0.0,0.0,0.0,0.0,0.0,0.0,0.0,0.0,0.0,0.0,0.0,0.0,0.0,0.0,0.0,0.0,0.0,0.0,0.0,0.0,0.0,0.0,0.0,0.0,0.0,0.0,0.0,0.0,0.0,0.0,0.0,0.0,0.0,0.0,0.0,0.0,0.0,0.0,0.0,0.0,0.0,0.0,0.0,0.0,0.0,0.0,0.0,0.0,0.0,0.0,0.0,0.0,0.0,0.0,0.0,0.0,0.0,0.0,0.0,0.0,0.0,0.0,0.0,0.0,0.0,0.0,0.0,0.0,0.0,0.0,0.0,0.0,0.0,0.0,0.0,0.0,0.0,0.0,0.0,0.0,0.0,0.0,0.0,0.0,0.0,0.0,0.0,0.0,0.0,0.0,0.0,0.0,0.0,0.0,0.0,0.0,0.0,0.0,0.0,0.0,0.0,0.0,0.0,0.0,0.0,0.0,0.0,0.0,0.0,0.0,0.0,0.0,0.0,0.0,0.0,0.0,0.0,0.0,0.0,0.0,0.0,0.0,0.0,0.0,0.0,0.0,0.0,0.0,0.0,0.492,0.0,0.0,0.0,0.0,0.0,0.0,0.0,0.0,0.0,0.0,0.0,0.0,0.0,0.0,0.0,0.0,0.0,0.0,0.0,0.0,0.0,0.0,0.0,0.0,0.0,0.0,0.0,0.0,0.0,0.0,0.0,0.0,0.0,0.0,0.0,0.0,0.0,0.0,0.0,0.0,0.0,0.0,0.0,0.0,0.0,0.0,0.0,0.0,0.0,0.0,0.0,0.0,0.0,0.0,0.0,0.0,0.0,0.0,0.0,0.0,0.0,0.0,0.0,0.0,0.0,0.0,0.0,0.0,0.0,0.0,0.0,0.0,0.0,0.0,0.0,0.0,0.0,0.0,0.0,0.0,0.0,0.0,0.0,0.0,0.0,0.0,0.0,0.0,0.0,0.0,0.0,0.0,0.0,0.0,0.0,0.0,0.0,0.0,0.0,0.0,0.0,0.0,0.0,0.0,0.0,0.0,0.0,0.0,0.0,0.0,0.5335,0.5251,0.5763,0.5594,0.4686,0.0,0.0,0.0,0.0,0.0,0.0,0.0,0.0,0.0,0.0,0.0,0.0,0.0,0.0,0.0,0.0,0.0,0.0,0.0,0.0,0.0,0.0,0.0,0.0,0.0,0.0,0.0,0.0,0.0,0.0,0.0,0.0,0.0,0.0,0.0,0.0,0.0,0.0,0.0,0.0,0.0,0.0,0.0,0.0,0.0,0.0,0.0,0.0,0.0,0.0,0.0,0.0,0.0,0.0,0.0,0.0,0.0,0.0,0.0,0.0,0.0,0.0,0.0,0.0,0.0,0.0,0.0,0.0,0.0,0.0,0.0,0.0,0.0,0.0,0.0,0.0,0.0,0.0,0.0,0.0,0.0,0.0,0.0,0.0,0.0,0.0,0.0,0.0,0.0,0.0,0.0,0.0,0.0,0.0,0.0,0.0,0.0,0.0,0.0,0.0,0.0,0.0,0.0,0.0,0.0,0.0,0.0,0.0,0.0,0.0,0.0,0.0,0.5621,0.5429,0.4636,0.0,0.0,0.0,0.0,0.0,0.0,0.0,0.0,0.0,0.0,0.0,0.0,0.0,0.0,0.0,0.0,0.0,0.0,0.0,0.0,0.0,0.0,0.0,0.0,0.0,0.0,0.0,0.0,0.0,0.0,0.0,0.0,0.0,0.0,0.0,0.0,0.0,0.0,0.0,0.0,0.0,0.0,0.0,0.0,0.0,0.0,0.0,0.0,0.0,0.0,0.0,0.0,0.0,0.0,0.0,0.0,0.0,0.0,0.0,0.0,0.0,0.0,0.0,0.0,0.0,0.0,0.0,0.0,0.0,0.0,0.0,0.0,0.0,0.0,0.0,0.0,0.0,0.0,0.0,0.0,0.0,0.0,0.0,0.0,0.0,0.0,0.0,0.0,0.0,0.0,0.0,0.0,0.0,0.0,0.0,0.0,0.0,0.0,0.0,0.0,0.0,0.0,0.0,0.0,0.0,0.0,0.0,0.0,0.0,0.0,0.5373,0.5644,0.5568,0.0,0.4881,0.0,0.0,0.0,0.0,0.0,0.0,0.0,0.0,0.0,0.0,0.0,0.0,0.0,0.0,0.0,0.0,0.0,0.0,0.0,0.0,0.0,0.0,0.0,0.0,0.0,0.0,0.0,0.0,0.0,0.0,0.0,0.0,0.0,0.0,0.0,0.0,0.0,0.0,0.0,0.0,0.0,0.0,0.0,0.0,0.0,0.0,0.0,0.0,0.0,0.0,0.0,0.0,0.0,0.0,0.0,0.0,0.0,0.0,0.0,0.0,0.0,0.0,0.0,0.0,0.0,0.0,0.0,0.0,0.0,0.0,0.0,0.0,0.0,0.0,0.0,0.0,0.0,0.0,0.0,0.0,0.0,0.0,0.0,0.0,0.0,0.0,0.0,0.0,0.0,0.0,0.0,0.0,0.0,0.0,0.0,0.0,0.0,0.0,0.0,0.0,0.0,0.0,0.0,0.0,0.0,0.0,0.0,0.0,0.0,0.0,0.5162,0.5338,0.5095,0.4841,0.0,0.0,0.0,0.0,0.0,0.0,0.0,0.0,0.0,0.0,0.0,0.0,0.0,0.0,0.0,0.0,0.0,0.0,0.0,0.0,0.0,0.0,0.0,0.0,0.0,0.0,0.0,0.0,0.0,0.0,0.0,0.0,0.0,0.0,0.0,0.0,0.0,0.0,0.0,0.0,0.0,0.0,0.0,0.0,0.0,0.0,0.0,0.0,0.0,0.0,0.0,0.0,0.0,0.0,0.0,0.0,0.0,0.0,0.0,0.0,0.0,0.0,0.0,0.0,0.0,0.0,0.0,0.0,0.0,0.0,0.0,0.0,0.0,0.0,0.0,0.0,0.0,0.0,0.0,0.0,0.0,0.0,0.0,0.0,0.0,0.0,0.0,0.0,0.0,0.0,0.0,0.0,0.0,0.0,0.0,0.0,0.0,0.0,0.0,0.0,0.0,0.0,0.0,0.0,0.0,0.0,0.0,0.0,0.0,0.0,0.5181,0.5169,0.5206,0.4813,0.4537,0.4375,0.0,0.0,0.0,0.0,0.0,0.0,0.0,0.0,0.0,0.0,0.0,0.0,0.0,0.0,0.0,0.0,0.0,0.0,0.0,0.0,0.0,0.0,0.0,0.0,0.0,0.0,0.0,0.0,0.0,0.0,0.0,0.0,0.0,0.0,0.0,0.0,0.0,0.0,0.0,0.0,0.0,0.0,0.0,0.0,0.0,0.0,0.0,0.0,0.0,0.0,0.0,0.0,0.0,0.0,0.0,0.0,0.0,0.0,0.0,0.0,0.0,0.0,0.0,0.0,0.0,0.0,0.0,0.0,0.0,0.0,0.0,0.0,0.0,0.0,0.0,0.0,0.0,0.0,0.0,0.0,0.0,0.0,0.0,0.0,0.0,0.0,0.0,0.0,0.0,0.0,0.0,0.0,0.0,0.0,0.0,0.0,0.0,0.0,0.0,0.0,0.0,0.0,0.0,0.0,0.0,0.0,0.0,0.0,0.5886,0.5629,0.5506,0.5564,0.4949,0.4596,0.0,0.0,0.0,0.0,0.0,0.0,0.0,0.0,0.0,0.0,0.0,0.0,0.0,0.0,0.0,0.0,0.0,0.0,0.0,0.0,0.0,0.0,0.0,0.0,0.0,0.0,0.0,0.0,0.0,0.0,0.0,0.0,0.0,0.0,0.0,0.0,0.0,0.0,0.0,0.0,0.0,0.0,0.0,0.0,0.0,0.0,0.0,0.0,0.0,0.0,0.0,0.0,0.0,0.0,0.0,0.0,0.0,0.0,0.0,0.0,0.0,0.0,0.0,0.0,0.0,0.0,0.0,0.0,0.0,0.0,0.0,0.0,0.0,0.0,0.0,0.0,0.0,0.0,0.0,0.0,0.0,0.0,0.0,0.0,0.0,0.0,0.0,0.0,0.0,0.0,0.0,0.0,0.0,0.0,0.0,0.0,0.0,0.0,0.0,0.0,0.0,0.0,0.0,0.0,0.0,0.0,0.0,0.0,0.0,0.5225,0.529,0.545,0.5707,0.5153,0.4934,0.0,0.0,0.0,0.0,0.0,0.0,0.0,0.0,0.0,0.0,0.0,0.0,0.0,0.0,0.0,0.0,0.0,0.0,0.0,0.0,0.0,0.0,0.0,0.0,0.0,0.0,0.0,0.0,0.0,0.0,0.0,0.0,0.0,0.0,0.0,0.0,0.0,0.0,0.0,0.0,0.0,0.0,0.0,0.0,0.0,0.0,0.0,0.0,0.0,0.0,0.0,0.0,0.0,0.0,0.0,0.0,0.0,0.0,0.0,0.0,0.0,0.0,0.0,0.0,0.0,0.0,0.0,0.0,0.0,0.0,0.0,0.0,0.0,0.0,0.0,0.0,0.0,0.0,0.0,0.0,0.0,0.0,0.0,0.0,0.0,0.0,0.0,0.0,0.0,0.0,0.0,0.0,0.0,0.0,0.0,0.0,0.0,0.0,0.0,0.0,0.0,0.0,0.0,0.0,0.0,0.0,0.0,0.0,0.0,0.5342,0.0,0.5772,0.6016,0.5495,0.5151,0.0,0.0,0.0,0.0,0.0,0.0,0.0,0.0,0.0,0.0,0.0,0.0,0.0,0.0,0.0,0.0,0.0,0.0,0.0,0.0,0.0,0.0,0.0,0.0,0.0,0.0,0.0,0.0,0.0,0.0,0.0,0.0,0.0,0.0,0.0,0.0,0.0,0.0,0.0,0.0,0.0,0.0,0.0,0.0,0.0,0.0,0.0,0.0,0.0,0.0,0.0,0.0,0.0,0.0,0.0,0.0,0.0,0.0,0.0,0.0,0.0,0.0,0.0,0.0,0.0,0.0,0.0,0.0,0.0,0.0,0.0,0.0,0.0,0.0,0.0,0.0,0.0,0.0,0.0,0.0,0.0,0.0,0.0,0.0,0.0,0.0,0.0,0.0,0.0,0.0,0.0,0.0,0.0,0.0,0.0,0.0,0.0,0.0,0.0,0.0,0.0,0.0,0.0,0.0,0.0,0.0,0.0,0.0,0.5348,0.6414,0.6532,0.6567,0.6585,0.5954,0.5274,0.0,0.0,0.0,0.0,0.0,0.0,0.0,0.0,0.0,0.0,0.0,0.0,0.0,0.0,0.0,0.0,0.0,0.0,0.0,0.0,0.0,0.0,0.0,0.0,0.0,0.0,0.0,0.0,0.0,0.0,0.0,0.0,0.0,0.0,0.0,0.0,0.0,0.0,0.0,0.0,0.0,0.0,0.0,0.0,0.0,0.0,0.0,0.0,0.0,0.0,0.0,0.0,0.0,0.0,0.0,0.0,0.0,0.0,0.0,0.0,0.0,0.0,0.0,0.0,0.0,0.0,0.0,0.0,0.0,0.0,0.0,0.0,0.0,0.0,0.0,0.0,0.0,0.0,0.0,0.0,0.0,0.0,0.0,0.0,0.0,0.0,0.0,0.0,0.0,0.0,0.0,0.0,0.0,0.0,0.0,0.0,0.0,0.0,0.0,0.0,0.0,0.0,0.0,0.0,0.0,0.0,0.0,0.0,0.0,0.5875,0.6266,0.6801,0.7431,0.6313,0.5783,0.0,0.0,0.0,0.0,0.0,0.0,0.0,0.0,0.0,0.0,0.0,0.0,0.0,0.0,0.0,0.0,0.0,0.0,0.0,0.0,0.0,0.0,0.0,0.0,0.0,0.0,0.0,0.0,0.0,0.0,0.0,0.0,0.0,0.0,0.0,0.0,0.0,0.0,0.0,0.0,0.0,0.0,0.0,0.0,0.0,0.0,0.0,0.0,0.0,0.0,0.0,0.0,0.0,0.0,0.0,0.0,0.0,0.0,0.0,0.0,0.0,0.0,0.0,0.0,0.0,0.0,0.0,0.0,0.0,0.0,0.0,0.0,0.0,0.0,0.0,0.0,0.0,0.0,0.0,0.0,0.0,0.0,0.0,0.0,0.0,0.0,0.0,0.0,0.0,0.0,0.0,0.0,0.0,0.0,0.0,0.0,0.0,0.0,0.0,0.0,0.0,0.0,0.0,0.0,0.0,0.0,0.0,0.0,0.0,0.6675,0.6932,0.7425,0.8133,0.6945,0.6327,0.6365,0.0,0.0,0.0,0.0,0.0,0.0,0.0,0.0,0.0,0.0,0.0,0.0,0.0,0.0,0.0,0.0,0.0,0.0,0.0,0.0,0.0,0.0,0.0,0.0,0.0,0.0,0.0,0.0,0.0,0.0,0.0,0.0,0.0,0.0,0.0,0.0,0.0,0.0,0.0,0.0,0.0,0.0,0.0,0.0,0.0,0.0,0.0,0.0,0.0,0.0,0.0,0.0,0.0,0.0,0.0,0.0,0.0,0.0,0.0,0.0,0.0,0.0,0.0,0.0,0.0,0.0,0.0,0.0,0.0,0.0,0.0,0.0,0.0,0.0,0.0,0.0,0.0,0.0,0.0,0.0,0.0,0.0,0.0,0.0,0.0,0.0,0.0,0.0,0.0,0.0,0.0,0.0,0.0,0.0,0.0,0.0,0.0,0.0,0.0,0.0,0.0,0.0,0.0,0.0,0.0,0.0,0.0,0.0,0.8468,0.8293,0.8361,0.8606,0.7728,0.687,0.0,0.0,0.0,0.0,0.0,0.0,0.0,0.0,0.0,0.0,0.0,0.0,0.0,0.0,0.0,0.0,0.0,0.0,0.0,0.0,0.0,0.0,0.0,0.0,0.0,0.0,0.0,0.0,0.0,0.0,0.0,0.0,0.0,0.0,0.0,0.0,0.0,0.0,0.0,0.0,0.0,0.0,0.0,0.0,0.0,0.0,0.0,0.0,0.0,0.0,0.0,0.0,0.0,0.0,0.0,0.0,0.0,0.0,0.0,0.0,0.0,0.0,0.0,0.0,0.0,0.0,0.0,0.0,0.0,0.0,0.0,0.0,0.0,0.0,0.0,0.0,0.0,0.0,0.0,0.0,0.0,0.0,0.0,0.0,0.0,0.0,0.0,0.0,0.0,0.0,0.0,0.0,0.0,0.0,0.0,0.0,0.0,0.0,0.0,0.0,0.0,0.0,0.0,0.0,0.0,0.0,0.0,0.0,0.0,0.8299,0.8352,0.8606,0.9138,0.7672,0.681,0.0,0.0,0.0,0.0,0.0,0.0,0.0,0.0,0.0,0.0,0.0,0.0,0.0,0.0,0.0,0.0,0.0,0.0,0.0,0.0,0.0,0.0,0.0,0.0,0.0,0.0,0.0,0.0,0.0,0.0,0.0,0.0,0.0,0.0,0.0,0.0,0.0,0.0,0.0,0.0,0.0,0.0,0.0,0.0,0.0,0.0,0.0,0.0,0.0,0.0,0.0,0.0,0.0,0.0,0.0,0.0,0.0,0.0,0.0,0.0,0.0,0.0,0.0,0.0,0.0,0.0,0.0,0.0,0.0,0.0,0.0,0.0,0.0,0.0,0.0,0.0,0.0,0.0,0.0,0.0,0.0,0.0,0.0,0.0,0.0,0.0,0.0,0.0,0.0,0.0,0.0,0.0,0.0,0.0,0.0,0.0,0.0,0.0,0.0,0.0,0.0,0.0,0.0,0.0,0.0,0.0,0.0,0.0,0.7505,0.8906,0.8697,0.885,0.9478,0.8193,0.7394,0.0,0.0,0.0,0.0,0.0,0.0,0.0,0.0,0.0,0.0,0.0,0.0,0.0,0.0,0.0,0.0,0.0,0.0,0.0,0.0,0.0,0.0,0.0,0.0,0.0,0.0,0.0,0.0,0.0,0.0,0.0,0.0,0.0,0.0,0.0,0.0,0.0,0.0,0.0,0.0,0.0,0.0,0.0,0.0,0.0,0.0,0.0,0.0,0.0,0.0,0.0,0.0,0.0,0.0,0.0,0.0,0.0,0.0,0.0,0.0,0.0,0.0,0.0,0.0,0.0,0.0,0.0,0.0,0.0,0.0,0.0,0.0,0.0,0.0,0.0,0.0,0.0,0.0,0.0,0.0,0.0,0.0,0.0,0.0,0.0,0.0,0.0,0.0,0.0,0.0,0.0,0.0,0.0,0.0,0.0,0.0,0.0,0.0,0.0,0.0,0.0,0.0,0.0,0.0,0.0,0.0,0.0,0.0,0.8321,0.9842,0.9308,0.9262,0.9767,0.8958,0.8155,0.0,0.0,0.0,0.0,0.0,0.0,0.0,0.0,0.0,0.0,0.0,0.0,0.0,0.0,0.0,0.0,0.0,0.0,0.0,0.0,0.0,0.0,0.0,0.0,0.0,0.0,0.0,0.0,0.0,0.0,0.0,0.0,0.0,0.0,0.0,0.0,0.0,0.0,0.0,0.0,0.0,0.0,0.0,0.0,0.0,0.0,0.0,0.0,0.0,0.0,0.0,0.0,0.0,0.0,0.0,0.0,0.0,0.0,0.0,0.0,0.0,0.0,0.0,0.0,0.0,0.0,0.0,0.0,0.0,0.0,0.0,0.0,0.0,0.0,0.0,0.0,0.0,0.0,0.0,0.0,0.0,0.0,0.0,0.0,0.0,0.0,0.0,0.0,0.0,0.0,0.0,0.0,0.0,0.0,0.0,0.0,0.0,0.0,0.0,0.0,0.0,0.0,0.0,0.0,0.0,0.0,0.0,0.0,0.9322,1.0388,1.0451,1.0744,1.13,0.9005,0.7505,0.0,0.0,0.0,0.0,0.0,0.0,0.0,0.0,0.0,0.0,0.0,0.0,0.0,0.0,0.0,0.0,0.0,0.0,0.0,0.0,0.0,0.0,0.0,0.0,0.0,0.0,0.0,0.0,0.0,0.0,0.0,0.0,0.0,0.0,0.0,0.0,0.0,0.0,0.0,0.0,0.0,0.0,0.0,0.0,0.0,0.0,0.0,0.0,1.8823,0.0,0.0,0.0,0.0,0.0,0.0,0.0,0.0,0.0,0.0,0.0,0.0,0.0,0.0,0.0,0.0,0.0,0.0,0.0,0.0,0.0,0.0,0.0,0.0,0.0,0.0,0.0,0.0,0.0,0.0,0.0,0.0,0.0,0.0,0.0,0.0,0.0,0.0,0.0,0.0,0.0,0.0,0.0,0.0,0.0,0.0,0.0,0.0,0.0,0.0,0.0,0.0,0.0,0.0,0.0,0.0,0.0,0.0,0.0,0.9584,1.0422,1.025,1.0372,1.0764,0.9143,0.8125,0.0,0.0,0.0,0.0,0.0,0.0,0.0,0.0,0.0,0.0,0.0,0.0,0.0,0.0,0.0,0.0,0.0,0.0,0.0,0.0,0.0,0.0,0.0,0.0,0.0,0.0,0.0,0.0,0.0,0.0,0.0,0.0,0.0,0.0,0.0,0.0,0.0,0.0,0.0,0.0,0.0,0.0,0.0,0.0,0.0,0.0,0.0,0.0,0.0,0.0,0.0,0.0,0.0,0.0,0.0,0.0,0.0,0.0,0.0,0.0,0.0,0.0,0.0,0.0,0.0,0.0,0.0,0.0,0.0,0.0,0.0,0.0,0.0,0.0,0.0,0.0,0.0,0.0,0.0,0.0,0.0,0.0,0.0,0.0,0.0,0.0,0.0,0.0,0.0,0.0,0.0,0.0,0.0,0.0,0.0,0.0,0.0,0.0,0.0,0.0,0.0,0.0,0.0,0.0,0.0,0.0,0.0,0.9268,0.9876,1.0552,1.0217,1.0159,1.0407,0.9991,0.9647,0.9399,0.0,0.0,0.0,0.0,0.0,0.0,0.0,0.0,0.0,0.0,0.0,0.0,0.0,0.0,0.0,0.0,0.0,0.0,0.0,0.0,0.0,0.0,0.0,0.0,0.0,0.0,0.0,0.0,0.0,0.0,0.0,0.0,0.0,0.0,0.0,0.0,0.0,0.0,1.4284,1.5424,0.0,0.0,0.0,0.0,0.0,0.0,0.0,0.0,1.9473,0.0,0.0,0.0,0.0,0.0,0.0,0.0,0.0,0.0,0.0,0.0,0.0,0.0,0.0,0.0,0.0,0.0,0.0,0.0,0.0,0.0,0.0,0.0,0.0,0.0,0.0,0.0,0.0,0.0,0.0,0.0,0.0,0.0,0.0,0.0,0.0,0.0,0.0,0.0,0.0,0.0,0.0,0.0,0.0,0.0,0.0,0.0,0.0,0.0,0.0,0.0,0.0,0.0,0.0,0.0,0.0,0.9371,1.0666,1.1553,1.1974,1.2799,1.3212,1.3152,1.3158,1.2298,1.0426,0.0,0.0,0.0,0.0,0.0,0.0,0.0,0.0,0.0,0.0,0.0,0.0,0.0,0.0,0.0,0.0,0.0,0.0,0.0,0.0,0.0,0.0,0.0,0.0,0.0,0.0,0.0,0.0,0.0,0.0,0.0,0.0,0.0,0.0,0.0,0.0,0.0,0.0,0.0,1.711,1.7705,0.0,0.0,0.0,0.0,0.0,0.0,0.0,0.0,1.8117,0.0,0.0,0.0,0.0,0.0,0.0,0.0,0.0,0.0,0.0,0.0,0.0,0.0,0.0,0.0,0.0,0.0,0.0,0.0,0.0,0.0,0.0,0.0,0.0,0.0,0.0,0.0,0.0,0.0,0.0,0.0,0.0,0.0,0.0,0.0,0.0,0.0,0.0,0.0,0.0,0.0,0.0,0.0,0.0,0.0,0.0,0.0,0.0,0.0,0.0,0.0,0.0,0.0,0.0,0.0,1.0024,1.1266,1.1963,1.1957,1.2467,1.2582,1.2259,1.2243,1.1473,0.0,0.0,0.0,0.0,0.0,0.0,0.0,0.0,0.0,0.0,0.0,0.0,0.0,0.0,0.0,0.0,0.0,0.0,0.0,0.0,0.0,0.0,0.0,0.0,0.0,0.0,0.0,0.0,0.0,0.0,0.0,0.0,0.0,0.0,0.0,0.0,0.0,0.0,0.0,0.0,1.7509,1.7993,1.8519,0.0,0.0,0.0,0.0,0.0,0.0,1.7953,1.7865,0.0,0.0,0.0,0.0,0.0,0.0,0.0,0.0,0.0,0.0,0.0,0.0,0.0,0.0,0.0,0.0,0.0,0.0,0.0,0.0,0.0,0.0,0.0,0.0,0.0,0.0,0.0,0.0,0.0,0.0,0.0,0.0,0.0,0.0,0.0,0.0,0.0,0.0,0.0,0.0,0.0,0.0,0.0,0.0,0.0,0.0,0.0,0.0,0.0,0.0,0.0,0.0,0.0,0.0,0.0,1.048,1.1563,1.202,1.1825,1.1934,1.1771,1.1318,1.1217,1.0644,0.0,0.0,0.0,0.0,0.0,0.0,0.0,0.0,0.0,0.0,0.0,0.0,0.0,0.0,0.0,0.0,0.0,0.0,0.0,0.0,0.0,0.0,0.0,0.0,0.0,0.0,0.0,0.0,0.0,0.0,0.0,0.0,0.0,0.0,0.0,0.0,0.0,0.0,0.0,0.0,0.0,1.8044,1.8338,1.8032,0.0,0.0,0.0,0.0,1.782,1.8109,0.0,0.0,0.0,0.0,0.0,0.0,0.0,0.0,0.0,0.0,0.0,0.0,0.0,0.0,0.0,0.0,0.0,0.0,0.0,0.0,0.0,0.0,0.0,0.0,0.0,0.0,0.0,0.0,0.0,0.0,0.0,0.0,0.0,0.0,0.0,0.0,0.0,0.0,0.0,0.0,0.0,0.0,0.0,0.0,0.0,0.0,0.0,0.0,0.0,0.0,0.0,0.0,0.0,0.0,0.0,0.0,1.0587,1.1703,1.2332,1.2513,1.3003,1.3184,1.3025,1.3108,1.2328,0.0,0.0,0.0,0.0,0.0,0.0,0.0,0.0,0.0,0.0,0.0,0.0,0.0,0.0,0.0,0.0,0.0,0.0,0.0,0.0,0.0,0.0,0.0,0.0,0.0,0.0,0.0,0.0,0.0,0.0,0.0,0.0,0.0,0.0,0.0,0.0,0.0,0.0,0.0,0.0,0.0,1.8178,1.7764,1.7859,1.7928,0.0,0.0,0.0,1.8437,1.8907,0.0,0.0,0.0,0.0,0.0,0.0,0.0,0.0,0.0,0.0,0.0,0.0,0.0,0.0,0.0,0.0,0.0,0.0,0.0,0.0,0.0,0.0,0.0,0.0,0.0,0.0,0.0,0.0,0.0,0.0,0.0,0.0,0.0,0.0,0.0,0.0,0.0,0.0,0.0,0.0,0.0,0.0,0.0,0.0,0.0,0.0,0.0,0.0,0.0,0.0,0.0,0.0,0.0,0.0,0.0,1.0687,1.0901,1.1933,1.2446,1.2428,1.2682,1.2758,1.262,1.2566,1.1902,0.0,0.0,0.0,0.0,0.0,0.0,0.0,0.0,0.0,0.0,0.0,0.0,0.0,0.0,0.0,0.0,0.0,0.0,0.0,0.0,0.0,0.0,0.0,0.0,0.0,0.0,0.0,0.0,0.0,0.0,0.0,0.0,0.0,0.0,0.0,0.0,0.0,0.0,0.0,0.0,0.0,0.0,1.8404,1.8175,0.0,0.0,0.0,1.797,1.7921,0.0,0.0,0.0,0.0,0.0,0.0,0.0,0.0,0.0,0.0,0.0,0.0,0.0,0.0,0.0,0.0,0.0,0.0,0.0,0.0,0.0,0.0,0.0,0.0,0.0,0.0,0.0,0.0,0.0,0.0,0.0,0.0,0.0,0.0,0.0,0.0,0.0,0.0,0.0,0.0,0.0,0.0,0.0,0.0,0.0,0.0,0.0,0.0,0.0,0.0,0.0,0.0,0.0,0.0,0.0,0.0,0.0,1.1129,1.2097,1.2529,1.2382,1.2382,1.2336,1.2282,1.2104,0.0,0.0,0.0,0.0,0.0,0.0,0.0,0.0,0.0,0.0,0.0,0.0,0.0,0.0,0.0,0.0,0.0,0.0,0.0,0.0,0.0,0.0,0.0,0.0,0.0,0.0,0.0,0.0,0.0,0.0,0.0,0.0,0.0,0.0,0.0,0.0,0.0,0.0,0.0,0.0,0.0,0.0,1.8554,1.8859,1.8614,1.8547,0.0,0.0,1.8149,1.8036,1.8415,1.8784,0.0,0.0,0.0,0.0,0.0,0.0,0.0,0.0,0.0,0.0,0.0,0.0,0.0,0.0,0.0,0.0,0.0,0.0,0.0,0.0,0.0,0.0,0.0,0.0,0.0,0.0,0.0,0.0,0.0,0.0,0.0,0.0,0.0,0.0,0.0,0.0,0.0,0.0,0.0,0.0,0.0,0.0,0.0,0.0,0.0,0.0,0.0,0.0,0.0,0.0,0.0,0.0,0.0,0.0,0.0,1.1144,1.2082,1.259,1.259,1.259,1.2636,1.2736,1.2606,1.2076,0.0,0.0,0.0,0.0,0.0,0.0,0.0,0.0,0.0,0.0,0.0,0.0,0.0,0.0,0.0,0.0,0.0,0.0,0.0,0.0,0.0,0.0,0.0,0.0,0.0,0.0,0.0,0.0,0.0,0.0,0.0,0.0,0.0,0.0,0.0,0.0,0.0,0.0,0.0,0.0,0.0,1.8592,1.8615,1.9112,1.9712,0.0,0.0,1.8947,1.9538,1.9676,1.9701,1.9713,0.0,0.0,0.0,0.0,0.0,0.0,0.0,0.0,0.0,0.0,0.0,0.0,0.0,0.0,0.0,0.0,0.0,0.0,0.0,0.0,0.0,0.0,0.0,0.0,0.0,0.0,0.0,0.0,0.0,0.0,0.0,0.0,0.0,0.0,0.0,0.0,0.0,0.0,0.0,0.0,0.0,0.0,0.0,0.0,0.0,0.0,0.0,0.0,0.0,0.0,0.0,0.0,0.0,1.1227,1.122,1.2209,1.2729,1.2713,1.2713,1.279,1.2928,1.2874,1.248,0.0,0.0,0.0,0.0,0.0,0.0,0.0,0.0,0.0,0.0,0.0,0.0,0.0,0.0,0.0,0.0,0.0,0.0,0.0,0.0,0.0,0.0,0.0,0.0,0.0,0.0,0.0,0.0,1.4881,1.5033,1.4892,0.0,0.0,0.0,0.0,0.0,0.0,0.0,0.0,0.0,0.0,1.9568,1.9693,1.9927,0.0,0.0,2.0148,1.9903,2.0233,2.0298,2.0422,2.0848,2.1201,0.0,0.0,0.0,0.0,0.0,0.0,0.0,0.0,0.0,0.0,0.0,0.0,0.0,0.0,0.0,0.0,0.0,0.0,0.0,0.0,0.0,0.0,0.0,0.0,0.0,0.0,0.0,0.0,0.0,0.0,0.0,0.0,0.0,0.0,0.0,0.0,0.0,0.0,0.0,0.0,0.0,0.0,0.0,0.0,0.0,0.0,0.0,0.0,0.0,0.0,0.0,0.0,1.1354,1.1354,1.2351,1.2867,1.2851,1.2851,1.2943,1.3089,1.3035,1.2771,0.0,0.0,0.0,0.0,0.0,0.0,0.0,0.0,0.0,0.0,0.0,0.0,0.0,0.0,0.0,0.0,0.0,0.0,0.0,0.0,0.0,0.0,0.0,0.0,0.0,0.0,0.0,0.0,1.5111,1.5266,1.5247,0.0,0.0,0.0,0.0,0.0,0.0,0.0,0.0,0.0,0.0,2.0408,2.0664,2.0839,2.0964,2.1064,2.0847,2.0725,2.0836,2.0704,2.0759,2.1282,0.0,0.0,0.0,0.0,0.0,0.0,0.0,0.0,0.0,0.0,0.0,0.0,0.0,0.0,0.0,0.0,0.0,0.0,0.0,0.0,0.0,0.0,0.0,0.0,0.0,0.0,0.0,0.0,0.0,0.0,0.6217,0.0,0.0,0.0,0.0,0.0,0.0,0.0,0.0,0.0,0.0,0.0,0.0,0.0,0.0,0.0,0.0,0.0,0.0,0.0,0.0,0.0,0.0,0.0,1.1517,1.2508,1.3004,1.3012,1.3012,1.3136,1.3304,1.3119,1.2885,1.258,0.0,0.0,0.0,0.0,0.0,0.0,0.0,0.0,0.0,0.0,0.0,0.0,0.0,0.0,0.0,0.0,0.0,0.0,0.0,0.0,0.0,0.0,0.0,0.0,0.0,0.0,1.4,1.4318,1.4858,0.0,0.0,0.0,0.0,0.0,0.0,0.0,0.0,0.0,0.0,2.0588,2.1011,2.1347,2.1825,2.2113,2.2141,2.1704,2.1392,2.1407,2.0971,2.0653,0.0,0.0,0.0,0.0,0.0,0.0,0.0,0.0,0.0,0.0,0.0,0.0,0.0,0.0,0.0,0.0,0.0,0.0,0.0,0.0,0.0,0.0,0.0,0.0,0.0,0.0,0.0,0.644,0.6392,0.0,0.0,0.0,0.0,0.0,0.0,0.0,0.0,0.0,0.0,0.0,1.0448,1.0821,0.0,0.0,0.0,0.0,0.0,0.0,0.0,0.0,0.0,0.0,0.0,0.0,1.1756,1.2128,1.3177,1.3733,1.3742,1.3986,1.4098,1.4032,1.4107,1.3637,1.2639,0.0,0.0,0.0,0.0,0.0,0.0,0.0,0.0,0.0,0.0,0.0,0.0,0.0,0.0,0.0,0.0,0.0,0.0,0.0,0.0,0.0,0.0,0.0,0.0,0.0,1.4776,0.0,0.0,0.0,0.0,0.0,0.0,0.0,0.0,0.0,0.0,0.0,1.9917,2.0578,2.1182,2.1663,2.1906,2.2077,2.2216,0.0,0.0,0.0,0.0,0.0,0.0,0.0,0.0,0.0,0.0,0.0,0.0,0.0,0.0,2.287,2.2448,2.2468,2.2506,2.237,0.0,0.0,0.0,0.0,0.0,0.0,0.0,0.0,0.0,0.0,0.0,0.0,0.0,0.0,0.0,0.0,0.7571,0.0,0.0,0.0,0.0,0.0,0.0,0.0,0.0,1.0151,1.0631,1.0973,1.1326,1.1643,0.0,1.2147,1.2096,0.0,0.0,0.0,0.0,0.0,0.0,0.0,0.0,1.2563,1.2937,1.3862,1.437,1.4378,1.4618,1.4717,1.4587,1.4563,1.4119,1.323,1.2774,1.2234,0.0,0.0,0.0,0.0,0.0,0.0,0.0,0.0,0.0,0.0,0.0,0.0,0.0,0.0,0.0,0.0,0.0,0.0,0.0,0.0,0.0,0.0,0.0,1.5226,0.0,0.0,0.0,0.0,0.0,0.0,0.0,0.0,0.0,1.8495,1.9575,2.0611,2.1263,2.156,2.1831,2.2146,0.0,0.0,0.0,0.0,0.0,0.0,0.0,2.2478,2.2739,2.265,2.2632,2.2754,2.2942,2.2967,2.2572,0.0,0.0,2.3225,2.33,2.3405,2.3407,2.343,2.3498,2.3736,2.3739,2.3806,0.0,0.0,0.0,0.0,0.0,0.0,0.0,0.0,0.8093,0.8527,0.0,0.8431,0.0,0.0,0.0,0.0,0.0,0.0,0.0,0.0,1.0843,1.1207,1.1393,1.1714,1.2106,1.2634,1.2963,1.3356,1.3785,1.279,0.0,0.0,0.0,0.0,0.0,0.0,1.3896,1.3929,1.4567,1.492,1.4903,1.4937,1.4938,1.4921,1.4565,1.435,1.429,1.3536,1.2849,1.2371,1.1611,0.0,0.0,0.0,0.0,0.0,0.0,0.0,0.0,0.0,0.0,0.0,0.0,0.0,0.0,0.0,0.0,0.0,0.0,0.0,0.0,1.4445,0.0,0.0,0.0,0.0,0.0,0.0,0.0,0.0,0.0,0.0,1.9744,2.01,2.0804,2.2038,0.0,0.0,0.0,0.0,2.2201,2.2232,2.2213,2.2278,2.242,2.242,2.2515,2.2863,0.0,0.0,2.2909,2.303,2.3063,2.2924,2.3005,2.3168,2.333,2.3375,2.3328,2.3155,2.2854,2.281,2.3377,2.3397,2.3393,0.6641,0.0,0.0,0.0,0.0,0.627,0.6613,0.6912,0.8056,0.8513,0.8529,0.8885,0.0,0.0,0.0,0.0,0.0,0.0,1.054,1.1206,1.1532,1.1984,1.2578,1.2684,1.2886,1.3168,1.3375,1.3605,1.3891,1.4106,1.3754,1.2899,0.0,0.0,0.0,0.0,1.3934,1.4349,1.498,1.5338,1.5338,1.5608,1.5687,1.5541,1.5389,1.5205,1.4939,1.47,1.4171,1.334,1.3221,0.0,0.0,0.0,0.0,0.0,0.0,0.0,0.0,0.0,0.0,0.0,0.0,0.0,0.0,0.0,0.0,0.0,0.0,0.0,1.4459,1.5541,1.6044,0.0,0.0,0.0,0.0,0.0,0.0,0.0,0.0,0.0,2.0348,2.102,2.1638,0.0,0.0,2.2174,2.2331,2.2463,2.2586,2.2681,0.0,0.0,0.0,2.2805,2.2833,2.3015,2.3032,2.306,2.3047,2.3078,2.3078,2.3032,2.3078,2.311,2.318,2.3195,2.318,2.3098,2.3117,2.32,2.3412,2.372,2.4045,0.8361,0.7455,0.6858,0.6626,0.6712,0.7153,0.7461,0.7762,0.8773,0.9211,0.9229,0.9573,0.972,0.9719,1.0005,0.0,0.0,0.0,1.1567,1.2205,1.2318,1.2675,1.3199,1.3266,1.3461,1.3806,1.3967,1.4209,1.4552,1.4982,1.4925,1.4363,0.0,0.0,1.3827,1.4272,1.4697,1.5019,1.5497,1.5747,1.5721,1.5826,1.5887,1.5912,1.5589,1.5354,1.5325,1.5219,1.4855,1.4212,1.4082,1.3762,0.0,0.0,0.0,0.0,0.0,0.0,0.0,0.0,0.0,0.0,0.0,1.132,0.0,0.0,0.0,0.0,1.3001,1.3684,1.484,1.5625,0.0,0.0,0.0,0.0,0.0,0.0,0.0,1.8221,1.8891,1.9617,2.0301,2.1268,2.1984,2.217,2.2097,2.2098,2.2368,0.0,2.2647,2.28,2.2815,2.2863,2.3002,2.2954,2.2954,2.3093,2.3095,2.3095,2.3108,2.3298,2.3461,2.3459,2.3622,2.3788,2.388,2.3883,2.3689,2.3211,2.3198,2.33,2.3388,2.3775,2.4113,1.0386,0.9887,0.8437,0.7862,0.7986,0.8856,0.9168,0.9155,0.9982,1.035,1.0347,1.0502,1.0824,1.1262,1.1642,0.0,1.2185,1.2397,1.2718,1.3152,1.3195,1.3302,1.3519,1.3671,1.3991,1.4451,1.4657,1.5021,1.5462,1.5523,1.5611,1.5788,1.5805,1.5708,1.5576,1.5718,1.5797,1.5832,1.6017,1.6114,1.6114,1.5747,1.5739,1.6097,1.5406,1.5198,1.5546,1.5331,1.5129,1.4989,1.4522,1.415,1.3854,0.0,0.0,0.0,0.0,0.0,0.0,0.0,0.0,0.0,0.0,0.0,0.0,0.0,0.0,0.0,1.4928,0.0,1.4595,1.5073,0.0,0.0,0.0,1.6564,1.7066,1.7213,1.7435,1.7899,0.0,0.0,0.0,0.0,2.1925,2.2151,2.1761,2.1693,2.2332,2.2463,2.2497,2.2723,2.2739,2.2797,2.3036,2.3113,2.3193,2.3315,2.323,2.3296,2.3333,2.37,2.4014,2.4129,2.4516,2.4879,2.5087,2.5071,2.4766,2.3596,2.3344,2.3377,2.3636,2.3873,2.4144,0.8656,0.9117,0.8476,0.8796,0.9727,0.9564,0.957,0.9753,1.0501,1.0839,1.0889,1.1542,1.2084,1.2472,1.2572,1.2716,1.2875,1.3067,1.337,1.3715,1.3971,1.4252,1.4544,1.4721,1.4884,1.5019,1.5212,1.5377,1.5505,1.5647,1.5761,1.5805,1.5805,1.585,1.5956,1.585,1.592,1.6175,1.6114,1.6149,1.6254,1.6149,1.6149,1.6246,1.6078,1.5999,1.6105,1.6051,1.5946,1.5817,1.5704,1.5523,1.53,1.4413,0.0,0.0,0.0,0.0,0.0,0.0,0.0,0.0,0.0,1.3684,1.4036,0.0,1.5049,0.0,1.5664,1.5563,1.5091,1.522,0.0,0.0,1.6617,1.6955,1.7303,1.7578,1.7949,1.8533,1.8833,1.9417,2.0534,2.1172,2.16,2.1804,2.2007,2.2286,2.2589,2.2723,2.282,2.2982,2.3037,2.318,2.3651,2.4092,2.433,2.4387,2.439,2.4387,2.4402,2.4503,2.4683,2.4925,2.5081,2.5262,2.5462,2.5607,2.5558,2.5104,2.4897,2.4834,2.505,2.5409,2.5783,0.9137,0.9583,0.9477,0.9814,1.0419,0.9956,1.0049,1.0511,1.1011,1.1131,1.1,1.1881,1.2514,1.2984,1.3385,1.355,1.3585,1.3904,1.4163,1.4355,1.4618,1.4864,1.5034,1.5248,1.5337,1.5329,1.5541,1.5629,1.5638,1.5744,1.5841,1.5938,1.592,1.6157,1.6555,1.6157,1.6035,1.6202,1.6211,1.6272,1.6411,1.6199,1.6156,1.6298,1.6156,1.6113,1.6193,1.6272,1.6246,1.6114,1.6114,1.6044,1.5929,1.5386,1.5155,0.0,0.0,0.0,0.0,0.0,0.0,0.0,0.0,0.0,0.0,0.0,1.5289,0.0,1.554,0.0,1.5473,1.5505,1.5815,1.6517,1.6754,1.6924,1.7055,1.7428,1.7843,1.82,1.8638,1.9215,2.009,2.1094,2.1707,2.1604,2.2333,2.2882,2.2908,2.3293,2.3717,2.3844,2.386,2.3963,2.4315,2.4603,2.4816,2.4816,2.4816,2.4836,2.4917,2.5057,2.527,2.5623,2.5818,2.6034,2.6294,2.6424,2.6489,2.6456,2.6346,2.6149,2.5808,2.5952,2.6192,1.0537,1.065,1.0794,1.0837,1.0761,1.0408,1.0613,1.1213,1.1419,1.1381,1.1261,1.2062,1.2678,1.3195,1.4025,1.4317,1.4201,1.4667,1.4918,1.4935,1.5151,1.524,1.524,1.5443,1.5541,1.5558,1.57,1.5814,1.5832,1.5832,1.5973,1.6219,1.621,1.6563,1.7189,1.6634,1.6281,1.6202,1.6377,1.6534,1.6707,1.6261,1.6133,1.6394,1.6125,1.6056,1.6184,1.6289,1.6272,1.6167,1.6149,1.6114,1.614,1.6149,1.6061,0.0,1.5691,0.0,0.0,0.0,0.0,0.0,0.0,0.0,0.0,1.5087,1.5344,1.5014,1.5237,1.5548,1.5871,1.5886,1.6127,1.671,1.68,1.682,1.691,1.7269,1.756,1.7704,1.8513,1.9142,1.9574,2.0996,2.1839,2.1783,2.2714,2.3364,2.3275,2.3847,2.4425,2.4768,2.485,2.4854,2.4921,2.5012,2.5129,2.5087,2.5187,2.5147,2.5363,2.562,2.5924,2.629,2.6593,2.6905,2.7302,2.736,2.7436,2.7575,2.7589,2.7291,2.6479,2.623,2.6117,1.0738,1.1446,1.1149,1.1588,1.2382,1.1847,1.1454,1.1213,1.1402,1.2019,1.2873,1.3301,1.3649,1.3919,1.425,1.4433,1.4533,1.4774,1.4989,1.5169,1.5355,1.5443,1.5443,1.5655,1.5744,1.5744,1.5788,1.5885,1.6035,1.6035,1.6307,1.6821,1.6839,1.7079,1.749,0.0,0.0,0.0,1.7099,1.7306,1.7323,1.7223,1.7118,1.7028,1.6972,0.0,1.676,1.6621,1.6516,1.6508,1.6359,0.0,0.0,0.0,0.0,0.0,0.0,0.0,0.0,0.0,0.0,0.0,1.5668,1.5583,1.5041,1.5621,1.6177,1.6443,1.6191,1.6126,1.635,1.6391,1.6619,1.7191,1.7256,1.7448,1.7932,1.8084,1.8184,1.8311,1.865,1.9253,2.0178,2.0801,2.1487,2.2406,2.3205,2.3681,2.3798,2.3886,2.412,2.4683,2.5176,2.5435,2.5435,2.5929,2.624,2.6346,2.6489,2.6548,2.6569,2.6628,2.6832,2.718,2.7295,2.7445,2.7683,2.7835,2.811,2.8388,2.8464,2.827,2.7601,2.7429,2.7462,1.0054,0.0,1.0406,1.0668,0.0,1.0906,1.0898,1.113,1.1972,1.2788,1.3533,1.3426,1.3692,1.4238,1.4149,1.4185,1.4353,1.4403,1.4602,1.4966,1.5158,1.5399,1.5664,1.5744,1.5867,1.5938,1.5947,1.6131,1.6492,1.6519,1.6838,1.7395,1.7376,1.7638,1.8128,1.8412,1.8147,1.7361,1.7528,1.7599,1.7497,1.7478,1.7513,1.7508,0.0,0.0,0.0,0.0,0.0,0.0,0.0,0.0,0.0,0.0,0.0,1.6606,1.6606,1.6591,1.6591,1.6292,1.6146,1.6228,1.6205,1.6053,1.5663,1.5993,1.6344,1.666,1.6478,1.652,1.6893,1.6938,1.7135,1.7627,1.7695,1.7867,1.823,1.8313,1.8405,1.8654,1.9019,1.9578,2.0258,2.1269,2.1938,2.2474,2.3264,2.3926,2.428,2.429,2.4472,2.5226,2.5795,2.6194,2.6287,2.6561,2.6841,2.6846,2.6709,2.6777,2.7083,2.707,2.7184,2.7781,2.8177,2.8433,2.8536,2.8779,2.9038,2.9133,2.9212,2.9202,2.8887,2.8813,2.8864,0.9601,0.9676,0.9884,0.987,0.9728,0.9887,1.042,1.1226,0.0,0.0,0.0,1.3353,1.3586,1.4276,1.4077,1.4065,1.4136,1.4182,1.4444,1.4887,1.5068,1.5385,1.5841,1.5867,1.5947,1.6132,1.6132,1.6378,1.6821,1.6893,1.7216,1.7695,1.775,1.807,1.8643,1.9088,1.8873,1.8067,1.8056,1.7947,1.7697,1.7695,1.7732,1.7793,1.7935,1.8115,1.8301,1.7911,1.7617,1.7456,1.6942,1.6638,1.6647,1.6699,1.6709,1.6719,1.6856,1.6934,1.6923,1.6736,1.6682,1.6856,1.6728,1.6581,1.6427,1.6335,1.6427,1.6751,1.6709,1.6893,1.7435,1.7507,1.766,1.8003,1.8059,1.8134,1.8337,1.8388,1.8569,1.8974,1.9503,2.0014,2.048,2.1732,2.2728,2.2644,2.3268,2.399,2.4483,2.4742,2.5086,2.5606,2.5983,2.6432,2.6611,2.6662,2.679,2.6807,2.6643,2.6728,2.7267,2.7444,2.7723,2.8408,2.8978,2.9188,2.9314,2.9465,2.9759,2.9693,2.9861,3.0028,3.0135,3.0166,3.0125,1.0775,1.1111,1.1335,1.1391,1.1347,1.1391,1.1661,1.2146,1.2949,1.3434,1.3637,1.4032,1.4075,1.3905,1.4478,1.4569,1.4321,1.4983,1.5414,0.0,1.5693,1.5833,1.6044,1.607,1.6132,1.6263,1.6272,1.6395,1.6614,1.6667,1.6962,1.7487,1.7542,1.7843,1.8453,1.9005,1.9165,1.8864,1.8999,1.8877,1.8459,1.8449,1.8197,1.7743,1.776,1.7711,1.7641,1.7455,1.7277,1.7233,1.7005,1.6874,1.6864,1.7028,1.7121,1.7125,1.7099,1.7075,1.7074,1.6828,1.6689,1.674,1.7061,1.7279,1.7226,1.6863,1.6951,1.7665,1.7457,1.7444,1.7861,1.791,1.7988,1.8209,1.8252,1.8371,1.8674,1.8728,1.9039,1.977,1.9998,2.0536,2.1457,2.1984,2.2661,2.3471,2.3586,2.3541,2.3965,2.4909,2.5523,2.5441,2.5441,2.5506,2.583,2.5741,2.6139,2.641,2.7006,2.7389,2.7963,2.8437,2.8768,2.9108,2.9318,2.9388,2.9371,2.931,2.9661,3.001,3.026,3.0505,3.0925,3.1246,3.1204,1.0425,1.0594,1.0687,1.085,1.1093,1.1632,1.2157,1.2677,1.3421,1.3604,1.3397,1.3643,1.3938,1.4222,1.4301,1.4443,1.4689,1.4752,1.5,1.5359,1.5471,1.5739,1.6088,1.6175,1.6307,1.6464,1.6473,1.6677,1.7069,1.7194,1.7449,1.7789,1.7834,1.8129,1.8704,1.9099,1.9374,1.9488,1.9475,1.9258,1.8824,1.8671,1.8529,1.8408,1.8284,1.8292,1.8479,1.8083,1.7854,1.7854,1.7445,1.7229,1.7237,1.7306,1.74,1.7467,1.7448,1.7461,1.7581,1.748,1.7399,1.7425,1.7607,1.7725,1.7725,1.7522,1.7571,1.7942,1.7822,1.7853,1.8141,1.8151,1.8245,1.8388,1.8414,1.8506,1.8771,1.9144,1.9558,2.005,2.0719,2.1346,2.1927,2.2316,2.2699,2.3449,2.3604,2.3787,2.3787,2.4634,2.5242,2.5087,2.5494,2.6079,2.6406,2.6581,2.6846,2.7326,2.716,2.729,2.7756,2.836,2.8842,2.9255,2.979,3.0286,3.0226,3.0416,3.0603,3.0666,3.0908,3.1177,3.1455,3.178,3.1838,1.0124,1.018,1.018,1.0344,1.07,1.1521,1.2224,1.2893,1.3524,1.3659,1.3448,1.363,1.4065,1.4583,1.4365,1.4523,1.488,1.474,1.4875,1.5249,1.5523,1.5913,1.6325,1.6546,1.675,1.69,1.6863,1.7051,1.7476,1.7609,1.7765,1.7962,1.8091,1.8397,1.8789,1.9194,1.9487,1.9752,1.9755,1.9543,1.9149,1.8975,1.8906,1.8875,1.8694,1.8715,1.8975,1.8515,1.8235,1.8225,1.7771,1.7478,1.7478,1.7478,1.7547,1.7647,1.7672,1.7784,1.7991,1.8008,1.8008,1.8008,1.8042,1.8059,1.8076,1.8093,1.811,1.8076,1.8066,1.8134,1.8313,1.8337,1.8444,1.8711,1.8792,1.8992,1.9294,1.9765,2.0208,2.0554,2.1407,2.2027,2.232,2.2742,2.3098,2.3313,2.3787,2.4098,2.4061,2.4469,2.4768,2.4925,2.5509,2.6105,2.6897,2.6988,2.718,2.7796,2.7271,2.7163,2.7592,2.8117,2.8697,2.9353,3.0197,3.0667,3.0797,3.111,3.1201,3.1082,3.1262,3.1587,3.1772,3.2132,3.2318,1.0818,1.0981,1.0968,1.0999,1.1093,1.1366,1.1966,1.2691,1.2929,1.343,1.4093,1.4909,1.508,1.4965,1.5349,1.5323,1.5032,1.5615,1.5939,1.6061,1.6527,1.6874,1.709,1.745,1.7768,1.7862,1.756,1.7441,1.7503,1.7348,1.7382,1.7614,1.8104,1.8307,1.8339,1.9124,1.9507,1.9373,1.9937,2.0014,1.9591,1.9693,1.9425,1.864,1.8637,1.8432,1.8205,1.7878,1.7773,1.7747,1.7609,1.7495,1.7505,1.7505,1.7505,1.7529,1.7647,1.7784,1.7991,1.8008,1.8008,1.8025,1.8178,1.8269,1.8269,1.8391,1.8398,1.8333,1.8296,1.833,1.8465,1.8519,1.8859,1.9586,1.9662,1.9955,2.0565,2.0857,2.1126,2.1783,2.1927,2.227,2.2963,2.3198,2.3409,2.3696,2.3963,2.4216,2.4267,2.4593,2.4932,2.4906,2.5078,2.5187,2.5499,2.5633,2.6373,2.6776,2.7102,2.7387,2.7878,2.8467,2.919,2.9368,2.9935,3.0139,3.0375,3.0583,3.0973,3.1035,3.131,3.1743,3.2214,3.2579,3.2682,1.1072,1.1131,1.1103,1.1446,1.1984,1.2323,1.3032,1.3952,1.4042,1.4464,1.506,1.5266,1.5169,1.4921,1.5293,1.5614,1.5987,1.6375,1.6731,1.6988,1.7294,1.7467,1.7586,1.7842,1.8026,1.81,1.7926,1.7788,1.7647,1.7486,1.7593,1.7988,1.8169,1.8422,1.8824,1.9372,1.9717,1.9889,2.0391,2.0546,2.037,2.0068,1.9681,1.924,1.9088,1.8801,1.842,1.8265,1.8114,1.7908,1.782,1.7813,1.7786,1.7786,1.7786,1.7803,1.7854,1.7923,1.7991,1.811,1.8195,1.8178,1.8347,1.8421,1.8441,1.8723,1.8924,1.8963,1.8649,1.864,1.9165,1.925,1.9613,2.0327,2.0509,2.0646,2.0945,2.1368,2.1732,2.1999,2.2466,2.2871,2.3224,2.342,2.3586,2.3842,2.4,2.4176,2.4531,2.4797,2.5019,2.5329,2.5624,2.6001,2.6243,2.648,2.6878,2.729,2.7348,2.744,2.7631,2.8143,2.868,2.9086,2.9419,2.9864,3.0438,3.059,3.0836,3.103,3.1402,3.1872,3.2078,3.2485,3.2632,1.1564,1.1671,1.1662,1.2074,1.2702,1.3065,1.3759,1.4618,1.4746,1.5101,1.5617,1.5401,1.5229,1.5122,1.515,1.5723,1.6602,1.683,1.7182,1.7643,1.792,1.8059,1.8068,1.8308,1.843,1.8402,1.8329,1.8129,1.7901,1.7881,1.8046,1.8397,1.8537,1.8886,1.944,1.9773,2.0091,2.0382,2.0741,2.0906,2.0836,2.0483,2.0143,1.9903,1.9731,1.9431,1.897,1.8807,1.8576,1.8306,1.811,1.8008,1.8008,1.8008,1.8035,1.8076,1.811,1.8144,1.8127,1.8269,1.8414,1.854,1.8689,1.8842,1.901,1.9308,1.9567,1.968,1.93,1.9342,1.981,2.0014,2.0359,2.0998,2.1097,2.1175,2.1464,2.2034,2.2408,2.2522,2.3086,2.3497,2.3497,2.3641,2.3831,2.397,2.4114,2.431,2.4852,2.5153,2.552,2.5876,2.6367,2.6733,2.7121,2.7132,2.7509,2.7649,2.745,2.7235,2.726,2.7765,2.8435,2.9055,2.9152,2.9438,3.0011,3.0349,3.0766,3.1347,3.1827,3.2155,3.2322,3.2628,3.2824,1.2426,1.2804,1.3028,1.2975,1.2916,1.3146,1.3579,1.4294,1.4416,1.4791,1.5345,1.5476,1.5576,1.5526,1.5271,1.5669,1.6567,1.6893,1.7323,1.7892,1.8351,1.8649,1.8695,1.9063,1.9199,1.9011,1.8728,1.8443,1.8154,1.8436,1.8635,1.8622,1.9304,1.9778,1.9934,2.0303,2.0576,2.0654,2.0838,2.0924,2.0944,2.1069,2.0926,2.0594,2.0541,2.0291,1.9839,1.9293,1.8969,1.8956,1.8372,1.8044,1.8018,1.8035,1.811,1.8269,1.8408,1.8475,1.8495,1.8559,1.873,1.9095,1.934,1.9624,1.9941,2.017,2.03,2.0346,2.0318,2.0364,2.0413,2.0563,2.0865,2.1358,2.1403,2.1786,2.2547,2.297,2.3383,2.3534,2.3737,2.3865,2.3851,2.4043,2.4139,2.4278,2.4554,2.4886,2.5123,2.5804,2.6295,2.6493,2.6803,2.7045,2.6714,2.7012,2.7233,2.7391,2.7484,2.7301,2.7412,2.7672,2.8422,2.8905,2.8878,2.9074,2.9542,3.0031,3.0526,3.122,3.2241,3.2668,3.265,3.3033,3.3188,1.2972,1.3114,1.3174,1.3384,1.3693,1.389,1.4294,1.4878,1.508,1.5285,1.542,1.5316,1.5343,1.5543,1.5596,1.618,1.7184,1.7789,1.8317,1.8697,1.8547,1.8452,1.843,1.8235,1.8307,1.859,1.8523,1.8545,1.8648,1.8545,1.8592,1.889,1.9287,1.9707,2.0159,2.0711,2.1041,2.1176,2.1253,2.1339,2.1454,2.1559,2.1505,2.1353,2.1126,2.0791,2.0357,2.0141,1.9883,1.9582,1.9046,1.8775,1.8728,1.8479,1.8347,1.8434,1.8743,1.8947,1.8995,1.9348,1.9659,1.9829,1.9991,2.0149,2.0344,2.0635,2.0847,2.0907,2.1266,2.1409,2.1304,2.1217,2.1455,2.2078,2.2222,2.2497,2.318,2.3635,2.3859,2.3888,2.3935,2.3968,2.4114,2.4164,2.4315,2.4602,2.479,2.5199,2.5804,2.6306,2.6616,2.6915,2.7183,2.7354,2.7224,2.727,2.7421,2.7441,2.7493,2.7638,2.7748,2.7768,2.8359,2.8732,2.8673,2.885,2.9367,3.0241,3.0696,3.1539,3.2533,3.2636,3.2988,3.3014,3.3156,1.3599,1.3521,1.3649,1.3857,1.4198,1.4425,1.4737,1.5108,1.5333,1.544,1.538,1.5214,1.5243,1.5531,1.5882,1.6405,1.7231,1.8118,1.8712,1.8906,1.8496,1.8195,1.8014,1.7893,1.8026,1.8416,1.8576,1.8667,1.8655,1.8587,1.8758,1.9184,1.9459,1.9976,2.0653,2.1099,2.1397,2.1559,2.1578,2.1674,2.1788,2.1788,2.1788,2.175,2.154,2.1265,2.0998,2.081,2.056,2.0224,1.9709,1.9425,1.9394,1.9195,1.9034,1.9081,1.9393,1.9601,1.9621,2.002,2.0324,2.0478,2.0568,2.0653,2.0837,2.1147,2.1311,2.1433,2.1684,2.1959,2.1897,2.1799,2.2014,2.2644,2.2853,2.3143,2.3651,2.4068,2.4232,2.4252,2.4371,2.4429,2.4432,2.4595,2.4843,2.5123,2.5279,2.5769,2.6309,2.6654,2.6855,2.7221,2.7357,2.7522,2.7585,2.7681,2.7676,2.7708,2.7736,2.7901,2.8022,2.8042,2.8211,2.8498,2.8717,2.8863,2.9419,3.0349,3.1127,3.1882,3.2028,3.206,3.2409,3.2758,3.2941,1.4252,1.4134,1.451,1.4504,1.4441,1.4629,1.4727,1.4816,1.5046,1.5189,1.5209,1.5282,1.5384,1.5547,1.6072,1.6404,1.6687,1.7753,1.8272,1.8276,1.8215,1.7893,1.746,1.8075,1.8436,1.8616,1.9054,1.8805,1.817,1.8615,1.9064,1.9573,1.9937,2.0469,2.1425,2.1445,2.1598,2.1731,2.1769,2.1788,2.1788,2.1788,2.1788,2.1788,2.175,2.174,2.1728,2.1217,2.0945,2.0827,2.0291,1.9929,1.9915,1.9999,2.0132,2.0089,2.0285,2.0377,2.0377,2.0467,2.0736,2.0994,2.1095,2.1251,2.1569,2.1723,2.1773,2.1783,2.1842,2.1921,2.212,2.2266,2.2479,2.2805,2.3127,2.3465,2.3796,2.4382,2.4756,2.472,2.4986,2.5188,2.5112,2.5245,2.5543,2.5727,2.6045,2.6344,2.6574,2.6887,2.7232,2.7409,2.7502,2.7563,2.7829,2.8042,2.8002,2.7962,2.8022,2.8102,2.8231,2.8311,2.8637,2.8934,2.9134,2.9312,2.9488,3.0305,3.0629,3.1181,3.1286,3.1699,3.2114,3.2533,3.2742,1.4237,1.4314,1.444,1.4545,1.4629,1.4873,1.4957,1.4999,1.5194,1.5305,1.5319,1.5389,1.541,1.5555,1.6092,1.6394,1.6468,1.7408,1.7813,1.7642,1.7367,1.7131,1.7049,1.7347,1.7764,1.8227,1.8676,1.8691,1.8353,1.8443,1.8804,1.935,1.97,2.0255,2.1098,2.1473,2.175,2.1788,2.1788,2.1788,2.1788,2.1788,2.1788,2.1788,2.1788,2.1788,2.1778,2.1616,2.1516,2.1485,2.1026,2.058,2.0334,2.0306,2.0334,2.0372,2.0687,2.0878,2.0948,2.1186,2.1375,2.154,2.1561,2.1642,2.1795,2.194,2.2016,2.2046,2.212,2.2289,2.2496,2.2703,2.2907,2.2926,2.3193,2.3657,2.4193,2.4783,2.5195,2.5359,2.5497,2.5535,2.5505,2.5704,2.5911,2.6206,2.6424,2.6585,2.6921,2.7082,2.7269,2.7441,2.7502,2.7664,2.7978,2.8131,2.805,2.8111,2.8211,2.8251,2.8391,2.8677,2.902,2.9315,2.9517,2.975,2.9923,3.0271,3.0656,3.1091,3.1617,3.193,3.2125,3.2361,3.261,1.4643,1.4783,1.4783,1.4845,1.4971,1.5152,1.5215,1.5236,1.5347,1.541,1.541,1.541,1.541,1.5493,1.5852,1.6064,1.6188,1.6735,1.6939,1.6968,1.6947,1.6825,1.6886,1.7286,1.7561,1.7885,1.8256,1.8253,1.7951,1.8224,1.8696,1.9342,1.9785,2.0411,2.1175,2.1587,2.1788,2.1788,2.1788,2.1788,2.1788,2.1788,2.1788,2.1788,2.1788,2.1788,2.1788,2.1788,2.1788,2.1747,2.1507,2.1209,2.094,2.093,2.092,2.0971,2.1168,2.1354,2.1385,2.1611,2.1788,2.1788,2.1788,2.1845,2.1921,2.2044,2.2191,2.2579,2.2755,2.298,2.3408,2.3661,2.3783,2.3889,2.4047,2.4385,2.4995,2.5342,2.5519,2.5688,2.5876,2.5968,2.6022,2.6221,2.635,2.6711,2.6769,2.6795,2.7139,2.7258,2.7412,2.7554,2.7687,2.7909,2.8219,2.8219,2.8079,2.8219,2.8399,2.8419,2.8478,2.8902,2.9263,2.9573,2.9823,3.0112,3.0347,3.0779,3.1207,3.163,3.1797,3.1779,3.1842,3.227,3.2559,1.5368,1.5389,1.5368,1.5347,1.5368,1.5389,1.5389,1.5389,1.5389,1.541,1.541,1.541,1.541,1.541,1.5493,1.5603,1.5699,1.5886,1.6113,1.6381,1.671,1.7009,1.7164,1.7631,1.7792,1.7781,1.787,1.7676,1.7322,1.8043,1.8825,1.9559,2.0235,2.0992,2.1568,2.1788,2.1788,2.1788,2.1788,2.1788,2.1788,2.1788,2.1788,2.1788,2.1788,2.1788,2.1788,2.1788,2.1788,2.1797,2.1747,2.1695,2.1747,2.1797,2.1685,2.1654,2.1776,2.1747,2.1768,2.1757,2.1788,2.1788,2.1826,2.1934,2.2138,2.2351,2.273,2.3412,2.3592,2.3919,2.4578,2.4851,2.506,2.5367,2.525,2.554,2.6224,2.5991,2.5868,2.588,2.6194,2.6528,2.6539,2.6864,2.7038,2.713,2.713,2.7153,2.7205,2.7362,2.7574,2.7696,2.7748,2.799,2.8251,2.8259,2.8159,2.8399,2.8642,2.8826,2.8842,2.9234,2.9766,3.0041,3.032,3.0568,3.0816,3.1269,3.1415,3.1485,3.1523,3.1422,3.1727,3.2261,3.2776,1.4999,1.5173,1.5173,1.5257,1.5389,1.541,1.541,1.541,1.541,1.541,1.541,1.541,1.541,1.541,1.541,1.5499,1.572,1.5914,1.6121,1.634,1.6628,1.709,1.7335,1.7233,1.7355,1.7598,1.7456,1.7253,1.72,1.8144,1.8955,1.9619,2.043,2.1136,2.1712,2.1788,2.1788,2.1788,2.1788,2.1788,2.1788,2.1788,2.1788,2.1788,2.1788,2.1788,2.1788,2.1788,2.1788,2.1788,2.1788,2.1788,2.1819,2.1838,2.1849,2.1849,2.1818,2.1807,2.1807,2.1828,2.1818,2.1807,2.2024,2.2171,2.2604,2.3067,2.3592,2.4165,2.4492,2.482,2.5169,2.5323,2.5595,2.6034,2.5916,2.5787,2.5983,2.6171,2.6286,2.6344,2.6734,2.6978,2.705,2.713,2.7236,2.7236,2.7201,2.719,2.724,2.7412,2.7635,2.7655,2.7736,2.799,2.8159,2.8199,2.8303,2.8555,2.8939,2.9398,2.9486,2.972,3.0351,3.0914,3.1195,3.1441,3.1474,3.1678,3.1587,3.1662,3.1788,3.1989,3.2152,3.2575,3.311,1.5082,1.5215,1.5236,1.5285,1.541,1.541,1.541,1.541,1.541,1.541,1.541,1.541,1.541,1.541,1.5478,1.5658,1.5873,1.6113,1.634,1.6517,1.6648,1.6914,1.7159,1.7078,1.72,1.7212,1.7057,1.7172,1.757,1.8387,1.9204,2.0021,2.076,2.1377,2.175,2.1788,2.1788,2.1788,2.1788,2.1788,2.1788,2.1788,2.1788,2.1788,2.1799,2.1869,2.2056,2.2088,2.2025,2.1911,2.1954,2.2097,2.2116,2.2194,2.2222,2.2222,2.2123,2.2044,2.2096,2.2211,2.2337,2.2408,2.2608,2.3027,2.3456,2.3911,2.4322,2.5138,2.5433,2.5735,2.6064,2.6169,2.6365,2.6651,2.6499,2.6339,2.6339,2.6634,2.676,2.6909,2.7208,2.7552,2.7552,2.7509,2.752,2.7506,2.7325,2.7247,2.7231,2.7464,2.7655,2.7696,2.7849,2.8143,2.8359,2.8451,2.8944,2.9197,2.9711,3.0125,3.0341,3.0478,3.0843,3.1449,3.1913,3.219,3.2089,3.2127,3.2353,3.2441,3.2516,3.2541,3.27,3.2713,3.3276,1.541,1.541,1.541,1.541,1.541,1.541,1.541,1.541,1.541,1.541,1.541,1.541,1.5431,1.5444,1.5616,1.5844,1.6128,1.6291,1.6476,1.6628,1.6697,1.6782,1.6944,1.7225,1.7139,1.6853,1.671,1.7123,1.7764,1.8579,1.9471,2.0265,2.105,2.1568,2.1769,2.1788,2.1788,2.1788,2.1788,2.1788,2.1819,2.1881,2.1954,2.1983,2.2078,2.2252,2.249,2.2553,2.2408,2.1964,2.2356,2.2553,2.2583,2.2749,2.2744,2.272,2.2513,2.2427,2.2535,2.2857,2.317,2.3232,2.3589,2.4098,2.4447,2.4697,2.5174,2.6065,2.6271,2.6534,2.6877,2.7121,2.7156,2.7233,2.7256,2.7279,2.7337,2.7314,2.7291,2.7314,2.7759,2.8021,2.801,2.7977,2.7964,2.7463,2.7337,2.7297,2.7301,2.7505,2.7687,2.7829,2.8042,2.8315,2.8555,2.8723,2.9456,3.0033,3.0676,3.1162,3.1414,3.1517,3.1521,3.1846,3.234,3.2528,3.2441,3.2638,3.2901,3.2964,3.2839,3.2939,3.3065,3.2977,3.3295,1.541,1.541,1.541,1.541,1.541,1.541,1.541,1.541,1.541,1.541,1.541,1.541,1.5486,1.5637,1.5713,1.592,1.633,1.6441,1.6497,1.6669,1.6689,1.6892,1.7053,1.7169,1.6906,1.6757,1.6705,1.6971,1.7575,1.872,1.9412,1.9952,2.1147,2.175,2.1769,2.183,2.1788,2.1799,2.1838,2.1871,2.1983,2.2201,2.2346,2.2377,2.2656,2.2914,2.2998,2.3059,2.3007,2.2966,2.3007,2.3091,2.3018,2.2818,2.2801,2.2877,2.2831,2.2812,2.3002,2.3419,2.3766,2.4016,2.4295,2.4596,2.5242,2.5614,2.605,2.6658,2.6876,2.7012,2.7213,2.7201,2.744,2.7702,2.7828,2.7954,2.8207,2.8035,2.7839,2.792,2.823,2.8402,2.8079,2.8046,2.7874,2.7486,2.7334,2.7304,2.7403,2.7554,2.7748,2.7941,2.8317,2.8618,2.9097,2.946,3.0266,3.0857,3.1493,3.1951,3.2219,3.2311,3.221,3.2424,3.2839,3.2864,3.2751,3.2839,3.304,3.309,3.3102,3.3102,3.3102,3.3102,3.3102,1.541,1.541,1.541,1.541,1.541,1.541,1.541,1.541,1.541,1.541,1.5431,1.5486,1.5596,1.5713,1.5927,1.6257,1.6638,1.6954,1.7117,1.7239,1.7352,1.7541,1.768,1.7626,1.7526,1.742,1.7407,1.7707,1.849,1.9205,2.0006,2.0436,2.1402,2.1741,2.185,2.2005,2.2139,2.2211,2.2366,2.2459,2.2522,2.2677,2.2822,2.2842,2.3101,2.3287,2.3505,2.3525,2.3629,2.3753,2.3805,2.3712,2.3587,2.349,2.3495,2.3564,2.36,2.3683,2.3935,2.4317,2.471,2.4932,2.5249,2.5676,2.6061,2.6413,2.6658,2.6955,2.7129,2.7268,2.7541,2.7598,2.7839,2.8184,2.8343,2.8436,2.8586,2.8459,2.8322,2.8413,2.8779,2.8733,2.8561,2.8264,2.8023,2.7748,2.7302,2.726,2.7473,2.7635,2.7849,2.811,2.8537,2.8995,2.9569,3.0266,3.117,3.1734,3.2176,3.2524,3.2754,3.2776,3.2738,3.2927,3.3052,3.3065,3.2989,3.3102,3.3102,3.3102,3.3102,3.3102,3.3102,3.3102,3.3102,1.5483,1.5475,1.5432,1.541,1.541,1.541,1.541,1.541,1.541,1.5474,1.5566,1.5711,1.5919,1.6094,1.6416,1.6752,1.7121,1.7478,1.7673,1.7789,1.7948,1.8154,1.8284,1.8401,1.8485,1.8412,1.8219,1.8708,1.949,2.017,2.0642,2.1411,2.1872,2.2141,2.218,2.2377,2.2604,2.2646,2.2904,2.3049,2.3122,2.3205,2.3318,2.3474,2.3505,2.367,2.3919,2.4002,2.4115,2.4466,2.4507,2.4333,2.4231,2.4241,2.4561,2.4529,2.4519,2.4635,2.4889,2.532,2.5711,2.5977,2.632,2.6659,2.6857,2.6885,2.699,2.714,2.7293,2.7552,2.7941,2.8079,2.8322,2.8654,2.8791,2.8735,2.8792,2.8781,2.8677,2.8884,2.9068,2.9056,2.8758,2.8448,2.8218,2.7975,2.7529,2.7324,2.7548,2.7743,2.7968,2.8324,2.8777,2.952,3.016,3.0987,3.1921,3.2243,3.2712,3.288,3.3077,3.3014,3.2952,3.3014,3.309,3.3102,3.3102,3.3102,3.3102,3.3102,3.3102,3.3102,3.3102,3.3102,3.3102,1.5819,1.579,1.5527,1.5417,1.5417,1.5417,1.5446,1.541,1.5482,1.5718,1.6123,1.6209,1.6609,1.7006,1.7237,1.7435,1.7634,1.7878,1.8019,1.8158,1.8335,1.8491,1.8866,1.898,1.9165,1.9298,1.901,1.9105,1.9898,2.0432,2.1204,2.2006,2.2614,2.2873,2.2863,2.3049,2.309,2.3091,2.3246,2.3329,2.3391,2.3619,2.3898,2.4115,2.4136,2.4229,2.4301,2.4394,2.4425,2.4518,2.4507,2.4595,2.4661,2.4493,2.4646,2.4973,2.5142,2.5297,2.5646,2.6104,2.6464,2.6687,2.6805,2.6933,2.7088,2.7138,2.7149,2.7261,2.7532,2.7862,2.7987,2.832,2.8814,2.9079,2.9033,2.8884,2.9102,2.8987,2.8861,2.9091,2.9274,2.9309,2.8884,2.8528,2.8264,2.8021,2.7718,2.7652,2.7883,2.7996,2.8133,2.8558,2.9024,2.9899,3.0758,3.1696,3.2564,3.2587,3.2857,3.2977,3.309,3.3102,3.3102,3.3102,3.3102,3.3102,3.3102,3.3102,3.3102,3.3102,3.3102,3.3102,3.3102,3.3102,3.3102,1.6155,1.6162,1.5994,1.5913,1.5913,1.5913,1.5913,1.5935,1.6071,1.6289,1.6574,1.6815,1.71,1.745,1.7604,1.7801,1.8063,1.8412,1.8602,1.8753,1.897,1.9176,1.9493,1.9591,1.9805,1.9938,1.9675,1.982,2.063,2.108,2.1748,2.2401,2.2992,2.3194,2.3256,2.3432,2.3536,2.3577,2.3743,2.3846,2.3867,2.4115,2.4332,2.4425,2.4507,2.4507,2.4507,2.4507,2.4497,2.454,2.4615,2.4882,2.5052,2.5209,2.5214,2.5535,2.5771,2.6028,2.6305,2.6666,2.6828,2.7003,2.7035,2.7088,2.717,2.719,2.7213,2.7279,2.7371,2.7816,2.832,2.8563,2.893,2.932,2.9228,2.9114,2.9045,2.885,2.8919,2.9056,2.8999,2.893,2.8838,2.8517,2.8287,2.8033,2.7831,2.7964,2.8201,2.8327,2.8456,2.9253,2.9849,3.0733,3.1519,3.22,3.2831,3.2896,3.2961,3.3081,3.3102,3.3102,3.3102,3.3102,3.3102,3.3102,3.3102,3.3102,3.3102,3.3102,3.3102,3.3102,3.3102,3.3102,3.3102,1.6492,1.6484,1.6418,1.6389,1.6389,1.6389,1.6374,1.6455,1.6668,1.6846,1.7017,1.7378,1.7659,1.7803,1.7953,1.8152,1.8461,1.8952,1.9146,1.9306,1.9602,1.988,2.0033,2.0155,2.026,2.019,2.0209,2.0758,2.1446,2.1739,2.2317,2.3047,2.3402,2.3463,2.3608,2.3877,2.3981,2.4126,2.4301,2.4497,2.4507,2.4507,2.4507,2.4507,2.4507,2.4507,2.4507,2.4507,2.4507,2.4604,2.4775,2.5115,2.5464,2.5811,2.6042,2.6146,2.6479,2.6727,2.6912,2.6962,2.7047,2.717,2.719,2.719,2.7247,2.7314,2.7348,2.7247,2.7704,2.7897,2.8402,2.8735,2.9056,2.9286,2.9366,2.9228,2.8976,2.8781,2.862,2.8666,2.8609,2.8643,2.8677,2.8456,2.8182,2.8253,2.805,2.8297,2.8527,2.8707,2.9046,3.002,3.0865,3.1727,3.2327,3.2585,3.2982,3.3016,3.3038,3.3102,3.3102,3.3102,3.3102,3.3102,3.3102,3.3102,3.3102,3.3102,3.3102,3.3102,3.3102,3.3102,3.3102,3.3102,3.3102,1.6844,1.6815,1.6514,1.6389,1.6411,1.6426,1.6433,1.6492,1.675,1.7085,1.7529,1.7823,1.8211,1.8513,1.8614,1.87,1.8848,1.9078,1.9379,1.9548,1.9814,2.0042,2.0224,2.0269,2.0292,2.0329,2.0351,2.1087,2.1889,2.2221,2.3008,2.3927,2.4088,2.4322,2.4187,2.4153,2.4425,2.4414,2.4466,2.4507,2.4507,2.4507,2.4507,2.4507,2.4507,2.4507,2.4507,2.4507,2.4518,2.4583,2.4946,2.5264,2.5559,2.6092,2.6498,2.6695,2.685,2.6953,2.7097,2.7129,2.7149,2.719,2.719,2.719,2.7279,2.7497,2.7575,2.7259,2.8186,2.8574,2.8377,2.885,2.9274,2.9274,2.9102,2.916,2.9079,2.8712,2.8563,2.854,2.8574,2.8654,2.87,2.8399,2.813,2.8235,2.8382,2.8656,2.8994,2.9299,2.9866,3.09,3.1526,3.2354,3.266,3.2991,3.3059,3.3102,3.3102,3.3102,3.3102,3.3102,3.3102,3.3102,3.3102,3.3102,3.3102,3.3102,3.3102,3.3102,3.3102,3.3102,3.3102,3.3102,3.3102,1.7121,1.7113,1.6967,1.6908,1.6916,1.6916,1.7007,1.7174,1.7432,1.7758,1.811,1.8362,1.8654,1.8973,1.9027,1.9127,1.9281,1.9479,1.9631,1.9777,1.9996,2.0178,2.0269,2.0292,2.0292,2.0397,2.0772,2.1414,2.2161,2.2536,2.3105,2.4239,2.4153,2.4112,2.4325,2.411,2.4207,2.4358,2.4507,2.4507,2.4507,2.4507,2.4507,2.4507,2.4507,2.4529,2.4518,2.4507,2.4604,2.4743,2.5126,2.5559,2.5925,2.6394,2.6818,2.7035,2.7056,2.7108,2.719,2.719,2.719,2.719,2.719,2.719,2.7268,2.7428,2.7564,2.7236,2.7761,2.8046,2.8079,2.84,2.8712,2.885,2.8907,2.901,2.9056,2.8769,2.854,2.854,2.8597,2.8804,2.9021,2.9018,2.8958,2.917,2.9306,2.9482,2.9936,3.0405,3.1062,3.189,3.237,3.2834,3.2923,3.3059,3.3081,3.3102,3.3102,3.3102,3.3102,3.3102,3.3102,3.3102,3.3102,3.3102,3.3102,3.3102,3.3102,3.3102,3.3102,3.3102,3.3102,3.3102,3.3102,1.7309,1.7309,1.7309,1.7309,1.7309,1.7309,1.7442,1.7714,1.794,1.8241,1.852,1.875,1.8996,1.9188,1.9265,1.9396,1.9587,1.9799,1.9868,1.9996,2.0155,2.0269,2.0292,2.0292,2.0292,2.0314,2.0997,2.157,2.2037,2.258,2.3299,2.4228,2.3807,2.3807,2.3959,2.3872,2.3851,2.4454,2.4507,2.4507,2.4507,2.4507,2.4507,2.4518,2.454,2.4583,2.4625,2.4679,2.4828,2.4988,2.5443,2.5863,2.6175,2.6654,2.6974,2.7149,2.717,2.717,2.719,2.719,2.719,2.7245,2.7394,2.7532,2.7649,2.7578,2.7474,2.7486,2.7715,2.7851,2.7793,2.8,2.8459,2.8758,2.8873,2.8941,2.901,2.8964,2.9033,2.9217,2.9286,2.9263,2.9469,2.9696,2.9867,3.0094,3.0247,3.0311,3.0711,3.1198,3.1755,3.2411,3.2602,3.293,3.3038,3.3102,3.3102,3.3102,3.3102,3.3102,3.3102,3.3102,3.3102,3.3102,3.3102,3.3102,3.3102,3.3102,3.3102,3.3102,3.3102,3.3102,3.3102,3.3102,3.3102,1.7309,1.7309,1.7309,1.7309,1.7309,1.7309,1.7457,1.7745,1.8001,1.8288,1.8612,1.8951,1.9165,1.9288,1.9479,1.9587,1.9633,1.9799,1.9914,2.0027,2.0155,2.0269,2.0292,2.0292,2.0314,2.0428,2.1154,2.1526,2.1847,2.2994,2.3363,2.3525,2.3385,2.346,2.3634,2.3721,2.3916,2.4411,2.4507,2.4507,2.4507,2.4497,2.4518,2.4572,2.4722,2.4861,2.4871,2.4988,2.5115,2.52,2.5737,2.6092,2.6342,2.6818,2.7138,2.717,2.719,2.719,2.719,2.719,2.7213,2.7348,2.761,2.7989,2.8266,2.8494,2.8367,2.801,2.808,2.7968,2.7922,2.7979,2.8413,2.885,2.9137,2.9424,2.9504,2.9504,2.9607,2.9883,2.9917,2.9757,2.9835,3.004,3.005,3.0222,3.0522,3.0619,3.118,3.1662,3.213,3.2578,3.2664,3.2853,3.3059,3.3102,3.3102,3.3102,3.3102,3.3102,3.3102,3.3102,3.3102,3.3102,3.3102,3.3102,3.3102,3.3102,3.3102,3.3102,3.3102,3.3102,3.3102,3.3102,3.3102,1.7309,1.7309,1.7309,1.7309,1.7309,1.7473,1.7698,1.7955,1.8234,1.8581,1.892,1.9127,1.9379,1.9585,1.9708,1.9899,2.0005,2.011,2.0155,2.0178,2.0246,2.0292,2.0292,2.0292,2.0314,2.0532,2.1324,2.1717,2.1624,2.3113,2.3212,2.3147,2.2928,2.3178,2.3385,2.3851,2.4239,2.4368,2.4507,2.4507,2.4507,2.4518,2.4572,2.4733,2.4807,2.4967,2.5052,2.5137,2.5285,2.5517,2.5957,2.6228,2.6456,2.6953,2.717,2.719,2.719,2.719,2.719,2.7213,2.7316,2.7679,2.7897,2.8195,2.8677,2.8689,2.8632,2.8471,2.832,2.8057,2.8379,2.8253,2.8412,2.8998,2.9447,2.978,2.9906,2.9871,2.9906,3.0067,3.0101,3.0021,3.018,3.0362,3.0315,3.0302,3.0623,3.1009,3.1593,3.2065,3.2463,3.2723,3.281,3.2896,3.3081,3.3102,3.3102,3.3102,3.3102,3.3102,3.3102,3.3102,3.3102,3.3102,3.3102,3.3102,3.3102,3.3102,3.3102,3.3102,3.3102,3.3102,3.3102,3.3102,3.3102,1.7309,1.7309,1.738,1.7426,1.745,1.7605,1.7908,1.821,1.8404,1.8743,1.9211,1.9333,1.9585,1.986,2.0019,2.0087,2.0224,2.0269,2.0292,2.0292,2.0292,2.0292,2.0292,2.0292,2.0314,2.0623,2.1324,2.1748,2.1512,2.3321,2.3125,2.2589,2.2558,2.3103,2.3484,2.4131,2.4507,2.4507,2.4507,2.4507,2.4507,2.4604,2.469,2.4903,2.5041,2.5211,2.5338,2.5422,2.5528,2.5759,2.6093,2.6394,2.6674,2.6933,2.7149,2.719,2.719,2.719,2.719,2.7224,2.752,2.8069,2.8021,2.8366,2.87,2.8712,2.8413,2.8632,2.8331,2.8216,2.8666,2.8654,2.8791,2.9377,2.9688,2.9998,3.0089,3.0101,3.0124,3.0193,3.017,3.017,3.0317,3.051,3.079,3.0831,3.1185,3.1604,3.2079,3.2451,3.2673,3.2874,3.2961,3.3038,3.3102,3.3102,3.3102,3.3102,3.3102,3.3102,3.3102,3.3102,3.3102,3.3102,3.3102,3.3102,3.3102,3.3102,3.3102,3.3102,3.3102,3.3102,3.3102,3.3102,3.3102,1.7309,1.7326,1.7581,1.7675,1.7721,1.7721,1.8001,1.8427,1.8551,1.8812,1.9279,1.9654,1.9837,1.9973,2.0155,2.0246,2.0269,2.0292,2.0292,2.0292,2.0292,2.0292,2.0292,2.0292,2.0314,2.0496,2.1109,2.1526,2.1324,2.2938,2.2696,2.2444,2.284,2.345,2.3569,2.4175,2.4497,2.4507,2.4507,2.4507,2.4604,2.4764,2.4861,2.5084,2.5306,2.5496,2.558,2.5728,2.5833,2.5937,2.6354,2.6592,2.6674,2.6994,2.7179,2.719,2.719,2.719,2.719,2.719,2.7646,2.8276,2.8147,2.8435,2.8964,2.8804,2.8515,2.8976,2.8528,2.8446,2.8756,2.9102,2.9332,2.9619,2.9952,3.0089,3.0181,3.0216,3.0216,3.0216,3.0216,3.0238,3.0374,3.0612,3.1105,3.1415,3.1791,3.2154,3.2484,3.268,3.281,3.2896,3.2982,3.3081,3.3102,3.3102,3.3102,3.3102,3.3102,3.3102,3.3102,3.3102,3.3102,3.3102,3.3102,3.3102,3.3102,3.3102,3.3102,3.3102,3.3102,3.3102,3.3102,3.3102,3.3102,1.7309,1.7309,1.738,1.7753,1.8172,1.8241,1.8334,1.8527,1.8835,1.9219,1.96,1.986,2.0027,2.0155,2.0224,2.0292,2.0292,2.0292,2.0292,2.0292,2.0292,2.0292,2.0292,2.0292,2.0292,2.0518,2.0983,2.1087,2.0659,2.2467,2.284,2.2633,2.3266,2.3829,2.3797,2.4131,2.4507,2.4507,2.4518,2.4583,2.4764,2.4882,2.5052,2.5317,2.5538,2.5675,2.577,2.5969,2.6053,2.6125,2.652,2.6768,2.6809,2.7076,2.719,2.719,2.719,2.719,2.719,2.7236,2.7509,2.7943,2.8172,2.8448,2.9217,2.9228,2.9297,2.9401,2.9091,2.9171,2.9676,2.9481,2.9596,2.9895,3.0147,3.017,3.0216,3.0216,3.0216,3.0216,3.0216,3.0261,3.0374,3.0847,3.1339,3.1715,3.2045,3.221,3.2519,3.2636,3.2766,3.2831,3.2918,3.3038,3.3102,3.3102,3.3102,3.3102,3.3102,3.3102,3.3102,3.3102,3.3102,3.3102,3.3102,3.3102,3.3102,3.3102,3.3102,3.3102,3.3102,3.3102,3.3102,3.3102,3.3102,1.738,1.7356,1.7683,1.8071,1.8473,1.8481,1.8635,1.8889,1.9273,1.9631,1.9868,1.9973,2.011,2.0246,2.0292,2.0292,2.0292,2.0292,2.0292,2.0292,2.0292,2.0292,2.0292,2.0292,2.0292,2.0473,2.0736,2.0885,2.1235,2.2435,2.305,2.3365,2.3797,2.3949,2.3992,2.4325,2.4507,2.4507,2.4518,2.4625,2.4828,2.5009,2.52,2.5475,2.5665,2.5749,2.5906,2.6053,2.6199,2.6345,2.6582,2.6871,2.6953,2.7067,2.719,2.719,2.719,2.719,2.719,2.719,2.7486,2.7943,2.7977,2.8482,2.9171,2.9183,2.9424,2.9573,2.963,2.9837,2.9975,2.9734,2.9883,3.0182,3.0193,3.0216,3.0216,3.0216,3.0216,3.0216,3.0261,3.0306,3.0555,3.1094,3.1627,3.1957,3.2286,3.2419,3.2562,3.2692,3.281,3.2874,3.2952,3.3059,3.3102,3.3102,3.3102,3.3102,3.3102,3.3102,3.3102,3.3102,3.3102,3.3102,3.3102,3.3102,3.3102,3.3102,3.3102,3.3102,3.3102,3.3102,3.3102,3.3102,3.3102,1.7551,1.7496,1.8388,1.8658,1.8542,1.8658,1.9012,1.9579,1.9799,1.9882,1.9928,2.0201,2.0269,2.0292,2.0292,2.0292,2.0292,2.0292,2.0292,2.0292,2.0292,2.0292,2.0292,2.0292,2.0292,2.0314,2.0578,2.1235,2.2151,2.2567,2.3212,2.3917,2.3841,2.4013,2.4261,2.4433,2.454,2.4583,2.454,2.4754,2.5062,2.5179,2.5432,2.5728,2.5937,2.5979,2.6095,2.622,2.6282,2.6448,2.6676,2.683,2.6974,2.7088,2.7149,2.719,2.719,2.7201,2.7314,2.7325,2.7681,2.8149,2.8115,2.8643,2.9056,2.924,2.9412,2.9619,2.9722,2.9917,3.0032,3.0089,3.0135,3.0216,3.0216,3.0216,3.0216,3.0216,3.0238,3.0261,3.0341,3.051,3.1026,3.1516,3.1869,3.221,3.2516,3.2766,3.2887,3.2909,3.2995,3.3016,3.3059,3.3081,3.3102,3.3102,3.3102,3.3102,3.3102,3.3102,3.3102,3.3102,3.3102,3.3102,3.3102,3.3102,3.3102,3.3102,3.3102,3.3102,3.3102,3.3102,3.3102,3.3102,3.3102,1.7651,1.7667,1.8311,1.8727,1.9073,1.9554,1.9814,1.9822,1.9882,2.0005,2.0178,2.0269,2.0292,2.0292,2.0292,2.0292,2.0292,2.0292,2.0292,2.0292,2.0292,2.0292,2.0292,2.0292,2.0292,2.0496,2.0803,2.1266,2.1771,2.2268,2.3321,2.4207,2.4002,2.4143,2.4325,2.4507,2.4625,2.4679,2.4604,2.4924,2.5285,2.5443,2.5738,2.6052,2.6271,2.6324,2.6386,2.6541,2.6623,2.6727,2.6964,2.7108,2.7129,2.717,2.719,2.719,2.7224,2.7305,2.761,2.7405,2.7681,2.8551,2.8643,2.8838,2.9228,2.9447,2.9493,2.9734,2.9894,3.0078,3.0158,3.0193,3.0216,3.0216,3.0216,3.0216,3.0216,3.0261,3.0306,3.0487,3.0567,3.087,3.1383,3.1737,3.2079,3.2463,3.2757,3.2995,3.3102,3.3102,3.3102,3.3102,3.3102,3.3102,3.3102,3.3102,3.3102,3.3102,3.3102,3.3102,3.3102,3.3102,3.3102,3.3102,3.3102,3.3102,3.3102,3.3102,3.3102,3.3102,3.3102,3.3102,3.3102,3.3102,3.3102,1.7791,1.7815,1.8596,1.9196,1.9669,2.011,2.0201,2.0087,2.0042,2.0147,2.0292,2.0292,2.0292,2.0292,2.0292,2.0292,2.0292,2.0292,2.0292,2.0292,2.0292,2.0292,2.0292,2.0292,2.0292,2.0555,2.0997,2.1526,2.1993,2.2916,2.4002,2.439,2.4153,2.4261,2.4433,2.4518,2.4658,2.4764,2.4871,2.5105,2.538,2.5654,2.6,2.6292,2.6499,2.6623,2.6644,2.6809,2.6891,2.6933,2.7108,2.719,2.719,2.719,2.719,2.719,2.7201,2.7474,2.7768,2.7451,2.8163,2.8884,2.9056,2.9194,2.9515,2.9825,2.9918,3.0067,3.0158,3.0216,3.0216,3.0216,3.0216,3.0216,3.0216,3.0216,3.0261,3.0329,3.0487,3.0724,3.0971,3.1239,3.1582,3.1935,3.2298,3.268,3.2909,3.3016,3.3102,3.3102,3.3102,3.3102,3.3102,3.3102,3.3102,3.3102,3.3102,3.3102,3.3102,3.3102,3.3102,3.3102,3.3102,3.3102,3.3102,3.3102,3.3102,3.3102,3.3102,3.3102,3.3102,3.3102,3.3102,3.3102,3.3102,1.7994,1.7908,1.9089,1.9831,2.0269,2.0292,2.0292,2.0292,2.0269,2.0292,2.0292,2.0292,2.0292,2.0292,2.0292,2.0292,2.0292,2.0292,2.0292,2.0292,2.0292,2.0292,2.0292,2.0292,2.0292,2.0555,2.1168,2.205,2.2765,2.3418,2.3894,2.4464,2.4218,2.4218,2.4433,2.4507,2.469,2.4988,2.5031,2.5158,2.5432,2.5717,2.5979,2.6146,2.6437,2.6685,2.6727,2.6809,2.6912,2.6994,2.7067,2.719,2.719,2.719,2.719,2.719,2.719,2.7601,2.7872,2.769,2.8333,2.8884,2.9136,2.9401,2.978,3.0044,3.0136,3.0159,3.0216,3.0216,3.0216,3.0216,3.0216,3.0216,3.0216,3.0216,3.0238,3.0431,3.0758,3.1005,3.1284,3.1572,3.1903,3.2254,3.2516,3.2896,3.3059,3.3102,3.3102,3.3102,3.3102,3.3102,3.3102,3.3102,3.3102,3.3102,3.3102,3.3102,3.3102,3.3102,3.3102,3.3102,3.3102,3.3102,3.3102,3.3102,3.3102,3.3102,3.3102,3.3102,3.3102,3.3102,3.3102,3.3102,3.3102,1.8272,1.862,1.9479,1.9996,2.0269,2.0292,2.0292,2.0292,2.0292,2.0292,2.0292,2.0292,2.0292,2.0292,2.0292,2.0292,2.0292,2.0292,2.0292,2.0292,2.0292,2.0292,2.0292,2.0292,2.0292,2.0736,2.1503,2.2655,2.3539,2.3732,2.3711,2.4272,2.4013,2.3862,2.4411,2.4454,2.4764,2.5158,2.5264,2.5443,2.5863,2.6196,2.6498,2.6715,2.7006,2.7006,2.7026,2.7067,2.7129,2.7149,2.717,2.719,2.719,2.719,2.719,2.719,2.7213,2.7658,2.8069,2.8126,2.8563,2.9309,2.9676,2.9792,2.9964,3.0135,3.0216,3.0216,3.0216,3.0216,3.0216,3.0216,3.0216,3.0216,3.0216,3.0216,3.0238,3.0601,3.0972,3.1307,3.1606,3.1893,3.2223,3.2484,3.2766,3.2939,3.3059,3.3102,3.3102,3.3102,3.3102,3.3102,3.3102,3.3102,3.3102,3.3102,3.3102,3.3102,3.3102,3.3102,3.3102,3.3102,3.3102,3.3102,3.3102,3.3102,3.3102,3.3102,3.3102,3.3102,3.3102,3.3102,3.3102,3.3102,3.3102,1.8643,1.9035,1.9631,2.0042,2.0269,2.0292,2.0292,2.0292,2.0292,2.0292,2.0292,2.0292,2.0292,2.0292,2.0292,2.0292,2.0292,2.0292,2.0292,2.0292,2.0292,2.0292,2.0292,2.0292,2.0292,2.0668,2.1806,2.2952,2.4121,2.4131,2.4035,2.4164,2.3689,2.3809,2.4358,2.4487,2.485,2.5179,2.539,2.5769,2.6238,2.6466,2.6528,2.6798,2.6994,2.7097,2.719,2.719,2.719,2.719,2.719,2.719,2.719,2.719,2.719,2.719,2.7305,2.7614,2.8241,2.8551,2.8746,2.955,2.978,2.9745,3.0078,3.0216,3.0216,3.0216,3.0216,3.0216,3.0216,3.0216,3.0216,3.0216,3.0261,3.0284,3.0476,3.0815,3.1241,3.1651,3.1893,3.2069,3.2354,3.2537,3.281,3.3016,3.3102,3.3102,3.3102,3.3102,3.3102,3.3102,3.3102,3.3102,3.3102,3.3102,3.3102,3.3102,3.3102,3.3102,3.3102,3.3102,3.3102,3.3102,3.3102,3.3102,3.3102,3.3102,3.3102,3.3102,3.3102,3.3102,3.3102,3.3102,3.3102,1.9027,1.9325,1.9768,2.0087,2.0269,2.0292,2.0292,2.0292,2.0292,2.0292,2.0317,2.036,2.0374,2.0323,2.0292,2.0292,2.0292,2.0292,2.0292,2.0292,2.0292,2.0292,2.0292,2.0292,2.051,2.1109,2.2138,2.3268,2.4433,2.4153,2.3927,2.397,2.4176,2.4455,2.424,2.4519,2.5052,2.5348,2.5622,2.601,2.629,2.6518,2.658,2.6684,2.6839,2.717,2.719,2.719,2.719,2.719,2.719,2.719,2.719,2.719,2.719,2.7201,2.7383,2.7864,2.8392,2.8551,2.9148,2.9699,2.9619,2.978,3.0135,3.0216,3.0216,3.0216,3.0216,3.0216,3.0216,3.0216,3.0216,3.0216,3.0284,3.0408,3.0713,3.1017,3.1429,3.1915,3.2135,3.23,3.2484,3.2667,3.2853,3.3038,3.3102,3.3102,3.3102,3.3102,3.3102,3.3102,3.3102,3.3102,3.3102,3.3102,3.3102,3.3102,3.3102,3.3102,3.3102,3.3102,3.3102,3.3102,3.3102,3.3102,3.3102,3.3102,3.3102,3.3102,3.3102,3.3102,3.3102,3.3102,3.3102,1.9371,1.9791,2.0096,2.0246,2.0292,2.0292,2.0292,2.0292,2.0292,2.0292,2.0394,2.0617,2.0649,2.03,2.0292,2.0292,2.0292,2.0292,2.0292,2.0292,2.0292,2.0292,2.036,2.0487,2.1064,2.1837,2.2699,2.3657,2.4368,2.4067,2.3797,2.3884,2.3897,2.4124,2.4327,2.4733,2.5316,2.5622,2.5864,2.6188,2.6654,2.688,2.7035,2.7097,2.7129,2.719,2.719,2.719,2.719,2.719,2.719,2.719,2.719,2.7201,2.7224,2.7405,2.7575,2.8115,2.8528,2.8884,2.9573,2.9986,2.9975,3.0021,3.0216,3.0216,3.0216,3.0216,3.0216,3.0216,3.0216,3.0216,3.0216,3.0216,3.0238,3.0533,3.0838,3.1117,3.1473,3.1959,3.2354,3.2484,3.2658,3.2831,3.2982,3.3102,3.3102,3.3102,3.3102,3.3102,3.3102,3.3102,3.3102,3.3102,3.3102,3.3102,3.3102,3.3102,3.3102,3.3102,3.3102,3.3102,3.3102,3.3102,3.3102,3.3102,3.3102,3.3102,3.3102,3.3102,3.3102,3.3102,3.3102,3.3102,3.3102]},{"header":{"parameterUnit":"m.s-1","parameterCategory":1,"la1":31.0,"la2":29.5877,"lo1":-88.7671,"lo2":-86.6584,"dy":0.0162,"dx":0.0185,"nx":115,"ny":88,"refTime":"2024-02-14T06:00:00:Z","depth":0,"parameterNumber":3,"parameterNumberName":"V-component_of_WINDS"},"data":[0.0,0.0,0.0,0.0,0.0,0.0,0.0,0.0,0.0,0.0,0.0,0.0,0.0,0.0,0.0,0.0,0.0,0.0,0.0,0.0,0.0,0.0,0.0,0.0,0.0,0.0,0.0,0.0,0.0,0.0,0.0,0.0,0.0,0.0,0.0,0.0,0.0,0.0,0.0,0.0,0.0,0.0,0.0,0.0,0.0,0.0,0.0,0.0,0.0,0.0,0.0,0.0,0.0,0.0,0.0,0.0,0.0,0.0,0.0,0.0,0.0,0.0,0.0,0.0,0.0,0.0,0.0,0.0,0.0,0.0,0.0,0.0,0.0,0.0,0.0,0.0,0.0,0.0,0.0,0.0,0.0,0.0,0.0,0.0,0.0,0.0,0.0,0.0,0.0,0.0,0.0,0.0,0.0,0.0,0.0,0.0,0.0,0.0,0.0,0.0,0.0,0.0,0.0,0.0,0.0,0.0,0.0,0.0,0.0,0.0,0.0,0.0,0.0,0.0,0.0,0.0,0.0,0.0,0.0,0.0,0.0,0.0,0.0,0.0,0.0,0.0,0.0,0.0,0.0,0.0,0.0,0.0,0.0,0.0,0.0,0.0,0.0,0.0,0.0,0.0,0.0,0.0,0.0,0.0,0.0,0.0,0.0,0.0,0.0,0.0,0.0,0.0,0.0,0.0,0.0,0.0,0.0,0.0,0.0,0.0,0.0,0.0,0.0,0.0,0.0,0.0,0.0,0.0,0.0,0.0,0.0,0.0,0.0,0.0,0.0,0.0,0.0,0.0,0.0,0.0,0.0,0.0,0.0,0.0,0.0,0.0,0.0,0.0,0.0,0.0,0.0,0.0,0.0,0.0,0.0,0.0,0.0,0.0,0.0,0.0,0.0,0.0,0.0,0.0,0.0,0.0,0.0,0.0,0.0,0.0,0.0,0.0,0.0,0.0,0.0,0.0,0.0,0.0,0.0,0.0,0.0,0.0,0.0,0.0,0.0,0.0,0.0,0.0,0.0,0.0,0.0,0.0,0.0,0.0,0.0,0.0,0.0,0.0,0.0,0.0,0.0,0.0,0.0,0.0,0.0,0.0,0.0,0.0,0.0,0.0,0.0,0.0,0.0,0.0,0.0,0.0,0.0,0.0,0.0,0.0,0.0,0.0,0.0,0.0,0.0,0.0,0.0,0.0,0.0,0.0,0.0,0.0,0.0,0.0,0.0,0.0,0.0,0.0,0.0,0.0,0.0,0.0,0.0,0.0,0.0,0.0,0.0,0.0,0.0,0.0,0.0,0.0,0.0,0.0,0.0,0.0,0.0,0.0,0.0,0.0,0.0,0.0,0.0,0.0,0.0,0.0,0.0,0.0,0.0,0.0,0.0,0.0,0.0,0.0,0.0,0.0,0.0,0.0,0.0,0.0,0.0,0.0,0.0,0.0,0.0,0.0,0.0,0.0,0.0,0.0,0.0,0.0,0.0,0.0,0.0,0.0,0.0,0.0,0.0,0.0,0.0,0.0,0.0,0.0,0.0,0.0,0.0,0.0,0.0,0.0,0.0,0.0,0.0,0.0,0.0,0.0,0.0,0.0,0.0,0.0,0.0,0.0,0.0,0.0,0.0,0.0,0.0,0.0,0.0,0.0,0.0,0.0,0.0,0.0,0.0,0.0,0.0,0.0,0.0,0.0,0.0,0.0,0.0,0.0,0.0,0.0,0.0,0.0,0.0,0.0,0.0,0.0,0.0,0.0,0.0,0.0,0.0,0.0,0.0,0.0,0.0,0.0,0.0,0.0,0.0,0.0,0.0,0.0,0.0,0.0,0.0,0.0,0.0,0.0,0.0,0.0,0.0,0.0,0.0,0.0,0.0,0.0,0.0,0.0,0.0,0.0,0.0,0.0,0.0,0.0,0.0,0.0,0.0,0.0,0.0,0.0,0.0,0.0,0.0,0.0,0.0,0.0,0.0,0.0,0.0,0.0,0.0,0.0,0.0,0.0,0.0,0.0,0.0,0.0,0.0,0.0,0.0,0.0,0.0,0.0,0.0,0.0,0.0,0.0,0.0,0.0,0.0,0.0,0.0,0.0,0.0,0.0,0.0,0.0,0.0,0.0,0.0,0.0,0.0,0.0,0.0,0.0,0.0,0.0,0.0,0.0,0.0,0.0,0.0,0.0,0.0,0.0,0.0,0.0,0.0,0.0,0.0,0.0,0.0,0.0,0.0,0.0,0.0,0.0,0.0,0.0,0.0,0.0,0.0,0.0,0.0,0.0,0.0,0.0,0.0,0.0,0.0,0.0,0.0,0.0,0.0,0.0,0.0,0.0,0.0,0.0,0.0,0.0,0.0,0.0,0.0,0.0,0.0,0.0,0.0,0.0,0.0,0.0,0.0,0.0,0.0,0.0,0.0,0.0,0.0,0.0,0.0,0.0,0.0,0.0,0.0,0.0,0.0,0.0,0.0,0.0,0.0,0.0,0.0,0.0,0.0,0.0,0.0,0.0,0.0,0.0,0.0,0.0,0.0,0.0,0.0,0.0,0.0,0.0,0.0,0.0,0.0,0.0,0.0,0.0,0.0,0.0,0.0,0.0,0.0,0.0,0.0,0.0,0.0,0.0,0.0,0.0,0.0,0.0,0.0,0.0,0.0,0.0,0.0,0.0,0.0,0.0,0.0,0.0,0.0,0.0,0.0,0.0,0.0,0.0,0.0,0.0,0.0,0.0,0.0,0.0,0.0,0.0,0.0,0.0,0.0,0.0,0.0,0.0,0.0,0.0,0.0,0.0,0.0,0.0,0.0,0.0,0.0,0.0,0.0,0.0,0.0,0.0,0.0,0.0,0.0,0.0,0.0,0.0,0.0,0.0,0.0,0.0,0.0,0.0,0.0,0.0,0.0,0.0,0.0,0.0,0.0,0.0,0.0,0.0,0.0,0.0,0.0,0.0,0.0,0.0,0.0,0.0,0.0,0.0,0.0,0.0,0.0,0.0,0.0,0.0,0.0,0.0,0.0,0.0,0.0,0.0,0.0,0.0,0.0,0.0,0.0,0.0,0.0,0.0,0.0,0.0,0.0,0.0,0.0,0.0,0.0,0.0,0.0,0.0,0.0,0.0,0.0,0.0,0.0,0.0,0.0,0.0,0.0,0.0,0.0,0.0,0.0,0.0,0.0,0.0,0.0,0.0,0.0,0.0,0.0,0.0,0.0,0.0,0.0,0.0,0.0,0.0,0.0,0.0,0.0,0.0,0.0,0.0,0.0,0.0,0.0,0.0,0.0,0.0,0.0,0.0,0.0,0.0,0.0,0.0,0.0,0.0,0.0,0.0,0.0,0.0,0.0,0.0,0.0,0.0,0.0,0.0,0.0,0.0,0.0,0.0,0.0,0.0,0.0,0.0,0.0,0.0,0.0,0.0,0.0,0.0,0.0,0.0,0.0,0.0,0.0,0.0,0.0,0.0,0.0,0.0,0.0,0.0,0.0,0.0,0.0,0.0,0.0,0.0,0.0,0.0,0.0,0.0,0.0,0.0,0.0,0.0,0.0,0.0,0.0,0.0,0.0,0.0,0.0,0.0,0.0,0.0,0.0,0.0,0.0,0.0,0.0,0.0,0.0,0.0,0.0,0.0,0.0,0.0,0.0,0.0,0.0,0.0,0.0,0.0,0.0,0.0,0.0,0.0,0.0,0.0,0.0,0.0,0.0,0.0,0.0,0.0,0.0,0.0,0.0,0.0,0.0,0.0,0.0,0.0,0.0,0.0,0.0,0.0,0.0,0.0,0.0,0.0,0.0,0.0,0.0,0.0,0.0,0.0,0.0,0.0,0.0,0.0,0.0,0.0,0.0,0.0,0.0,0.0,0.0,0.0,0.0,0.0,0.0,0.0,0.0,0.0,0.0,0.0,0.0,0.0,0.0,0.0,0.0,0.0,0.0,0.0,0.0,0.0,0.0,0.0,0.0,0.0,0.0,0.0,0.0,0.0,0.0,0.0,0.0,0.0,0.0,0.0,0.0,0.0,0.0,0.0,0.0,0.0,0.0,0.0,0.0,0.0,0.0,0.0,0.0,0.0,0.0,0.0,0.0,0.0,0.0,0.0,0.0,0.0,0.0,0.0,0.0,0.0,0.0,0.0,0.0,0.0,0.0,0.0,0.0,0.0,0.0,0.0,0.0,0.0,0.0,0.0,0.0,0.0,0.0,0.0,0.0,0.0,0.0,0.0,0.0,0.0,0.0,0.0,0.0,0.0,0.0,0.0,0.0,0.0,0.0,0.0,0.0,0.0,2.0251,0.0,0.0,0.0,0.0,0.0,0.0,0.0,0.0,0.0,0.0,0.0,0.0,0.0,0.0,0.0,0.0,0.0,0.0,0.0,0.0,0.0,0.0,0.0,0.0,0.0,0.0,0.0,0.0,0.0,0.0,0.0,0.0,0.0,0.0,0.0,0.0,0.0,0.0,0.0,0.0,0.0,0.0,0.0,0.0,0.0,0.0,0.0,0.0,0.0,0.0,0.0,0.0,0.0,0.0,0.0,0.0,0.0,0.0,0.0,0.0,0.0,0.0,0.0,0.0,0.0,0.0,0.0,0.0,0.0,0.0,0.0,0.0,0.0,0.0,0.0,0.0,0.0,0.0,0.0,0.0,0.0,0.0,0.0,0.0,0.0,0.0,0.0,0.0,0.0,0.0,0.0,0.0,0.0,0.0,0.0,0.0,0.0,0.0,0.0,0.0,0.0,0.0,0.0,0.0,0.0,0.0,0.0,0.0,0.0,0.0,2.0771,1.9945,2.1507,2.1632,2.0146,0.0,0.0,0.0,0.0,0.0,0.0,0.0,0.0,0.0,0.0,0.0,0.0,0.0,0.0,0.0,0.0,0.0,0.0,0.0,0.0,0.0,0.0,0.0,0.0,0.0,0.0,0.0,0.0,0.0,0.0,0.0,0.0,0.0,0.0,0.0,0.0,0.0,0.0,0.0,0.0,0.0,0.0,0.0,0.0,0.0,0.0,0.0,0.0,0.0,0.0,0.0,0.0,0.0,0.0,0.0,0.0,0.0,0.0,0.0,0.0,0.0,0.0,0.0,0.0,0.0,0.0,0.0,0.0,0.0,0.0,0.0,0.0,0.0,0.0,0.0,0.0,0.0,0.0,0.0,0.0,0.0,0.0,0.0,0.0,0.0,0.0,0.0,0.0,0.0,0.0,0.0,0.0,0.0,0.0,0.0,0.0,0.0,0.0,0.0,0.0,0.0,0.0,0.0,0.0,0.0,0.0,0.0,0.0,0.0,0.0,0.0,0.0,2.1444,2.1573,2.0438,0.0,0.0,0.0,0.0,0.0,0.0,0.0,0.0,0.0,0.0,0.0,0.0,0.0,0.0,0.0,0.0,0.0,0.0,0.0,0.0,0.0,0.0,0.0,0.0,0.0,0.0,0.0,0.0,0.0,0.0,0.0,0.0,0.0,0.0,0.0,0.0,0.0,0.0,0.0,0.0,0.0,0.0,0.0,0.0,0.0,0.0,0.0,0.0,0.0,0.0,0.0,0.0,0.0,0.0,0.0,0.0,0.0,0.0,0.0,0.0,0.0,0.0,0.0,0.0,0.0,0.0,0.0,0.0,0.0,0.0,0.0,0.0,0.0,0.0,0.0,0.0,0.0,0.0,0.0,0.0,0.0,0.0,0.0,0.0,0.0,0.0,0.0,0.0,0.0,0.0,0.0,0.0,0.0,0.0,0.0,0.0,0.0,0.0,0.0,0.0,0.0,0.0,0.0,0.0,0.0,0.0,0.0,0.0,0.0,0.0,2.0317,2.0973,2.1195,0.0,2.1143,0.0,0.0,0.0,0.0,0.0,0.0,0.0,0.0,0.0,0.0,0.0,0.0,0.0,0.0,0.0,0.0,0.0,0.0,0.0,0.0,0.0,0.0,0.0,0.0,0.0,0.0,0.0,0.0,0.0,0.0,0.0,0.0,0.0,0.0,0.0,0.0,0.0,0.0,0.0,0.0,0.0,0.0,0.0,0.0,0.0,0.0,0.0,0.0,0.0,0.0,0.0,0.0,0.0,0.0,0.0,0.0,0.0,0.0,0.0,0.0,0.0,0.0,0.0,0.0,0.0,0.0,0.0,0.0,0.0,0.0,0.0,0.0,0.0,0.0,0.0,0.0,0.0,0.0,0.0,0.0,0.0,0.0,0.0,0.0,0.0,0.0,0.0,0.0,0.0,0.0,0.0,0.0,0.0,0.0,0.0,0.0,0.0,0.0,0.0,0.0,0.0,0.0,0.0,0.0,0.0,0.0,0.0,0.0,0.0,0.0,2.0372,2.1214,2.1273,2.1072,0.0,0.0,0.0,0.0,0.0,0.0,0.0,0.0,0.0,0.0,0.0,0.0,0.0,0.0,0.0,0.0,0.0,0.0,0.0,0.0,0.0,0.0,0.0,0.0,0.0,0.0,0.0,0.0,0.0,0.0,0.0,0.0,0.0,0.0,0.0,0.0,0.0,0.0,0.0,0.0,0.0,0.0,0.0,0.0,0.0,0.0,0.0,0.0,0.0,0.0,0.0,0.0,0.0,0.0,0.0,0.0,0.0,0.0,0.0,0.0,0.0,0.0,0.0,0.0,0.0,0.0,0.0,0.0,0.0,0.0,0.0,0.0,0.0,0.0,0.0,0.0,0.0,0.0,0.0,0.0,0.0,0.0,0.0,0.0,0.0,0.0,0.0,0.0,0.0,0.0,0.0,0.0,0.0,0.0,0.0,0.0,0.0,0.0,0.0,0.0,0.0,0.0,0.0,0.0,0.0,0.0,0.0,0.0,0.0,0.0,2.0447,2.0732,2.1528,2.1219,2.084,2.0475,0.0,0.0,0.0,0.0,0.0,0.0,0.0,0.0,0.0,0.0,0.0,0.0,0.0,0.0,0.0,0.0,0.0,0.0,0.0,0.0,0.0,0.0,0.0,0.0,0.0,0.0,0.0,0.0,0.0,0.0,0.0,0.0,0.0,0.0,0.0,0.0,0.0,0.0,0.0,0.0,0.0,0.0,0.0,0.0,0.0,0.0,0.0,0.0,0.0,0.0,0.0,0.0,0.0,0.0,0.0,0.0,0.0,0.0,0.0,0.0,0.0,0.0,0.0,0.0,0.0,0.0,0.0,0.0,0.0,0.0,0.0,0.0,0.0,0.0,0.0,0.0,0.0,0.0,0.0,0.0,0.0,0.0,0.0,0.0,0.0,0.0,0.0,0.0,0.0,0.0,0.0,0.0,0.0,0.0,0.0,0.0,0.0,0.0,0.0,0.0,0.0,0.0,0.0,0.0,0.0,0.0,0.0,0.0,2.2161,2.1522,2.1534,2.2264,2.0866,2.0467,0.0,0.0,0.0,0.0,0.0,0.0,0.0,0.0,0.0,0.0,0.0,0.0,0.0,0.0,0.0,0.0,0.0,0.0,0.0,0.0,0.0,0.0,0.0,0.0,0.0,0.0,0.0,0.0,0.0,0.0,0.0,0.0,0.0,0.0,0.0,0.0,0.0,0.0,0.0,0.0,0.0,0.0,0.0,0.0,0.0,0.0,0.0,0.0,0.0,0.0,0.0,0.0,0.0,0.0,0.0,0.0,0.0,0.0,0.0,0.0,0.0,0.0,0.0,0.0,0.0,0.0,0.0,0.0,0.0,0.0,0.0,0.0,0.0,0.0,0.0,0.0,0.0,0.0,0.0,0.0,0.0,0.0,0.0,0.0,0.0,0.0,0.0,0.0,0.0,0.0,0.0,0.0,0.0,0.0,0.0,0.0,0.0,0.0,0.0,0.0,0.0,0.0,0.0,0.0,0.0,0.0,0.0,0.0,0.0,2.0859,2.1668,2.191,2.1582,2.1621,2.1532,0.0,0.0,0.0,0.0,0.0,0.0,0.0,0.0,0.0,0.0,0.0,0.0,0.0,0.0,0.0,0.0,0.0,0.0,0.0,0.0,0.0,0.0,0.0,0.0,0.0,0.0,0.0,0.0,0.0,0.0,0.0,0.0,0.0,0.0,0.0,0.0,0.0,0.0,0.0,0.0,0.0,0.0,0.0,0.0,0.0,0.0,0.0,0.0,0.0,0.0,0.0,0.0,0.0,0.0,0.0,0.0,0.0,0.0,0.0,0.0,0.0,0.0,0.0,0.0,0.0,0.0,0.0,0.0,0.0,0.0,0.0,0.0,0.0,0.0,0.0,0.0,0.0,0.0,0.0,0.0,0.0,0.0,0.0,0.0,0.0,0.0,0.0,0.0,0.0,0.0,0.0,0.0,0.0,0.0,0.0,0.0,0.0,0.0,0.0,0.0,0.0,0.0,0.0,0.0,0.0,0.0,0.0,0.0,0.0,2.0749,0.0,2.2574,2.1924,2.204,2.1822,0.0,0.0,0.0,0.0,0.0,0.0,0.0,0.0,0.0,0.0,0.0,0.0,0.0,0.0,0.0,0.0,0.0,0.0,0.0,0.0,0.0,0.0,0.0,0.0,0.0,0.0,0.0,0.0,0.0,0.0,0.0,0.0,0.0,0.0,0.0,0.0,0.0,0.0,0.0,0.0,0.0,0.0,0.0,0.0,0.0,0.0,0.0,0.0,0.0,0.0,0.0,0.0,0.0,0.0,0.0,0.0,0.0,0.0,0.0,0.0,0.0,0.0,0.0,0.0,0.0,0.0,0.0,0.0,0.0,0.0,0.0,0.0,0.0,0.0,0.0,0.0,0.0,0.0,0.0,0.0,0.0,0.0,0.0,0.0,0.0,0.0,0.0,0.0,0.0,0.0,0.0,0.0,0.0,0.0,0.0,0.0,0.0,0.0,0.0,0.0,0.0,0.0,0.0,0.0,0.0,0.0,0.0,0.0,2.0727,2.2096,2.3017,2.3433,2.3448,2.1981,2.125,0.0,0.0,0.0,0.0,0.0,0.0,0.0,0.0,0.0,0.0,0.0,0.0,0.0,0.0,0.0,0.0,0.0,0.0,0.0,0.0,0.0,0.0,0.0,0.0,0.0,0.0,0.0,0.0,0.0,0.0,0.0,0.0,0.0,0.0,0.0,0.0,0.0,0.0,0.0,0.0,0.0,0.0,0.0,0.0,0.0,0.0,0.0,0.0,0.0,0.0,0.0,0.0,0.0,0.0,0.0,0.0,0.0,0.0,0.0,0.0,0.0,0.0,0.0,0.0,0.0,0.0,0.0,0.0,0.0,0.0,0.0,0.0,0.0,0.0,0.0,0.0,0.0,0.0,0.0,0.0,0.0,0.0,0.0,0.0,0.0,0.0,0.0,0.0,0.0,0.0,0.0,0.0,0.0,0.0,0.0,0.0,0.0,0.0,0.0,0.0,0.0,0.0,0.0,0.0,0.0,0.0,0.0,0.0,0.0,2.1456,2.2787,2.3427,2.3215,2.2429,2.1966,0.0,0.0,0.0,0.0,0.0,0.0,0.0,0.0,0.0,0.0,0.0,0.0,0.0,0.0,0.0,0.0,0.0,0.0,0.0,0.0,0.0,0.0,0.0,0.0,0.0,0.0,0.0,0.0,0.0,0.0,0.0,0.0,0.0,0.0,0.0,0.0,0.0,0.0,0.0,0.0,0.0,0.0,0.0,0.0,0.0,0.0,0.0,0.0,0.0,0.0,0.0,0.0,0.0,0.0,0.0,0.0,0.0,0.0,0.0,0.0,0.0,0.0,0.0,0.0,0.0,0.0,0.0,0.0,0.0,0.0,0.0,0.0,0.0,0.0,0.0,0.0,0.0,0.0,0.0,0.0,0.0,0.0,0.0,0.0,0.0,0.0,0.0,0.0,0.0,0.0,0.0,0.0,0.0,0.0,0.0,0.0,0.0,0.0,0.0,0.0,0.0,0.0,0.0,0.0,0.0,0.0,0.0,0.0,0.0,2.1834,2.3124,2.3729,2.3495,2.2671,2.2202,2.2151,0.0,0.0,0.0,0.0,0.0,0.0,0.0,0.0,0.0,0.0,0.0,0.0,0.0,0.0,0.0,0.0,0.0,0.0,0.0,0.0,0.0,0.0,0.0,0.0,0.0,0.0,0.0,0.0,0.0,0.0,0.0,0.0,0.0,0.0,0.0,0.0,0.0,0.0,0.0,0.0,0.0,0.0,0.0,0.0,0.0,0.0,0.0,0.0,0.0,0.0,0.0,0.0,0.0,0.0,0.0,0.0,0.0,0.0,0.0,0.0,0.0,0.0,0.0,0.0,0.0,0.0,0.0,0.0,0.0,0.0,0.0,0.0,0.0,0.0,0.0,0.0,0.0,0.0,0.0,0.0,0.0,0.0,0.0,0.0,0.0,0.0,0.0,0.0,0.0,0.0,0.0,0.0,0.0,0.0,0.0,0.0,0.0,0.0,0.0,0.0,0.0,0.0,0.0,0.0,0.0,0.0,0.0,0.0,2.2877,2.3874,2.4326,2.4136,2.2726,2.204,0.0,0.0,0.0,0.0,0.0,0.0,0.0,0.0,0.0,0.0,0.0,0.0,0.0,0.0,0.0,0.0,0.0,0.0,0.0,0.0,0.0,0.0,0.0,0.0,0.0,0.0,0.0,0.0,0.0,0.0,0.0,0.0,0.0,0.0,0.0,0.0,0.0,0.0,0.0,0.0,0.0,0.0,0.0,0.0,0.0,0.0,0.0,0.0,0.0,0.0,0.0,0.0,0.0,0.0,0.0,0.0,0.0,0.0,0.0,0.0,0.0,0.0,0.0,0.0,0.0,0.0,0.0,0.0,0.0,0.0,0.0,0.0,0.0,0.0,0.0,0.0,0.0,0.0,0.0,0.0,0.0,0.0,0.0,0.0,0.0,0.0,0.0,0.0,0.0,0.0,0.0,0.0,0.0,0.0,0.0,0.0,0.0,0.0,0.0,0.0,0.0,0.0,0.0,0.0,0.0,0.0,0.0,0.0,0.0,2.2919,2.3833,2.4219,2.3961,2.2724,2.2059,0.0,0.0,0.0,0.0,0.0,0.0,0.0,0.0,0.0,0.0,0.0,0.0,0.0,0.0,0.0,0.0,0.0,0.0,0.0,0.0,0.0,0.0,0.0,0.0,0.0,0.0,0.0,0.0,0.0,0.0,0.0,0.0,0.0,0.0,0.0,0.0,0.0,0.0,0.0,0.0,0.0,0.0,0.0,0.0,0.0,0.0,0.0,0.0,0.0,0.0,0.0,0.0,0.0,0.0,0.0,0.0,0.0,0.0,0.0,0.0,0.0,0.0,0.0,0.0,0.0,0.0,0.0,0.0,0.0,0.0,0.0,0.0,0.0,0.0,0.0,0.0,0.0,0.0,0.0,0.0,0.0,0.0,0.0,0.0,0.0,0.0,0.0,0.0,0.0,0.0,0.0,0.0,0.0,0.0,0.0,0.0,0.0,0.0,0.0,0.0,0.0,0.0,0.0,0.0,0.0,0.0,0.0,0.0,2.2471,2.3276,2.3896,2.4111,2.3871,2.2936,2.2261,0.0,0.0,0.0,0.0,0.0,0.0,0.0,0.0,0.0,0.0,0.0,0.0,0.0,0.0,0.0,0.0,0.0,0.0,0.0,0.0,0.0,0.0,0.0,0.0,0.0,0.0,0.0,0.0,0.0,0.0,0.0,0.0,0.0,0.0,0.0,0.0,0.0,0.0,0.0,0.0,0.0,0.0,0.0,0.0,0.0,0.0,0.0,0.0,0.0,0.0,0.0,0.0,0.0,0.0,0.0,0.0,0.0,0.0,0.0,0.0,0.0,0.0,0.0,0.0,0.0,0.0,0.0,0.0,0.0,0.0,0.0,0.0,0.0,0.0,0.0,0.0,0.0,0.0,0.0,0.0,0.0,0.0,0.0,0.0,0.0,0.0,0.0,0.0,0.0,0.0,0.0,0.0,0.0,0.0,0.0,0.0,0.0,0.0,0.0,0.0,0.0,0.0,0.0,0.0,0.0,0.0,0.0,0.0,2.2745,2.4019,2.421,2.4207,2.3986,2.3298,2.2597,0.0,0.0,0.0,0.0,0.0,0.0,0.0,0.0,0.0,0.0,0.0,0.0,0.0,0.0,0.0,0.0,0.0,0.0,0.0,0.0,0.0,0.0,0.0,0.0,0.0,0.0,0.0,0.0,0.0,0.0,0.0,0.0,0.0,0.0,0.0,0.0,0.0,0.0,0.0,0.0,0.0,0.0,0.0,0.0,0.0,0.0,0.0,0.0,0.0,0.0,0.0,0.0,0.0,0.0,0.0,0.0,0.0,0.0,0.0,0.0,0.0,0.0,0.0,0.0,0.0,0.0,0.0,0.0,0.0,0.0,0.0,0.0,0.0,0.0,0.0,0.0,0.0,0.0,0.0,0.0,0.0,0.0,0.0,0.0,0.0,0.0,0.0,0.0,0.0,0.0,0.0,0.0,0.0,0.0,0.0,0.0,0.0,0.0,0.0,0.0,0.0,0.0,0.0,0.0,0.0,0.0,0.0,0.0,2.4246,2.5631,2.5626,2.5505,2.5306,2.3886,2.2759,0.0,0.0,0.0,0.0,0.0,0.0,0.0,0.0,0.0,0.0,0.0,0.0,0.0,0.0,0.0,0.0,0.0,0.0,0.0,0.0,0.0,0.0,0.0,0.0,0.0,0.0,0.0,0.0,0.0,0.0,0.0,0.0,0.0,0.0,0.0,0.0,0.0,0.0,0.0,0.0,0.0,0.0,0.0,0.0,0.0,0.0,0.0,0.0,1.8741,0.0,0.0,0.0,0.0,0.0,0.0,0.0,0.0,0.0,0.0,0.0,0.0,0.0,0.0,0.0,0.0,0.0,0.0,0.0,0.0,0.0,0.0,0.0,0.0,0.0,0.0,0.0,0.0,0.0,0.0,0.0,0.0,0.0,0.0,0.0,0.0,0.0,0.0,0.0,0.0,0.0,0.0,0.0,0.0,0.0,0.0,0.0,0.0,0.0,0.0,0.0,0.0,0.0,0.0,0.0,0.0,0.0,0.0,0.0,2.5171,2.6207,2.6316,2.6247,2.6068,2.5293,2.4282,0.0,0.0,0.0,0.0,0.0,0.0,0.0,0.0,0.0,0.0,0.0,0.0,0.0,0.0,0.0,0.0,0.0,0.0,0.0,0.0,0.0,0.0,0.0,0.0,0.0,0.0,0.0,0.0,0.0,0.0,0.0,0.0,0.0,0.0,0.0,0.0,0.0,0.0,0.0,0.0,0.0,0.0,0.0,0.0,0.0,0.0,0.0,0.0,0.0,0.0,0.0,0.0,0.0,0.0,0.0,0.0,0.0,0.0,0.0,0.0,0.0,0.0,0.0,0.0,0.0,0.0,0.0,0.0,0.0,0.0,0.0,0.0,0.0,0.0,0.0,0.0,0.0,0.0,0.0,0.0,0.0,0.0,0.0,0.0,0.0,0.0,0.0,0.0,0.0,0.0,0.0,0.0,0.0,0.0,0.0,0.0,0.0,0.0,0.0,0.0,0.0,0.0,0.0,0.0,0.0,0.0,0.0,2.5081,2.5812,2.6575,2.6748,2.677,2.6675,2.6812,2.6106,2.4405,0.0,0.0,0.0,0.0,0.0,0.0,0.0,0.0,0.0,0.0,0.0,0.0,0.0,0.0,0.0,0.0,0.0,0.0,0.0,0.0,0.0,0.0,0.0,0.0,0.0,0.0,0.0,0.0,0.0,0.0,0.0,0.0,0.0,0.0,0.0,0.0,0.0,0.0,1.8999,1.9898,0.0,0.0,0.0,0.0,0.0,0.0,0.0,0.0,1.8805,0.0,0.0,0.0,0.0,0.0,0.0,0.0,0.0,0.0,0.0,0.0,0.0,0.0,0.0,0.0,0.0,0.0,0.0,0.0,0.0,0.0,0.0,0.0,0.0,0.0,0.0,0.0,0.0,0.0,0.0,0.0,0.0,0.0,0.0,0.0,0.0,0.0,0.0,0.0,0.0,0.0,0.0,0.0,0.0,0.0,0.0,0.0,0.0,0.0,0.0,0.0,0.0,0.0,0.0,0.0,0.0,2.5105,2.5474,2.6412,2.7911,2.7564,2.739,2.7419,2.7394,2.687,2.5805,0.0,0.0,0.0,0.0,0.0,0.0,0.0,0.0,0.0,0.0,0.0,0.0,0.0,0.0,0.0,0.0,0.0,0.0,0.0,0.0,0.0,0.0,0.0,0.0,0.0,0.0,0.0,0.0,0.0,0.0,0.0,0.0,0.0,0.0,0.0,0.0,0.0,0.0,0.0,2.1778,2.155,0.0,0.0,0.0,0.0,0.0,0.0,0.0,0.0,2.0298,0.0,0.0,0.0,0.0,0.0,0.0,0.0,0.0,0.0,0.0,0.0,0.0,0.0,0.0,0.0,0.0,0.0,0.0,0.0,0.0,0.0,0.0,0.0,0.0,0.0,0.0,0.0,0.0,0.0,0.0,0.0,0.0,0.0,0.0,0.0,0.0,0.0,0.0,0.0,0.0,0.0,0.0,0.0,0.0,0.0,0.0,0.0,0.0,0.0,0.0,0.0,0.0,0.0,0.0,0.0,2.5818,2.6663,2.7554,2.8427,2.8208,2.8135,2.8277,2.8284,2.7698,0.0,0.0,0.0,0.0,0.0,0.0,0.0,0.0,0.0,0.0,0.0,0.0,0.0,0.0,0.0,0.0,0.0,0.0,0.0,0.0,0.0,0.0,0.0,0.0,0.0,0.0,0.0,0.0,0.0,0.0,0.0,0.0,0.0,0.0,0.0,0.0,0.0,0.0,0.0,0.0,2.221,2.2022,2.2119,0.0,0.0,0.0,0.0,0.0,0.0,2.0494,2.0416,0.0,0.0,0.0,0.0,0.0,0.0,0.0,0.0,0.0,0.0,0.0,0.0,0.0,0.0,0.0,0.0,0.0,0.0,0.0,0.0,0.0,0.0,0.0,0.0,0.0,0.0,0.0,0.0,0.0,0.0,0.0,0.0,0.0,0.0,0.0,0.0,0.0,0.0,0.0,0.0,0.0,0.0,0.0,0.0,0.0,0.0,0.0,0.0,0.0,0.0,0.0,0.0,0.0,0.0,0.0,2.631,2.7491,2.8231,2.8504,2.8458,2.8505,2.8688,2.8706,2.8048,0.0,0.0,0.0,0.0,0.0,0.0,0.0,0.0,0.0,0.0,0.0,0.0,0.0,0.0,0.0,0.0,0.0,0.0,0.0,0.0,0.0,0.0,0.0,0.0,0.0,0.0,0.0,0.0,0.0,0.0,0.0,0.0,0.0,0.0,0.0,0.0,0.0,0.0,0.0,0.0,0.0,2.2357,2.2772,2.2367,0.0,0.0,0.0,0.0,2.0842,2.0877,0.0,0.0,0.0,0.0,0.0,0.0,0.0,0.0,0.0,0.0,0.0,0.0,0.0,0.0,0.0,0.0,0.0,0.0,0.0,0.0,0.0,0.0,0.0,0.0,0.0,0.0,0.0,0.0,0.0,0.0,0.0,0.0,0.0,0.0,0.0,0.0,0.0,0.0,0.0,0.0,0.0,0.0,0.0,0.0,0.0,0.0,0.0,0.0,0.0,0.0,0.0,0.0,0.0,0.0,0.0,0.0,2.6204,2.6794,2.7455,2.8187,2.7965,2.7836,2.7933,2.7872,2.7328,0.0,0.0,0.0,0.0,0.0,0.0,0.0,0.0,0.0,0.0,0.0,0.0,0.0,0.0,0.0,0.0,0.0,0.0,0.0,0.0,0.0,0.0,0.0,0.0,0.0,0.0,0.0,0.0,0.0,0.0,0.0,0.0,0.0,0.0,0.0,0.0,0.0,0.0,0.0,0.0,0.0,2.2776,2.2282,2.2005,2.1797,0.0,0.0,0.0,2.2591,2.3166,0.0,0.0,0.0,0.0,0.0,0.0,0.0,0.0,0.0,0.0,0.0,0.0,0.0,0.0,0.0,0.0,0.0,0.0,0.0,0.0,0.0,0.0,0.0,0.0,0.0,0.0,0.0,0.0,0.0,0.0,0.0,0.0,0.0,0.0,0.0,0.0,0.0,0.0,0.0,0.0,0.0,0.0,0.0,0.0,0.0,0.0,0.0,0.0,0.0,0.0,0.0,0.0,0.0,0.0,0.0,2.5762,2.6117,2.712,2.7832,2.8246,2.8112,2.8077,2.8139,2.8142,2.7538,0.0,0.0,0.0,0.0,0.0,0.0,0.0,0.0,0.0,0.0,0.0,0.0,0.0,0.0,0.0,0.0,0.0,0.0,0.0,0.0,0.0,0.0,0.0,0.0,0.0,0.0,0.0,0.0,0.0,0.0,0.0,0.0,0.0,0.0,0.0,0.0,0.0,0.0,0.0,0.0,0.0,0.0,2.3319,2.2978,0.0,0.0,0.0,2.2667,2.2631,0.0,0.0,0.0,0.0,0.0,0.0,0.0,0.0,0.0,0.0,0.0,0.0,0.0,0.0,0.0,0.0,0.0,0.0,0.0,0.0,0.0,0.0,0.0,0.0,0.0,0.0,0.0,0.0,0.0,0.0,0.0,0.0,0.0,0.0,0.0,0.0,0.0,0.0,0.0,0.0,0.0,0.0,0.0,0.0,0.0,0.0,0.0,0.0,0.0,0.0,0.0,0.0,0.0,0.0,0.0,0.0,0.0,2.6021,2.7453,2.8223,2.8266,2.8266,2.8286,2.8331,2.8386,0.0,0.0,0.0,0.0,0.0,0.0,0.0,0.0,0.0,0.0,0.0,0.0,0.0,0.0,0.0,0.0,0.0,0.0,0.0,0.0,0.0,0.0,0.0,0.0,0.0,0.0,0.0,0.0,0.0,0.0,0.0,0.0,0.0,0.0,0.0,0.0,0.0,0.0,0.0,0.0,0.0,0.0,2.3748,2.4302,2.4122,2.3927,0.0,0.0,2.3519,2.3111,2.3385,2.3641,0.0,0.0,0.0,0.0,0.0,0.0,0.0,0.0,0.0,0.0,0.0,0.0,0.0,0.0,0.0,0.0,0.0,0.0,0.0,0.0,0.0,0.0,0.0,0.0,0.0,0.0,0.0,0.0,0.0,0.0,0.0,0.0,0.0,0.0,0.0,0.0,0.0,0.0,0.0,0.0,0.0,0.0,0.0,0.0,0.0,0.0,0.0,0.0,0.0,0.0,0.0,0.0,0.0,0.0,0.0,2.6057,2.7459,2.8196,2.8196,2.8196,2.8175,2.8109,2.8189,2.7526,0.0,0.0,0.0,0.0,0.0,0.0,0.0,0.0,0.0,0.0,0.0,0.0,0.0,0.0,0.0,0.0,0.0,0.0,0.0,0.0,0.0,0.0,0.0,0.0,0.0,0.0,0.0,0.0,0.0,0.0,0.0,0.0,0.0,0.0,0.0,0.0,0.0,0.0,0.0,0.0,0.0,2.4532,2.4563,2.502,2.5544,0.0,0.0,2.4581,2.5036,2.5127,2.5132,2.5147,0.0,0.0,0.0,0.0,0.0,0.0,0.0,0.0,0.0,0.0,0.0,0.0,0.0,0.0,0.0,0.0,0.0,0.0,0.0,0.0,0.0,0.0,0.0,0.0,0.0,0.0,0.0,0.0,0.0,0.0,0.0,0.0,0.0,0.0,0.0,0.0,0.0,0.0,0.0,0.0,0.0,0.0,0.0,0.0,0.0,0.0,0.0,0.0,0.0,0.0,0.0,0.0,0.0,2.5936,2.596,2.7382,2.8133,2.814,2.814,2.8106,2.8042,2.8046,2.7624,0.0,0.0,0.0,0.0,0.0,0.0,0.0,0.0,0.0,0.0,0.0,0.0,0.0,0.0,0.0,0.0,0.0,0.0,0.0,0.0,0.0,0.0,0.0,0.0,0.0,0.0,0.0,0.0,2.3219,2.3121,2.2606,0.0,0.0,0.0,0.0,0.0,0.0,0.0,0.0,0.0,0.0,2.5851,2.578,2.597,0.0,0.0,2.6022,2.5792,2.5956,2.598,2.6081,2.6416,2.6984,0.0,0.0,0.0,0.0,0.0,0.0,0.0,0.0,0.0,0.0,0.0,0.0,0.0,0.0,0.0,0.0,0.0,0.0,0.0,0.0,0.0,0.0,0.0,0.0,0.0,0.0,0.0,0.0,0.0,0.0,0.0,0.0,0.0,0.0,0.0,0.0,0.0,0.0,0.0,0.0,0.0,0.0,0.0,0.0,0.0,0.0,0.0,0.0,0.0,0.0,0.0,0.0,2.5881,2.5881,2.7339,2.8071,2.8078,2.8078,2.8035,2.7989,2.7993,2.7663,0.0,0.0,0.0,0.0,0.0,0.0,0.0,0.0,0.0,0.0,0.0,0.0,0.0,0.0,0.0,0.0,0.0,0.0,0.0,0.0,0.0,0.0,0.0,0.0,0.0,0.0,0.0,0.0,2.3465,2.3202,2.2792,0.0,0.0,0.0,0.0,0.0,0.0,0.0,0.0,0.0,0.0,2.693,2.6808,2.6944,2.7045,2.6992,2.6864,2.6736,2.6699,2.653,2.6511,2.6845,0.0,0.0,0.0,0.0,0.0,0.0,0.0,0.0,0.0,0.0,0.0,0.0,0.0,0.0,0.0,0.0,0.0,0.0,0.0,0.0,0.0,0.0,0.0,0.0,0.0,0.0,0.0,0.0,0.0,0.0,2.1156,0.0,0.0,0.0,0.0,0.0,0.0,0.0,0.0,0.0,0.0,0.0,0.0,0.0,0.0,0.0,0.0,0.0,0.0,0.0,0.0,0.0,0.0,0.0,2.583,2.7289,2.8007,2.8025,2.8025,2.801,2.7931,2.7975,2.7632,2.6825,0.0,0.0,0.0,0.0,0.0,0.0,0.0,0.0,0.0,0.0,0.0,0.0,0.0,0.0,0.0,0.0,0.0,0.0,0.0,0.0,0.0,0.0,0.0,0.0,0.0,0.0,2.3214,2.2997,2.3071,0.0,0.0,0.0,0.0,0.0,0.0,0.0,0.0,0.0,0.0,2.7259,2.76,2.7415,2.7934,2.8304,2.8307,2.778,2.738,2.7369,2.6842,2.6346,0.0,0.0,0.0,0.0,0.0,0.0,0.0,0.0,0.0,0.0,0.0,0.0,0.0,0.0,0.0,0.0,0.0,0.0,0.0,0.0,0.0,0.0,0.0,0.0,0.0,0.0,0.0,2.3468,2.2711,0.0,0.0,0.0,0.0,0.0,0.0,0.0,0.0,0.0,0.0,0.0,2.8559,2.842,0.0,0.0,0.0,0.0,0.0,0.0,0.0,0.0,0.0,0.0,0.0,0.0,2.6022,2.6497,2.7861,2.8591,2.8609,2.9077,2.9066,2.8533,2.9084,2.8551,2.6798,0.0,0.0,0.0,0.0,0.0,0.0,0.0,0.0,0.0,0.0,0.0,0.0,0.0,0.0,0.0,0.0,0.0,0.0,0.0,0.0,0.0,0.0,0.0,0.0,0.0,2.432,0.0,0.0,0.0,0.0,0.0,0.0,0.0,0.0,0.0,0.0,0.0,2.7101,2.7339,2.7887,2.8232,2.8069,2.8258,2.8372,0.0,0.0,0.0,0.0,0.0,0.0,0.0,0.0,0.0,0.0,0.0,0.0,0.0,0.0,2.6572,2.6546,2.6453,2.6293,2.6048,0.0,0.0,0.0,0.0,0.0,0.0,0.0,0.0,0.0,0.0,0.0,0.0,0.0,0.0,0.0,0.0,2.4195,0.0,0.0,0.0,0.0,0.0,0.0,0.0,0.0,2.7794,2.8387,2.8821,2.8706,2.8726,0.0,2.8835,2.8411,0.0,0.0,0.0,0.0,0.0,0.0,0.0,0.0,2.7135,2.7586,2.8659,2.9259,2.9277,2.9725,2.972,2.9217,2.9491,2.8947,2.7468,2.6409,2.5541,0.0,0.0,0.0,0.0,0.0,0.0,0.0,0.0,0.0,0.0,0.0,0.0,0.0,0.0,0.0,0.0,0.0,0.0,0.0,0.0,0.0,0.0,0.0,2.503,0.0,0.0,0.0,0.0,0.0,0.0,0.0,0.0,0.0,2.584,2.6819,2.7633,2.7899,2.8065,2.8226,2.8377,0.0,0.0,0.0,0.0,0.0,0.0,0.0,2.8165,2.7955,2.8002,2.8042,2.7943,2.7738,2.7463,2.708,0.0,0.0,2.7526,2.7463,2.7374,2.7346,2.7043,2.6854,2.7036,2.6773,2.6556,0.0,0.0,0.0,0.0,0.0,0.0,0.0,0.0,2.6997,2.6391,0.0,2.5662,0.0,0.0,0.0,0.0,0.0,0.0,0.0,0.0,2.8432,2.8773,2.8784,2.8676,2.8958,2.9583,2.9504,2.9736,3.0249,2.9025,0.0,0.0,0.0,0.0,0.0,0.0,2.9012,2.9039,2.962,2.9924,2.9932,2.9959,3.0002,2.9967,2.9293,2.8899,2.8819,2.7449,2.6307,2.5649,2.5079,0.0,0.0,0.0,0.0,0.0,0.0,0.0,0.0,0.0,0.0,0.0,0.0,0.0,0.0,0.0,0.0,0.0,0.0,0.0,0.0,2.5241,0.0,0.0,0.0,0.0,0.0,0.0,0.0,0.0,0.0,0.0,2.7082,2.6795,2.7021,2.8239,0.0,0.0,0.0,0.0,2.8384,2.836,2.8399,2.8323,2.8186,2.8186,2.8085,2.7828,0.0,0.0,2.779,2.769,2.7638,2.7778,2.766,2.7549,2.7437,2.7399,2.7465,2.7534,2.6996,2.6649,2.7011,2.6709,2.6296,2.9576,0.0,0.0,0.0,0.0,2.7157,2.7216,2.7343,2.7089,2.6847,2.6595,2.6458,0.0,0.0,0.0,0.0,0.0,0.0,2.7105,2.8312,2.8497,2.9157,3.0179,3.0156,3.0219,3.0374,3.0262,3.0245,3.0394,3.0424,2.9834,2.8635,0.0,0.0,0.0,0.0,2.9296,2.9791,3.0418,3.0763,3.0763,3.1262,3.1593,3.1687,3.0781,3.0371,3.0503,2.9444,2.8617,2.8087,2.7797,0.0,0.0,0.0,0.0,0.0,0.0,0.0,0.0,0.0,0.0,0.0,0.0,0.0,0.0,0.0,0.0,0.0,0.0,0.0,2.6219,2.6683,2.6407,0.0,0.0,0.0,0.0,0.0,0.0,0.0,0.0,0.0,2.7657,2.7863,2.8104,0.0,0.0,2.8033,2.8232,2.8177,2.8079,2.7977,0.0,0.0,0.0,2.785,2.7853,2.7703,2.7663,2.7665,2.765,2.7625,2.7625,2.7663,2.7625,2.7572,2.7564,2.7552,2.7564,2.7557,2.7337,2.7164,2.7291,2.7438,2.7569,3.1002,2.922,2.8704,2.8277,2.7956,2.7846,2.7967,2.8229,2.7932,2.7832,2.7785,2.7316,2.7306,2.7638,2.7535,0.0,0.0,0.0,2.8272,2.9467,2.942,2.9905,3.0722,3.0693,3.0821,3.1054,3.096,3.1,3.1251,3.1588,3.1334,3.0498,0.0,0.0,2.9864,3.0217,3.0599,3.1007,3.1339,3.1541,3.1532,3.1699,3.1952,3.2266,3.114,3.0712,3.1119,3.0277,2.9673,2.9423,2.9074,2.8772,0.0,0.0,0.0,0.0,0.0,0.0,0.0,0.0,0.0,0.0,0.0,2.4912,0.0,0.0,0.0,0.0,2.6472,2.6785,2.6945,2.7131,0.0,0.0,0.0,0.0,0.0,0.0,0.0,2.7077,2.7519,2.7918,2.8102,2.8385,2.8553,2.8408,2.8093,2.7968,2.8152,0.0,2.8029,2.7905,2.7893,2.7828,2.7688,2.7753,2.7753,2.7612,2.7585,2.7585,2.76,2.7797,2.7991,2.8019,2.8214,2.838,2.8303,2.8275,2.8106,2.7692,2.7524,2.7463,2.7414,2.7623,2.7769,3.1907,3.184,3.0617,2.9599,2.8735,2.852,2.8913,2.9654,2.9407,2.9279,2.9218,2.8372,2.8335,2.8961,2.8769,0.0,2.9876,2.9746,3.0099,3.0891,3.0851,3.0869,3.086,3.075,3.1014,3.1663,3.1611,3.1894,3.2463,3.2499,3.2456,3.2414,3.2406,3.2431,3.2473,3.2405,3.2388,3.2371,3.2258,3.2188,3.2188,3.1541,3.1524,3.2153,3.0816,3.044,3.1096,3.0417,3.0016,3.0064,2.9489,2.9214,2.9334,0.0,0.0,0.0,0.0,0.0,0.0,0.0,0.0,0.0,0.0,0.0,0.0,0.0,0.0,0.0,2.8715,0.0,2.7234,2.695,0.0,0.0,0.0,2.6637,2.7245,2.7314,2.7566,2.8197,0.0,0.0,0.0,0.0,2.8573,2.8448,2.7885,2.7641,2.8107,2.8177,2.8125,2.7967,2.7955,2.7933,2.7914,2.7976,2.8011,2.791,2.7777,2.7824,2.7869,2.8276,2.865,2.8629,2.912,2.9453,2.9276,2.9161,2.8934,2.7904,2.7759,2.7705,2.7613,2.7615,2.7561,3.3852,3.3083,3.285,3.2057,3.0969,3.104,3.1181,3.1289,3.1046,3.0929,3.0911,3.0465,3.0338,3.0392,3.0351,3.0418,3.0563,3.046,3.084,3.1542,3.1472,3.1731,3.2286,3.2162,3.2194,3.2347,3.23,3.233,3.2507,3.2439,3.2405,3.2406,3.2406,3.2362,3.2266,3.2362,3.2328,3.2179,3.2188,3.217,3.2117,3.1952,3.1952,3.21,3.1769,3.1655,3.1865,3.1673,3.1594,3.1637,3.1497,3.1478,3.1587,3.0388,0.0,0.0,0.0,0.0,0.0,0.0,0.0,0.0,0.0,2.8529,2.8618,0.0,2.9816,0.0,3.0291,2.9308,2.7119,2.7494,0.0,0.0,2.7862,2.8183,2.8201,2.872,2.9041,2.8882,2.8966,2.9026,2.9088,2.8942,2.8795,2.8641,2.8263,2.8018,2.8051,2.7967,2.7838,2.7755,2.776,2.787,2.8342,2.8839,2.9124,2.9127,2.9099,2.9127,2.9114,2.9234,2.9286,2.9055,2.9076,2.9125,2.9002,2.8848,2.8761,2.8563,2.8641,2.8695,2.8533,2.8815,2.911,3.4474,3.3906,3.3956,3.3331,3.2307,3.2064,3.1871,3.1701,3.1531,3.1489,3.1555,3.1673,3.1617,3.1491,3.1725,3.1825,3.181,3.1693,3.1857,3.2242,3.2123,3.229,3.2706,3.2607,3.2565,3.2547,3.249,3.2448,3.2465,3.2414,3.2388,3.2319,3.2328,3.2406,3.2578,3.2406,3.2249,3.2144,3.2161,3.2108,3.1993,3.1707,3.1751,3.2073,3.1751,3.1751,3.2126,3.2108,3.2143,3.2188,3.2188,3.2223,3.2301,3.1545,3.1072,0.0,0.0,0.0,0.0,0.0,0.0,0.0,0.0,0.0,0.0,0.0,2.9606,0.0,2.9497,0.0,2.7487,2.7828,2.8168,2.8216,2.8621,2.8838,2.8738,2.9403,2.9769,2.9483,2.9647,2.9766,2.975,2.9505,2.9202,2.8865,2.9072,2.9091,2.8671,2.8637,2.8643,2.8511,2.8498,2.859,2.9009,2.9353,2.9608,2.9608,2.9608,2.9566,2.9498,2.9763,2.9916,2.9639,2.9832,2.9981,2.9753,2.9638,2.958,2.9609,2.9681,2.9491,2.8852,2.9013,2.9217,3.4399,3.4364,3.4299,3.3855,3.312,3.2454,3.1894,3.1501,3.1427,3.1483,3.1691,3.2314,3.2497,3.2354,3.2791,3.3026,3.3055,3.2894,3.2781,3.2773,3.2631,3.2589,3.2589,3.2515,3.249,3.2482,3.2413,3.2379,3.2371,3.2371,3.2345,3.231,3.2336,3.2639,3.3196,3.2735,3.2344,3.2144,3.2055,3.1974,3.184,3.1279,3.1324,3.1958,3.135,3.1342,3.2109,3.2099,3.2108,3.2161,3.217,3.2188,3.2196,3.217,3.1821,0.0,3.1045,0.0,0.0,0.0,0.0,0.0,0.0,0.0,0.0,2.9292,2.9048,2.7652,2.8064,2.8339,2.816,2.8151,2.8396,2.9053,2.9136,2.917,2.9253,2.9835,3.0186,3.0056,3.0322,3.0485,3.0395,3.0195,2.9785,2.9438,3.0108,3.0448,2.9825,2.9746,2.9729,2.9648,2.9681,2.9653,2.9699,2.9775,2.9881,2.9865,2.9884,2.9738,2.9631,3.0131,3.0488,3.0276,3.066,3.0984,3.0791,3.0688,3.0672,3.0626,3.064,3.0277,2.9247,2.8972,2.8784,3.4316,3.4086,3.4185,3.3956,3.3508,3.3514,3.2742,3.1501,3.1433,3.1621,3.2063,3.2817,3.3054,3.2942,3.297,3.2997,3.2932,3.2846,3.2748,3.2622,3.2557,3.2515,3.2515,3.2457,3.2414,3.2414,3.2414,3.2345,3.2249,3.2249,3.2484,3.3012,3.3003,3.3385,3.4096,0.0,0.0,0.0,3.1698,3.1585,3.1576,3.1475,3.1487,3.1691,3.1544,0.0,3.1856,3.1929,3.1939,3.1966,3.2064,0.0,0.0,0.0,0.0,0.0,0.0,0.0,0.0,0.0,0.0,0.0,2.9584,2.9385,2.8589,2.9033,2.9487,2.9741,2.9323,2.898,2.8898,2.8898,2.915,2.9813,2.9888,3.007,3.0557,3.0739,3.0793,3.0741,3.0696,3.0737,3.0887,3.0802,3.0686,3.0628,3.1253,3.1604,3.1296,3.0711,3.0153,2.9744,3.0071,3.0313,3.0313,3.0663,3.086,3.0949,3.0878,3.0776,3.0733,3.0836,3.0866,3.0586,3.0615,3.0716,3.0476,3.031,3.0509,3.1048,3.1165,3.0919,3.0154,2.9967,2.9937,3.4563,0.0,3.4439,3.4093,0.0,3.3627,3.2869,3.1593,3.2181,3.2517,3.2722,3.323,3.3311,3.3039,3.2588,3.2381,3.2285,3.1835,3.1765,3.2049,3.1958,3.2103,3.2431,3.2414,3.2354,3.2319,3.2293,3.2441,3.2675,3.2684,3.3047,3.3684,3.3693,3.4064,3.4777,3.4628,3.3817,3.2311,3.2198,3.1914,3.1525,3.149,3.1717,3.212,0.0,0.0,0.0,0.0,0.0,0.0,0.0,0.0,0.0,0.0,0.0,3.1231,3.1231,3.1039,3.0596,3.0202,2.997,2.9926,2.9538,2.9109,2.881,2.9075,2.9372,2.971,2.9387,2.9273,2.9556,2.9598,2.9867,3.0531,3.0649,3.0753,3.0948,3.1012,3.0935,3.0854,3.0998,3.1179,3.1232,3.157,3.1586,3.1399,3.213,3.2445,3.1714,3.1584,3.1393,3.0841,3.0775,3.0873,3.0846,3.0997,3.122,3.119,3.1307,3.1249,3.0984,3.1486,3.1723,3.1228,3.1293,3.1509,3.1416,3.1167,3.114,3.1585,3.1671,3.1521,3.1147,3.1136,3.1088,3.4692,3.4671,3.4612,3.421,3.358,3.3513,3.2922,3.2035,0.0,0.0,0.0,3.3364,3.3313,3.298,3.2279,3.1964,3.189,3.112,3.1107,3.1654,3.1547,3.1807,3.2345,3.2354,3.2293,3.2179,3.2179,3.2449,3.2968,3.2976,3.3293,3.3902,3.3961,3.4301,3.4925,3.4929,3.4268,3.3017,3.2911,3.2503,3.1681,3.1638,3.1908,3.2432,3.2398,3.2723,3.3445,3.2902,3.2616,3.2659,3.2158,3.1876,3.1893,3.1866,3.1508,3.0793,3.1207,3.1188,3.0413,3.0271,3.0212,3.0138,2.9605,2.9306,2.937,2.9243,2.9258,2.9457,2.9346,2.9556,3.0236,3.0284,3.0511,3.1103,3.1161,3.1095,3.0975,3.0945,3.0905,3.0887,3.1249,3.1643,3.1763,3.2295,3.2535,3.2189,3.2848,3.3171,3.2051,3.2172,3.2326,3.194,3.166,3.1465,3.1365,3.1321,3.1263,3.1249,3.1542,3.1573,3.1264,3.1886,3.2316,3.1794,3.2148,3.238,3.245,3.2155,3.2123,3.2369,3.2268,3.2166,3.228,3.2278,3.2129,3.4305,3.4197,3.4124,3.4043,3.3914,3.392,3.3745,3.3428,3.2664,3.2234,3.2128,3.2809,3.3109,3.316,3.2807,3.2723,3.279,3.2407,3.2226,0.0,3.2265,3.224,3.2223,3.2232,3.2179,3.2135,3.2108,3.209,3.2086,3.2103,3.2412,3.3018,3.3078,3.3426,3.4074,3.4641,3.4441,3.3512,3.3369,3.2944,3.2215,3.2198,3.196,3.1521,3.1511,3.1584,3.1824,3.1816,3.1779,3.1781,3.1815,3.1818,3.1801,3.1691,3.1575,3.1417,3.0807,3.0373,3.0217,2.9593,2.92,2.9216,2.9662,2.9965,2.995,2.9393,2.9545,3.0712,3.0313,3.0253,3.0937,3.1021,3.0999,3.1028,3.1025,3.0955,3.0773,3.0786,3.0917,3.122,3.1353,3.1889,3.2688,3.3019,3.3127,3.3134,3.3412,3.3659,3.3213,3.261,3.2231,3.2272,3.2272,3.2245,3.2112,3.2108,3.1886,3.1509,3.1901,3.2139,3.1641,3.2213,3.2624,3.2399,3.2526,3.2568,3.2584,3.2481,3.269,3.3111,3.3095,3.3109,3.3492,3.3434,3.299,3.4433,3.4381,3.4352,3.4281,3.4203,3.4023,3.386,3.3627,3.2958,3.2692,3.2799,3.3141,3.3188,3.3003,3.2501,3.2202,3.2048,3.1545,3.1493,3.1797,3.1765,3.1916,3.2179,3.2179,3.209,3.201,3.1984,3.2164,3.24,3.2422,3.2773,3.35,3.3542,3.3872,3.4493,3.4767,3.4906,3.4887,3.4379,3.3738,3.3019,3.2544,3.2378,3.2536,3.2113,3.2086,3.2496,3.2249,3.2086,3.2086,3.1798,3.1649,3.1623,3.1585,3.1511,3.143,3.1037,3.0783,3.076,3.039,3.0211,3.0219,3.0497,3.07,3.07,3.0388,3.0473,3.1116,3.0869,3.0806,3.1068,3.1085,3.1052,3.0945,3.0952,3.0875,3.0783,3.1012,3.1261,3.1435,3.198,3.2597,3.3127,3.3478,3.3692,3.3723,3.371,3.3581,3.3581,3.2989,3.2527,3.2547,3.223,3.2061,3.2248,3.2281,3.2315,3.2422,3.3094,3.329,3.3005,3.339,3.3621,3.3469,3.3414,3.3415,3.3496,3.3376,3.347,3.365,3.3693,3.3764,3.3879,3.3709,3.3223,3.4523,3.4506,3.4506,3.4437,3.4328,3.4061,3.3815,3.3587,3.3317,3.3283,3.339,3.3316,3.3135,3.2803,3.2216,3.1823,3.155,3.099,3.1012,3.1482,3.1609,3.1917,3.2388,3.2517,3.2522,3.2378,3.2221,3.2409,3.2825,3.2643,3.2847,3.3473,3.367,3.3971,3.447,3.4715,3.5156,3.5679,3.523,3.4587,3.3845,3.3157,3.2995,3.3192,3.2666,3.2496,3.2865,3.2476,3.223,3.2213,3.1774,3.149,3.149,3.149,3.1452,3.1351,3.1315,3.1274,3.12,3.119,3.119,3.119,3.1171,3.1161,3.1151,3.1141,3.1131,3.1151,3.1134,3.1095,3.1012,3.0975,3.1002,3.1025,3.1044,3.1106,3.1103,3.1477,3.1797,3.1878,3.2651,3.3201,3.3405,3.3757,3.3964,3.3841,3.3581,3.3359,3.3385,3.3257,3.3206,3.3039,3.2541,3.2417,3.2628,3.2958,3.323,3.3608,3.4285,3.4495,3.4379,3.4683,3.489,3.452,3.4358,3.4359,3.4505,3.4249,3.4087,3.4143,3.4005,3.3836,3.3664,3.3347,3.3139,3.4311,3.4239,3.4264,3.4233,3.4203,3.4093,3.3908,3.3664,3.3573,3.3397,3.3101,3.2763,3.2664,3.2695,3.2452,3.2399,3.2514,3.2194,3.2057,3.2214,3.2745,3.3029,3.3094,3.3655,3.3952,3.377,3.3156,3.2844,3.2833,3.2118,3.1766,3.1817,3.2327,3.2773,3.3,3.4105,3.4832,3.4995,3.5464,3.533,3.4627,3.4412,3.3687,3.2449,3.2361,3.2005,3.1572,3.14,3.1414,3.1407,3.1484,3.1481,3.1498,3.1498,3.1498,3.1462,3.1351,3.1274,3.12,3.119,3.119,3.1181,3.1092,3.1015,3.1015,3.0989,3.0962,3.1046,3.1022,3.1002,3.0922,3.0935,3.1118,3.1497,3.1542,3.1703,3.201,3.2194,3.2415,3.2988,3.3127,3.3368,3.3725,3.3872,3.3822,3.3645,3.3479,3.3369,3.3477,3.3772,3.4081,3.4123,3.4046,3.4038,3.4147,3.468,3.4761,3.4698,3.5161,3.5411,3.5324,3.543,3.5648,3.5273,3.505,3.5055,3.4903,3.4721,3.4399,3.4317,3.4094,3.3744,3.3213,3.2828,3.2753,3.505,3.497,3.4426,3.4086,3.3901,3.38,3.3512,3.3119,3.3081,3.292,3.2715,3.2599,3.2622,3.2694,3.2564,3.2736,3.3099,3.2887,3.3058,3.3475,3.3714,3.3778,3.3783,3.4002,3.4125,3.4086,3.3758,3.3323,3.2756,3.1954,3.1739,3.2078,3.2402,3.3021,3.3915,3.4459,3.4938,3.5423,3.5542,3.5453,3.5104,3.4715,3.4261,3.3748,3.3228,3.2605,3.1945,3.1876,3.1693,3.1293,3.1298,3.1325,3.1317,3.1317,3.1317,3.1308,3.1278,3.1239,3.12,3.1131,3.1082,3.1092,3.0992,3.0925,3.0959,3.1314,3.1535,3.1443,3.1153,3.1022,3.1275,3.1337,3.1503,3.1907,3.2,3.2097,3.2253,3.263,3.2951,3.3197,3.3425,3.367,3.3831,3.3838,3.3723,3.3542,3.3453,3.3543,3.3841,3.413,3.4476,3.4903,3.5268,3.538,3.5224,3.534,3.5627,3.5928,3.6374,3.6622,3.6502,3.6307,3.6259,3.5959,3.5688,3.5316,3.49,3.4767,3.4549,3.4349,3.4008,3.3623,3.3399,3.2949,3.2775,3.5857,3.572,3.5044,3.4635,3.4431,3.4316,3.4001,3.3619,3.3563,3.3427,3.3254,3.3311,3.3369,3.3375,3.3147,3.329,3.3712,3.3664,3.3858,3.4347,3.4424,3.4461,3.4478,3.4661,3.4707,3.4655,3.4517,3.3827,3.284,3.2383,3.2224,3.2475,3.289,3.368,3.4668,3.4861,3.5197,3.5661,3.5566,3.5447,3.5329,3.4947,3.4671,3.4516,3.3961,3.3277,3.2529,3.233,3.2013,3.1469,3.1289,3.119,3.119,3.119,3.1197,3.1151,3.1131,3.1112,3.1121,3.1015,3.1066,3.1241,3.122,3.1242,3.1483,3.1897,3.2127,3.2036,3.165,3.1601,3.1818,3.1874,3.2072,3.2567,3.2643,3.2685,3.2894,3.3408,3.3815,3.3787,3.4066,3.4069,3.3832,3.3684,3.3526,3.345,3.3612,3.3808,3.4284,3.462,3.5126,3.5616,3.6249,3.6417,3.6031,3.6169,3.6423,3.6734,3.7223,3.7357,3.7435,3.7013,3.6476,3.5959,3.588,3.5672,3.5216,3.4951,3.4585,3.4059,3.3612,3.3297,3.3108,3.2807,3.261,3.6476,3.6346,3.6224,3.614,3.6223,3.6119,3.5959,3.5491,3.5569,3.5435,3.5135,3.512,3.514,3.5077,3.4399,3.4284,3.4684,3.4635,3.4509,3.4416,3.4925,3.5166,3.5207,3.5852,3.6156,3.5991,3.5455,3.4368,3.2835,3.3259,3.3148,3.2459,3.3689,3.443,3.4701,3.521,3.5549,3.5549,3.5464,3.539,3.5379,3.5282,3.4912,3.4359,3.4186,3.3812,3.3059,3.2429,3.2122,3.2061,3.1543,3.1214,3.1207,3.1197,3.1131,3.1015,3.0979,3.0939,3.0972,3.1002,3.1287,3.1819,3.1832,3.2024,3.254,3.2674,3.2685,3.268,3.2674,3.2669,3.2707,3.259,3.2792,3.3404,3.3515,3.3709,3.4145,3.4662,3.5161,3.5013,3.4781,3.4361,3.3631,3.3398,3.3377,3.3493,3.3873,3.4331,3.4618,3.5475,3.6108,3.6423,3.6849,3.7181,3.66,3.6672,3.714,3.7315,3.727,3.7405,3.73,3.7058,3.6461,3.6055,3.6102,3.5944,3.556,3.5123,3.4693,3.407,3.3132,3.2739,3.2757,3.2426,3.2296,3.6887,3.6339,3.6317,3.6219,3.6083,3.6008,3.5828,3.5589,3.5526,3.5417,3.5358,3.5382,3.5711,3.6177,3.5814,3.5554,3.5428,3.5149,3.5186,3.5538,3.6012,3.6214,3.6269,3.6674,3.6769,3.6583,3.6354,3.5529,3.4301,3.3979,3.3932,3.4079,3.444,3.4876,3.527,3.538,3.5367,3.5286,3.524,3.5165,3.5095,3.5053,3.488,3.4675,3.4814,3.456,3.3796,3.3561,3.3214,3.2712,3.2053,3.1715,3.1675,3.1254,3.0992,3.0986,3.1348,3.1612,3.1652,3.1963,3.2277,3.2517,3.2463,3.2481,3.2796,3.3144,3.3403,3.3458,3.3786,3.3973,3.397,3.3586,3.3435,3.3916,3.4055,3.4272,3.4733,3.504,3.5124,3.4962,3.4503,3.3836,3.3612,3.3335,3.3467,3.3862,3.416,3.4683,3.5475,3.6124,3.655,3.6961,3.7201,3.7221,3.7001,3.7064,3.7269,3.7254,3.724,3.7181,3.7075,3.7059,3.6585,3.6243,3.629,3.6148,3.5705,3.4942,3.4543,3.3748,3.2818,3.2743,3.2417,3.2585,3.2441,3.7555,3.7085,3.6996,3.6877,3.6747,3.6679,3.6534,3.6361,3.6288,3.6264,3.6289,3.6338,3.6686,3.7095,3.6967,3.6738,3.638,3.5946,3.5993,3.6464,3.6696,3.6846,3.6935,3.6993,3.6907,3.6736,3.6655,3.6148,3.5317,3.4911,3.4819,3.4877,3.5015,3.5262,3.5504,3.5332,3.5175,3.5053,3.5041,3.4982,3.4911,3.4911,3.4911,3.4935,3.5065,3.4958,3.4435,3.4252,3.3924,3.3328,3.2681,3.2328,3.2278,3.1828,3.156,3.16,3.1959,3.2221,3.2255,3.2629,3.2923,3.3173,3.3117,3.3133,3.3387,3.3884,3.4104,3.4258,3.4492,3.4804,3.4704,3.4258,3.4143,3.4619,3.4692,3.4758,3.5146,3.5265,3.5176,3.4877,3.4604,3.4131,3.3744,3.3891,3.4194,3.4618,3.4794,3.5428,3.617,3.6644,3.6836,3.7294,3.7267,3.7194,3.7025,3.7027,3.7104,3.7105,3.7059,3.6984,3.6892,3.6877,3.6724,3.6476,3.6305,3.6164,3.5688,3.4874,3.4155,3.3451,3.3311,3.3308,3.316,3.3118,3.3157,3.8502,3.8441,3.8426,3.8282,3.8243,3.8172,3.8302,3.8162,3.8135,3.7952,3.7881,3.8062,3.7958,3.806,3.7693,3.7614,3.7425,3.6909,3.6699,3.6806,3.6836,3.6993,3.7178,3.6905,3.6726,3.6635,3.6409,3.6076,3.5613,3.5999,3.5808,3.5085,3.5464,3.5543,3.5135,3.5123,3.5029,3.4947,3.4923,3.4911,3.4911,3.4911,3.4911,3.4911,3.4935,3.4918,3.4857,3.4369,3.4055,3.3944,3.3356,3.3004,3.2899,3.2756,3.2812,3.2701,3.2741,3.273,3.273,3.2834,3.3265,3.368,3.3801,3.4049,3.4518,3.4722,3.4759,3.4776,3.4785,3.4828,3.4679,3.4492,3.4656,3.5539,3.519,3.5036,3.5237,3.5642,3.5645,3.4978,3.5029,3.5149,3.4722,3.4747,3.5157,3.541,3.5807,3.6218,3.6533,3.7006,3.731,3.7253,3.7209,3.7164,3.7014,3.6877,3.6908,3.6938,3.6892,3.6831,3.6708,3.6647,3.6367,3.6132,3.6422,3.6278,3.5732,3.5016,3.4811,3.429,3.4142,3.3919,3.3878,3.391,3.4277,3.859,3.8541,3.8494,3.8454,3.8423,3.837,3.8338,3.8322,3.8266,3.8242,3.8216,3.8209,3.82,3.8141,3.7854,3.7703,3.765,3.7225,3.7032,3.7092,3.7243,3.7374,3.7411,3.7253,3.7034,3.6808,3.6605,3.6487,3.6462,3.6591,3.6363,3.5965,3.5908,3.5755,3.5287,3.5083,3.4935,3.4911,3.4911,3.4911,3.4911,3.4911,3.4911,3.4911,3.4911,3.4911,3.4894,3.4719,3.4643,3.4593,3.3936,3.3339,3.294,3.2774,3.2779,3.2802,3.3227,3.3453,3.3524,3.3905,3.4248,3.4513,3.4546,3.4634,3.4838,3.4816,3.4768,3.4772,3.4679,3.457,3.4436,3.43,3.4446,3.4597,3.4466,3.4623,3.5037,3.5435,3.5527,3.5266,3.5336,3.5308,3.5185,3.5379,3.5663,3.6028,3.6328,3.6549,3.7054,3.7275,3.7404,3.7254,3.7209,3.7089,3.6877,3.6785,3.6846,3.68,3.6724,3.6693,3.6585,3.6336,3.6037,3.6,3.6288,3.625,3.57,3.5482,3.5383,3.4949,3.458,3.4504,3.4563,3.4931,3.5471,3.8459,3.8385,3.8385,3.836,3.8312,3.8282,3.8257,3.8249,3.8225,3.82,3.82,3.82,3.82,3.8167,3.7977,3.7845,3.7792,3.7532,3.744,3.7449,3.7458,3.7513,3.7485,3.7281,3.7131,3.6976,3.6816,3.6861,3.7009,3.6853,3.6594,3.6235,3.6017,3.5666,3.5241,3.5013,3.4911,3.4911,3.4911,3.4911,3.4911,3.4911,3.4911,3.4911,3.4911,3.4911,3.4911,3.4911,3.4911,3.4845,3.4419,3.3983,3.3552,3.3536,3.3519,3.3602,3.3917,3.4215,3.4265,3.4584,3.4911,3.4911,3.4911,3.4875,3.4828,3.4727,3.4749,3.4894,3.4873,3.4843,3.4909,3.4833,3.4726,3.4677,3.4663,3.4785,3.5286,3.5447,3.5489,3.5438,3.5616,3.5742,3.5775,3.609,3.6309,3.6723,3.6802,3.688,3.7354,3.7388,3.73,3.7195,3.712,3.6953,3.6693,3.6693,3.68,3.6693,3.6554,3.6538,3.6492,3.6132,3.5816,3.5915,3.6138,3.6407,3.6007,3.6358,3.6378,3.5751,3.5314,3.5723,3.611,3.6514,3.6963,3.8217,3.8209,3.8217,3.8225,3.8217,3.8209,3.8209,3.8209,3.8209,3.82,3.82,3.82,3.82,3.82,3.8167,3.808,3.8019,3.7941,3.7845,3.773,3.7586,3.743,3.7338,3.7119,3.7042,3.7069,3.7048,3.7163,3.7307,3.6942,3.655,3.6118,3.5766,3.5373,3.5024,3.4911,3.4911,3.4911,3.4911,3.4911,3.4911,3.4911,3.4911,3.4911,3.4911,3.4911,3.4911,3.4911,3.4911,3.4883,3.4845,3.4762,3.4845,3.4883,3.4745,3.4696,3.4849,3.4845,3.4878,3.4861,3.4911,3.4911,3.4887,3.4889,3.4876,3.4832,3.4959,3.533,3.535,3.5461,3.572,3.5698,3.5623,3.5645,3.544,3.5641,3.6136,3.5774,3.5646,3.5661,3.6012,3.647,3.6486,3.6975,3.7258,3.7384,3.7384,3.7416,3.7402,3.736,3.718,3.7089,3.7075,3.6892,3.6693,3.6662,3.6739,3.6677,3.6537,3.6566,3.6504,3.6141,3.611,3.6161,3.6335,3.651,3.6684,3.7018,3.715,3.6783,3.6827,3.7323,3.7602,3.7815,3.7913,3.8322,3.8274,3.8274,3.8241,3.8209,3.82,3.82,3.82,3.82,3.82,3.82,3.82,3.82,3.82,3.82,3.8122,3.801,3.7951,3.7863,3.7748,3.7622,3.7393,3.728,3.7327,3.7271,3.7156,3.7223,3.7318,3.7364,3.6893,3.6461,3.6086,3.5655,3.5264,3.4958,3.4911,3.4911,3.4911,3.4911,3.4911,3.4911,3.4911,3.4911,3.4911,3.4911,3.4911,3.4911,3.4911,3.4911,3.4911,3.4911,3.4911,3.4961,3.4949,3.4965,3.4965,3.4916,3.4899,3.4899,3.4932,3.4916,3.4899,3.4948,3.497,3.5482,3.5183,3.535,3.5742,3.5803,3.5695,3.5737,3.5748,3.5842,3.608,3.5876,3.5656,3.5804,3.5981,3.6139,3.6218,3.6755,3.7133,3.7274,3.7384,3.7573,3.7573,3.7526,3.751,3.745,3.73,3.7134,3.7119,3.7059,3.6892,3.6739,3.6708,3.6677,3.663,3.6627,3.6711,3.6615,3.6375,3.6615,3.6883,3.7259,3.7511,3.7509,3.7669,3.7644,3.7734,3.7883,3.8123,3.8317,3.8522,3.8554,3.8289,3.8257,3.8249,3.8251,3.82,3.82,3.82,3.82,3.82,3.82,3.82,3.82,3.82,3.82,3.813,3.8036,3.7968,3.7845,3.7748,3.7649,3.7613,3.7494,3.7383,3.742,3.7364,3.7337,3.7429,3.7355,3.7148,3.6729,3.6308,3.5887,3.5464,3.5142,3.4935,3.4911,3.4911,3.4911,3.4911,3.4911,3.4911,3.4911,3.4911,3.4911,3.4928,3.4998,3.5297,3.5391,3.5247,3.5065,3.5176,3.5363,3.5351,3.5302,3.5262,3.5262,3.4978,3.4727,3.481,3.4991,3.5189,3.5259,3.5317,3.5628,3.5862,3.5701,3.5848,3.6236,3.6196,3.6246,3.6372,3.6392,3.654,3.6767,3.6515,3.6294,3.6294,3.6658,3.6832,3.7038,3.7449,3.7923,3.7923,3.7906,3.7922,3.7859,3.7653,3.7589,3.748,3.7285,3.7119,3.7089,3.6999,3.6801,3.6708,3.6662,3.6921,3.6871,3.7061,3.7078,3.7053,3.689,3.7044,3.7479,3.8033,3.8362,3.8242,3.8287,3.8556,3.8661,3.8751,3.8781,3.8928,3.8943,3.9004,3.82,3.82,3.82,3.82,3.82,3.82,3.82,3.82,3.82,3.82,3.82,3.82,3.8192,3.8165,3.8053,3.7959,3.7881,3.7748,3.7667,3.7622,3.7613,3.7639,3.778,3.7417,3.7392,3.7522,3.7586,3.7356,3.7034,3.661,3.6143,3.5727,3.5338,3.5024,3.4923,3.4911,3.4911,3.4911,3.4911,3.4911,3.4961,3.506,3.5176,3.5181,3.5375,3.5611,3.5992,3.6092,3.586,3.5193,3.5777,3.6092,3.6096,3.5968,3.5787,3.5663,3.5169,3.4783,3.4783,3.5366,3.5722,3.5774,3.6195,3.6538,3.6329,3.623,3.633,3.6754,3.6703,3.69,3.7206,3.7415,3.7462,3.7527,3.7558,3.759,3.7669,3.7637,3.7606,3.7637,3.8207,3.8524,3.8508,3.8507,3.8445,3.7843,3.7669,3.7528,3.7405,3.7255,3.712,3.7014,3.6877,3.6693,3.663,3.6598,3.699,3.7253,3.7587,3.7718,3.7813,3.7728,3.7648,3.7911,3.8542,3.8766,3.8661,3.8853,3.9167,3.9242,3.9092,3.9212,3.9361,3.9257,3.9243,3.82,3.82,3.82,3.82,3.82,3.82,3.82,3.82,3.82,3.82,3.82,3.82,3.8149,3.8044,3.7992,3.7906,3.7837,3.7811,3.7658,3.7604,3.7595,3.7996,3.8245,3.7893,3.7584,3.7693,3.7631,3.7511,3.7211,3.6692,3.6175,3.5948,3.5326,3.4935,3.4923,3.4977,3.4911,3.4928,3.4949,3.5044,3.5181,3.5528,3.576,3.581,3.6257,3.6626,3.6804,3.6858,3.6775,3.6709,3.6775,3.6953,3.6791,3.634,3.6051,3.591,3.5708,3.5465,3.5505,3.5933,3.6336,3.6241,3.636,3.6465,3.6899,3.6666,3.686,3.7243,3.7376,3.735,3.7541,3.7526,3.7811,3.8128,3.8302,3.8476,3.8823,3.8586,3.8318,3.8428,3.8855,3.9092,3.8603,3.8602,3.8365,3.7874,3.7622,3.7451,3.733,3.7195,3.7075,3.6954,3.6987,3.6878,3.695,3.7036,3.7417,3.7767,3.8078,3.8332,3.8439,3.8464,3.8344,3.8599,3.9092,3.9122,3.8987,3.9092,3.9331,3.9391,3.9406,3.9406,3.9406,3.9406,3.9406,3.82,3.82,3.82,3.82,3.82,3.82,3.82,3.82,3.82,3.82,3.8192,3.8149,3.8061,3.7992,3.7924,3.7954,3.8321,3.8588,3.873,3.8719,3.8689,3.8883,3.9077,3.8844,3.8568,3.8616,3.8643,3.8464,3.7963,3.7189,3.6609,3.6259,3.54,3.4963,3.501,3.5259,3.5429,3.5545,3.5794,3.5943,3.6042,3.629,3.6522,3.6555,3.6924,3.7222,3.757,3.7603,3.7814,3.8013,3.8096,3.7947,3.761,3.714,3.6836,3.6723,3.6211,3.5993,3.5991,3.6393,3.6764,3.6661,3.6823,3.7098,3.7306,3.7202,3.7243,3.7487,3.7554,3.7574,3.7907,3.7986,3.8318,3.8792,3.8966,3.9139,3.9345,3.9171,3.8981,3.9108,3.9566,3.9503,3.9266,3.8902,3.857,3.8191,3.7621,3.7435,3.7255,3.7134,3.6999,3.6924,3.7064,3.7154,3.7299,3.7542,3.7939,3.8284,3.8602,3.8846,3.9035,3.9017,3.8973,3.9197,3.9346,3.9361,3.9272,3.9406,3.9406,3.9406,3.9406,3.9406,3.9406,3.9406,3.9406,3.8381,3.8363,3.8255,3.82,3.82,3.82,3.82,3.82,3.82,3.8301,3.8348,3.8225,3.8372,3.832,3.8268,3.8527,3.9027,3.9488,3.9637,3.9606,3.9556,3.972,3.9832,3.98,3.9868,4.0053,3.969,3.9332,3.8667,3.7985,3.724,3.6668,3.5823,3.552,3.5495,3.581,3.6174,3.6241,3.6609,3.6887,3.7003,3.7135,3.7317,3.7566,3.7615,3.788,3.8278,3.8411,3.8639,3.9249,3.9315,3.8941,3.8451,3.8005,3.7776,3.7681,3.6869,3.6438,3.6383,3.6798,3.7193,3.7056,3.7459,3.7722,3.7653,3.7561,3.7534,3.757,3.7652,3.7923,3.8413,3.8603,3.8981,3.9439,3.9582,3.955,3.9629,3.9613,3.9471,3.9756,4.0008,3.9993,3.9582,3.9155,3.8839,3.846,3.7891,3.7436,3.7272,3.7152,3.7031,3.708,3.7249,3.7784,3.8002,3.8265,3.8637,3.8725,3.9071,3.9185,3.9376,3.9302,3.9227,3.9302,3.9391,3.9406,3.9406,3.9406,3.9406,3.9406,3.9406,3.9406,3.9406,3.9406,3.9406,3.9215,3.9142,3.849,3.8218,3.8218,3.8218,3.8291,3.82,3.8319,3.8539,3.8985,3.9013,3.9247,3.9524,3.9701,3.9742,3.9782,4.0037,4.006,4.0018,4.0002,4.0167,4.0574,4.0586,4.0866,4.0976,4.0421,3.9553,3.9051,3.8376,3.7911,3.7405,3.6858,3.6605,3.6589,3.6887,3.6907,3.6953,3.7201,3.7334,3.7433,3.7798,3.8245,3.8639,3.8672,3.8821,3.8984,3.9086,3.9183,3.9285,3.9315,3.9122,3.8757,3.8262,3.7861,3.7552,3.7274,3.698,3.6882,3.7324,3.762,3.763,3.7666,3.7671,3.7584,3.7524,3.7539,3.7651,3.7938,3.8349,3.8476,3.8934,3.9613,4.0024,3.9961,3.9756,4.0056,3.9898,3.9724,4.004,4.0293,4.034,3.9756,3.9266,3.8902,3.8524,3.8019,3.7584,3.734,3.7279,3.7249,3.7344,3.7527,3.8183,3.8799,3.9098,3.9372,3.9226,3.9331,3.9257,3.9391,3.9406,3.9406,3.9406,3.9406,3.9406,3.9406,3.9406,3.9406,3.9406,3.9406,3.9406,3.9406,3.9406,3.9406,3.9985,3.994,3.9523,3.9387,3.9387,3.9387,3.9387,3.9378,3.9344,3.9508,3.9707,3.9733,3.9802,4.0013,4.0009,4.0157,4.0511,4.0932,4.0996,4.0971,4.0914,4.0947,4.1273,4.1248,4.1406,4.145,4.0905,4.0357,3.9948,3.9181,3.8635,3.8125,3.7519,3.7119,3.7218,3.7454,3.7619,3.7731,3.7996,3.8208,3.8195,3.8639,3.8987,3.9183,3.9315,3.9315,3.9315,3.9315,3.9299,3.9272,3.9202,3.901,3.8761,3.8449,3.8095,3.7857,3.7673,3.752,3.735,3.7645,3.7698,3.7596,3.7598,3.7584,3.7525,3.751,3.7541,3.759,3.7716,3.8286,3.8934,3.9313,3.9819,4.0356,4.023,4.0072,3.9977,3.9708,3.9803,3.9993,3.9914,3.9819,3.9692,3.925,3.8934,3.8539,3.8131,3.7791,3.7467,3.7421,3.7421,3.7696,3.7949,3.8594,3.9141,3.9367,3.9607,3.9553,3.9499,3.9424,3.9406,3.9406,3.9406,3.9406,3.9406,3.9406,3.9406,3.9406,3.9406,3.9406,3.9406,3.9406,3.9406,3.9406,3.9406,4.0754,4.0736,4.0573,4.0501,4.0501,4.0501,4.0465,4.0474,4.0366,4.0419,4.058,4.0448,4.0433,4.0519,4.056,4.077,4.1403,4.1889,4.1951,4.1877,4.1739,4.1738,4.1708,4.167,4.1598,4.1567,4.1492,4.1352,4.0602,3.9935,3.9346,3.8786,3.7909,3.7549,3.7781,3.8212,3.8377,3.8609,3.8937,3.9299,3.9315,3.9315,3.9315,3.9315,3.9315,3.9315,3.9315,3.9315,3.9315,3.9232,3.9077,3.886,3.8609,3.8401,3.8292,3.8221,3.7992,3.7817,3.7686,3.7626,3.7613,3.7525,3.751,3.751,3.7589,3.7637,3.7685,3.7589,3.8175,3.8397,3.9092,3.955,3.9993,4.0309,4.0419,4.023,3.9882,3.9613,3.9392,3.9455,3.9376,3.9424,3.9471,3.9077,3.8745,3.862,3.8212,3.7981,3.7686,3.7623,3.7683,3.8038,3.8414,3.9048,3.939,3.9354,3.9481,3.9478,3.946,3.9406,3.9406,3.9406,3.9406,3.9406,3.9406,3.9406,3.9406,3.9406,3.9406,3.9406,3.9406,3.9406,3.9406,3.9406,3.9406,4.156,4.1488,4.0809,4.0501,4.0555,4.0591,4.0546,4.0565,4.0564,4.0742,4.1297,4.1235,4.1449,4.1764,4.1869,4.2002,4.2085,4.2046,4.2037,4.198,4.1834,4.1725,4.1637,4.1615,4.1604,4.1565,4.1553,4.1163,4.0631,4.0295,3.9851,3.9237,3.9069,3.897,3.8755,3.8983,3.9183,3.9166,3.9249,3.9315,3.9315,3.9315,3.9315,3.9315,3.9315,3.9315,3.9315,3.9315,3.9285,3.9245,3.8969,3.8764,3.8569,3.8187,3.7931,3.7816,3.773,3.7656,3.7553,3.7554,3.7539,3.751,3.751,3.751,3.759,3.789,3.7954,3.7605,3.8839,3.9329,3.9013,3.9708,4.0293,4.0293,4.0056,4.0135,4.0024,3.9518,3.9313,3.9281,3.9329,3.9439,3.9503,3.8998,3.8541,3.8464,3.8356,3.82,3.8043,3.8055,3.8184,3.8586,3.8758,3.9292,3.9444,3.9448,3.9442,3.9406,3.9406,3.9406,3.9406,3.9406,3.9406,3.9406,3.9406,3.9406,3.9406,3.9406,3.9406,3.9406,3.9406,3.9406,3.9406,3.9406,3.9406,4.2375,4.2357,4.1995,4.185,4.1868,4.1868,4.1831,4.1784,4.1698,4.1773,4.1962,4.1916,4.2022,4.2179,4.2176,4.2153,4.2125,4.2012,4.192,4.1873,4.1747,4.1659,4.1615,4.1604,4.1604,4.1531,4.1323,4.0972,4.0551,4.0343,4.002,3.9458,3.9511,3.9444,3.9405,3.9537,3.9455,3.9362,3.9315,3.9315,3.9315,3.9315,3.9315,3.9315,3.9315,3.9302,3.9285,3.9315,3.9232,3.9121,3.883,3.8569,3.8301,3.8003,3.7728,3.7598,3.7583,3.7569,3.751,3.751,3.751,3.751,3.751,3.751,3.7574,3.7795,3.7938,3.7573,3.8254,3.8602,3.8603,3.9045,3.9518,3.9708,3.9787,3.9929,3.9993,3.9598,3.9281,3.9281,3.936,3.9645,3.9898,3.9803,3.9629,3.9692,3.947,3.9168,3.8969,3.8829,3.9006,3.9293,3.9355,3.9478,3.9454,3.9442,3.9424,3.9406,3.9406,3.9406,3.9406,3.9406,3.9406,3.9406,3.9406,3.9406,3.9406,3.9406,3.9406,3.9406,3.9406,3.9406,3.9406,3.9406,3.9406,4.291,4.291,4.291,4.291,4.291,4.291,4.2835,4.2765,4.2586,4.2522,4.2465,4.23,4.2169,4.2103,4.209,4.2072,4.2005,4.1862,4.183,4.1747,4.167,4.1615,4.1604,4.1604,4.1604,4.1593,4.1209,4.089,4.064,4.0319,3.9952,3.9488,3.972,3.972,3.9629,3.9681,3.9694,3.9325,3.9315,3.9315,3.9315,3.9315,3.9315,3.9285,3.9272,3.9245,3.9218,3.9161,3.9067,3.8942,3.8623,3.8343,3.813,3.7845,3.7642,3.7539,3.7525,3.7525,3.751,3.751,3.751,3.7542,3.7748,3.7938,3.8142,3.8001,3.7859,3.7874,3.8191,3.8333,3.8254,3.8539,3.9171,3.9582,3.974,3.9835,3.9929,3.9866,3.9961,4.0214,4.0309,4.0277,4.0514,4.0686,4.0779,4.0903,4.0644,4.0133,3.9753,3.9397,3.9477,3.9624,3.9594,3.955,3.946,3.9406,3.9406,3.9406,3.9406,3.9406,3.9406,3.9406,3.9406,3.9406,3.9406,3.9406,3.9406,3.9406,3.9406,3.9406,3.9406,3.9406,3.9406,3.9406,3.9406,4.291,4.291,4.291,4.291,4.291,4.291,4.2871,4.2774,4.2667,4.2566,4.2425,4.2253,4.2114,4.2079,4.2012,4.2005,4.1984,4.1862,4.1808,4.1754,4.167,4.1615,4.1604,4.1604,4.1593,4.1538,4.1128,4.0913,4.0765,4.0129,3.9961,3.9888,3.9948,3.9926,3.9824,3.9772,3.9655,3.9352,3.9315,3.9315,3.9315,3.9299,3.9285,3.9228,3.9134,3.9023,3.904,3.8942,3.886,3.8805,3.8427,3.8187,3.8015,3.7728,3.7524,3.7525,3.751,3.751,3.751,3.751,3.7541,3.7685,3.8002,3.8523,3.8949,3.9218,3.9044,3.8508,3.8649,3.8538,3.8475,3.8554,3.9108,3.9708,4.0103,4.0498,4.0609,4.0609,4.0751,4.113,4.1178,4.1004,4.0923,4.1064,4.0984,4.1076,4.0781,4.0266,3.9908,3.9627,3.9677,3.974,3.9669,3.9589,3.9442,3.9406,3.9406,3.9406,3.9406,3.9406,3.9406,3.9406,3.9406,3.9406,3.9406,3.9406,3.9406,3.9406,3.9406,3.9406,3.9406,3.9406,3.9406,3.9406,3.9406,4.291,4.291,4.291,4.291,4.291,4.2843,4.2793,4.2686,4.2568,4.2417,4.2246,4.2153,4.2037,4.1941,4.1905,4.1837,4.1765,4.1692,4.167,4.1659,4.1626,4.1604,4.1604,4.1604,4.1593,4.1464,4.1018,4.079,4.0884,4.0083,4.0003,4.0041,4.0167,4.0045,3.9948,3.9694,3.9458,3.9379,3.9315,3.9315,3.9315,3.9285,3.9228,3.9104,3.908,3.8955,3.8901,3.8846,3.875,3.8597,3.8303,3.8118,3.796,3.7656,3.7525,3.751,3.751,3.751,3.751,3.7541,3.7684,3.8096,3.8397,3.8807,3.9471,3.9487,3.9408,3.9187,3.8934,3.8618,3.906,3.8886,3.9061,3.9866,4.053,4.0988,4.1162,4.1114,4.1162,4.1383,4.143,4.1368,4.1349,4.1361,4.125,4.1138,4.0777,4.0411,4.0031,3.9729,3.9733,3.9696,3.9625,3.9553,3.9424,3.9406,3.9406,3.9406,3.9406,3.9406,3.9406,3.9406,3.9406,3.9406,3.9406,3.9406,3.9406,3.9406,3.9406,3.9406,3.9406,3.9406,3.9406,3.9406,3.9406,4.291,4.291,4.2881,4.2862,4.2853,4.2832,4.2706,4.2578,4.2516,4.2346,4.2093,4.2058,4.1941,4.1812,4.1736,4.1703,4.1637,4.1615,4.1604,4.1604,4.1604,4.1604,4.1604,4.1604,4.1593,4.1419,4.1018,4.0795,4.0942,3.994,4.0054,4.0336,4.0331,4.0066,3.9867,3.9524,3.9315,3.9315,3.9315,3.9315,3.9315,3.9232,3.9178,3.8996,3.8931,3.8821,3.8738,3.8683,3.8614,3.846,3.8234,3.8003,3.7831,3.7671,3.7539,3.751,3.751,3.751,3.751,3.7557,3.7922,3.8634,3.8524,3.8997,3.9503,3.9518,3.9108,3.9408,3.895,3.8792,3.9455,3.9439,3.9582,4.0387,4.0862,4.1288,4.1415,4.143,4.1462,4.1557,4.1573,4.1525,4.1442,4.1373,4.1092,4.0914,4.0596,4.027,3.9969,3.9718,3.9636,3.9571,3.9499,3.946,3.9406,3.9406,3.9406,3.9406,3.9406,3.9406,3.9406,3.9406,3.9406,3.9406,3.9406,3.9406,3.9406,3.9406,3.9406,3.9406,3.9406,3.9406,3.9406,3.9406,3.9406,4.291,4.2882,4.2841,4.2803,4.2783,4.2783,4.2667,4.2506,4.2473,4.2315,4.2061,4.1909,4.1823,4.1758,4.167,4.1626,4.1615,4.1604,4.1604,4.1604,4.1604,4.1604,4.1604,4.1604,4.1593,4.1504,4.1152,4.0913,4.1018,4.0184,4.032,4.0439,4.0217,3.991,3.9862,3.9498,3.9299,3.9315,3.9315,3.9315,3.9232,3.9107,3.9023,3.8903,3.8782,3.8658,3.8602,3.8504,3.8434,3.8363,3.8078,3.7889,3.7831,3.7627,3.7494,3.751,3.751,3.751,3.751,3.751,3.8096,3.8918,3.8697,3.9092,3.9866,3.9645,3.9203,3.9882,3.9266,3.9108,3.9534,4.0056,4.0372,4.0767,4.1225,4.1415,4.1541,4.1588,4.1588,4.1588,4.1588,4.1572,4.1473,4.1322,4.0952,4.0665,4.0372,4.0108,3.9892,3.9732,3.9625,3.9553,3.9481,3.9424,3.9406,3.9406,3.9406,3.9406,3.9406,3.9406,3.9406,3.9406,3.9406,3.9406,3.9406,3.9406,3.9406,3.9406,3.9406,3.9406,3.9406,3.9406,3.9406,3.9406,3.9406,4.291,4.291,4.2881,4.2728,4.2552,4.2586,4.2546,4.2483,4.2305,4.2111,4.1913,4.1812,4.1754,4.167,4.1637,4.1604,4.1604,4.1604,4.1604,4.1604,4.1604,4.1604,4.1604,4.1604,4.1604,4.1493,4.1238,4.1163,4.1379,4.0427,4.0217,4.0311,3.9995,3.9707,3.9703,3.9524,3.9315,3.9315,3.9285,3.9245,3.9107,3.901,3.8901,3.8752,3.863,3.8562,3.8476,3.8365,3.8308,3.8235,3.7963,3.7788,3.7759,3.7568,3.751,3.751,3.751,3.751,3.751,3.7573,3.7906,3.846,3.8776,3.9155,4.0214,4.023,4.0324,4.0467,4.004,4.0151,4.0846,4.0577,4.0735,4.1194,4.1542,4.1525,4.1588,4.1588,4.1588,4.1588,4.1588,4.1555,4.1473,4.1122,4.0749,4.0457,4.0196,4.0089,3.9889,3.9768,3.9661,3.9607,3.9535,3.946,3.9406,3.9406,3.9406,3.9406,3.9406,3.9406,3.9406,3.9406,3.9406,3.9406,3.9406,3.9406,3.9406,3.9406,3.9406,3.9406,3.9406,3.9406,3.9406,3.9406,3.9406,4.2881,4.2891,4.2757,4.2573,4.2422,4.244,4.2415,4.2302,4.2107,4.192,4.183,4.1758,4.1692,4.1626,4.1604,4.1604,4.1604,4.1604,4.1604,4.1604,4.1604,4.1604,4.1604,4.1604,4.1604,4.1515,4.1363,4.1266,4.1065,4.0422,4.0074,3.9914,3.9703,3.9612,3.9586,3.9405,3.9315,3.9315,3.9285,3.9218,3.9067,3.8928,3.8805,3.8672,3.8546,3.849,3.8408,3.8308,3.8209,3.8108,3.7919,3.7715,3.7656,3.7599,3.751,3.751,3.751,3.751,3.751,3.751,3.7874,3.846,3.8507,3.9202,4.0151,4.0166,4.0498,4.0704,4.0783,4.1067,4.1305,4.0925,4.113,4.1589,4.1605,4.1588,4.1588,4.1588,4.1588,4.1588,4.1555,4.1522,4.134,4.0936,4.0526,4.0266,4.0003,3.9945,3.9854,3.9747,3.9625,3.9571,3.9532,3.9442,3.9406,3.9406,3.9406,3.9406,3.9406,3.9406,3.9406,3.9406,3.9406,3.9406,3.9406,3.9406,3.9406,3.9406,3.9406,3.9406,3.9406,3.9406,3.9406,3.9406,3.9406,4.2833,4.2834,4.248,4.2341,4.2391,4.2341,4.2205,4.1987,4.1862,4.1801,4.178,4.1648,4.1615,4.1604,4.1604,4.1604,4.1604,4.1604,4.1604,4.1604,4.1604,4.1604,4.1604,4.1604,4.1604,4.1593,4.1442,4.1065,4.0533,4.0348,4.0003,3.9609,3.9677,3.9573,3.9445,3.9339,3.9272,3.9245,3.9272,3.9137,3.8917,3.8819,3.8653,3.8504,3.8363,3.8335,3.828,3.8194,3.8151,3.8036,3.7877,3.7744,3.7642,3.7584,3.7539,3.751,3.751,3.7526,3.7637,3.7653,3.8143,3.8744,3.8697,3.9424,3.9993,4.0245,4.0482,4.0767,4.0909,4.1178,4.1384,4.1415,4.1478,4.1588,4.1588,4.1588,4.1588,4.1588,4.1572,4.1555,4.1522,4.1373,4.0987,4.0612,4.0335,4.0089,3.9841,3.9661,3.9586,3.9568,3.9496,3.9478,3.9442,3.9424,3.9406,3.9406,3.9406,3.9406,3.9406,3.9406,3.9406,3.9406,3.9406,3.9406,3.9406,3.9406,3.9406,3.9406,3.9406,3.9406,3.9406,3.9406,3.9406,3.9406,3.9406,4.2812,4.2785,4.2492,4.231,4.2156,4.1934,4.1834,4.1852,4.1801,4.1765,4.1659,4.1615,4.1604,4.1604,4.1604,4.1604,4.1604,4.1604,4.1604,4.1604,4.1604,4.1604,4.1604,4.1604,4.1604,4.1504,4.1329,4.1071,4.0783,4.0536,3.994,3.9455,3.9603,3.9494,3.9405,3.9315,3.9218,3.9161,3.9232,3.9029,3.8796,3.8669,3.8474,3.8262,3.8135,3.8123,3.808,3.7948,3.789,3.7817,3.7672,3.7569,3.7554,3.7525,3.751,3.751,3.7557,3.7668,3.8002,3.7764,3.8143,3.9297,3.9424,3.9692,4.023,4.053,4.0593,4.0925,4.1146,4.1399,4.1509,4.1557,4.1588,4.1588,4.1588,4.1588,4.1588,4.1555,4.1522,4.139,4.1356,4.1105,4.0715,4.0439,4.0194,3.991,3.9694,3.9496,3.9406,3.9406,3.9406,3.9406,3.9406,3.9406,3.9406,3.9406,3.9406,3.9406,3.9406,3.9406,3.9406,3.9406,3.9406,3.9406,3.9406,3.9406,3.9406,3.9406,3.9406,3.9406,3.9406,3.9406,3.9406,3.9406,3.9406,4.2754,4.2745,4.2389,4.2121,4.1881,4.1692,4.1648,4.1703,4.1725,4.1653,4.1604,4.1604,4.1604,4.1604,4.1604,4.1604,4.1604,4.1604,4.1604,4.1604,4.1604,4.1604,4.1604,4.1604,4.1604,4.1453,4.1209,4.0913,4.0664,4.0196,3.9603,3.9365,3.9511,3.9445,3.9339,3.9285,3.9175,3.9107,3.904,3.889,3.8711,3.853,3.8321,3.8121,3.7977,3.789,3.7876,3.7759,3.77,3.7671,3.7569,3.751,3.751,3.751,3.751,3.751,3.7526,3.7859,3.8176,3.7827,3.8807,3.9756,3.9993,4.0182,4.0625,4.1051,4.1226,4.1431,4.1509,4.1588,4.1588,4.1588,4.1588,4.1588,4.1588,4.1588,4.1555,4.1506,4.139,4.1239,4.1053,4.085,4.056,4.0283,4.0018,3.9732,3.9568,3.9478,3.9406,3.9406,3.9406,3.9406,3.9406,3.9406,3.9406,3.9406,3.9406,3.9406,3.9406,3.9406,3.9406,3.9406,3.9406,3.9406,3.9406,3.9406,3.9406,3.9406,3.9406,3.9406,3.9406,3.9406,3.9406,3.9406,3.9406,4.2649,4.2706,4.2191,4.1869,4.1615,4.1604,4.1604,4.1604,4.1615,4.1604,4.1604,4.1604,4.1604,4.1604,4.1604,4.1604,4.1604,4.1604,4.1604,4.1604,4.1604,4.1604,4.1604,4.1604,4.1604,4.1453,4.11,4.0611,4.0237,3.9905,3.9668,3.9342,3.9471,3.9471,3.9339,3.9315,3.9178,3.8942,3.8914,3.8832,3.8653,3.8488,3.8335,3.8221,3.802,3.7847,3.7817,3.7759,3.7686,3.7627,3.7599,3.751,3.751,3.751,3.751,3.751,3.751,3.8032,3.8318,3.8112,3.8997,3.9756,4.0056,4.0467,4.0988,4.1351,4.1526,4.1557,4.1588,4.1588,4.1588,4.1588,4.1588,4.1588,4.1588,4.1588,4.1572,4.1455,4.1237,4.1052,4.0816,4.0593,4.0333,4.0053,3.9841,3.9553,3.9442,3.9406,3.9406,3.9406,3.9406,3.9406,3.9406,3.9406,3.9406,3.9406,3.9406,3.9406,3.9406,3.9406,3.9406,3.9406,3.9406,3.9406,3.9406,3.9406,3.9406,3.9406,3.9406,3.9406,3.9406,3.9406,3.9406,3.9406,3.9406,4.253,4.2379,4.2012,4.1747,4.1615,4.1604,4.1604,4.1604,4.1604,4.1604,4.1604,4.1604,4.1604,4.1604,4.1604,4.1604,4.1604,4.1604,4.1604,4.1604,4.1604,4.1604,4.1604,4.1604,4.1604,4.1363,4.0925,4.0299,3.9812,3.9742,3.9755,3.9415,3.9573,3.9664,3.9352,3.9325,3.9107,3.8832,3.8764,3.8623,3.8343,3.8116,3.7931,3.7801,3.7643,3.7643,3.7628,3.7599,3.7554,3.7539,3.7525,3.751,3.751,3.751,3.751,3.751,3.7541,3.8111,3.8634,3.8713,3.9313,4.034,4.0846,4.1052,4.1289,4.1478,4.1588,4.1588,4.1588,4.1588,4.1588,4.1588,4.1588,4.1588,4.1588,4.1588,4.1572,4.1355,4.1102,4.0847,4.0591,4.0366,4.0104,3.9892,3.9661,3.9517,3.9442,3.9406,3.9406,3.9406,3.9406,3.9406,3.9406,3.9406,3.9406,3.9406,3.9406,3.9406,3.9406,3.9406,3.9406,3.9406,3.9406,3.9406,3.9406,3.9406,3.9406,3.9406,3.9406,3.9406,3.9406,3.9406,3.9406,3.9406,3.9406,4.2369,4.2194,4.192,4.1725,4.1615,4.1604,4.1604,4.1604,4.1604,4.1604,4.1604,4.1604,4.1604,4.1604,4.1604,4.1604,4.1604,4.1604,4.1604,4.1604,4.1604,4.1604,4.1604,4.1604,4.1604,4.1397,4.0742,4.0108,3.9507,3.9524,3.956,3.9481,3.9768,3.9674,3.9362,3.9282,3.9053,3.8819,3.8681,3.843,3.8087,3.7929,3.7886,3.7743,3.7627,3.7553,3.751,3.751,3.751,3.751,3.751,3.751,3.751,3.751,3.751,3.751,3.7668,3.8095,3.8871,3.9297,3.9566,4.0672,4.1036,4.0941,4.1399,4.1588,4.1588,4.1588,4.1588,4.1588,4.1588,4.1588,4.1588,4.1588,4.1555,4.1539,4.1422,4.122,4.0898,4.0557,4.0366,4.0226,3.9998,3.9824,3.9625,3.9478,3.9406,3.9406,3.9406,3.9406,3.9406,3.9406,3.9406,3.9406,3.9406,3.9406,3.9406,3.9406,3.9406,3.9406,3.9406,3.9406,3.9406,3.9406,3.9406,3.9406,3.9406,3.9406,3.9406,3.9406,3.9406,3.9406,3.9406,3.9406,3.9406,4.2176,4.204,4.1856,4.1703,4.1615,4.1604,4.1604,4.1604,4.1604,4.1604,4.1657,4.1745,4.1716,4.1611,4.1604,4.1604,4.1604,4.1604,4.1604,4.1604,4.1604,4.1604,4.1604,4.1604,4.1475,4.1152,4.0563,3.9948,3.9339,3.9511,3.9625,3.9599,3.9451,3.9279,3.9412,3.9239,3.8901,3.8708,3.8528,3.829,3.8075,3.7916,3.7873,3.78,3.7714,3.7525,3.751,3.751,3.751,3.751,3.751,3.751,3.751,3.751,3.751,3.7526,3.7732,3.8396,3.9123,3.9297,4.0119,4.0877,4.0767,4.0988,4.1478,4.1588,4.1588,4.1588,4.1588,4.1588,4.1588,4.1588,4.1588,4.1588,4.1539,4.1472,4.1271,4.1068,4.0729,4.0349,4.0174,4.0066,3.9892,3.9717,3.9589,3.946,3.9406,3.9406,3.9406,3.9406,3.9406,3.9406,3.9406,3.9406,3.9406,3.9406,3.9406,3.9406,3.9406,3.9406,3.9406,3.9406,3.9406,3.9406,3.9406,3.9406,3.9406,3.9406,3.9406,3.9406,3.9406,3.9406,3.9406,3.9406,3.9406,4.2019,4.1845,4.1721,4.1626,4.1604,4.1604,4.1604,4.1604,4.1604,4.1604,4.1815,4.2271,4.2278,4.1622,4.1604,4.1604,4.1604,4.1604,4.1604,4.1604,4.1604,4.1604,4.1571,4.1487,4.1175,4.0748,4.0274,3.9764,3.9379,3.9563,3.9703,3.9651,3.9575,3.9414,3.9312,3.9058,3.8706,3.8528,3.8389,3.8193,3.7845,3.7685,3.7598,3.7553,3.7554,3.751,3.751,3.751,3.751,3.751,3.751,3.751,3.751,3.7526,3.7557,3.7764,3.7954,3.8697,3.9266,3.9756,4.0704,4.1272,4.1257,4.132,4.1588,4.1588,4.1588,4.1588,4.1588,4.1588,4.1588,4.1588,4.1588,4.1588,4.1572,4.1405,4.1203,4.0967,4.0694,4.0314,3.9998,3.9892,3.975,3.9607,3.9481,3.9406,3.9406,3.9406,3.9406,3.9406,3.9406,3.9406,3.9406,3.9406,3.9406,3.9406,3.9406,3.9406,3.9406,3.9406,3.9406,3.9406,3.9406,3.9406,3.9406,3.9406,3.9406,3.9406,3.9406,3.9406,3.9406,3.9406,3.9406,3.9406,3.9406]}]]